GFSSGP_con_mlcape_000.txt.gz
CAPE
558 415 900 1188 302 7 18 71 13 32 34 45 110 116 64 120 0 1 42 203 389 497 783 1024 1224 1461 1549 914 688 921 1322 1393 1469 1279 1039 1437 1628 1507 1660 2053 1864 1891 1936 1971 2073 2082 2007 1797 1942
413 712 992 1003 70 0 2 50 80 14 98 200 384 304 171 122 101 47 188 244 419 594 826 1272 1421 1301 1031 1233 1274 1450 1626 1520 1588 1611 1415 1430 1430 1590 1634 1450 1464 1550 1828 1899 1802 1838 1862 1760 1676
313 613 1043 659 32 0 12 129 129 0 72 309 349 203 199 246 318 274 280 391 661 519 731 1159 999 1126 1120 1616 1746 1670 1568 1321 1298 1305 1429 1374 1524 1539 1673 1635 1573 1677 1676 1694 1725 1692 1731 1691 1633
354 381 678 365 0 0 65 194 181 24 90 516 417 269 456 483 453 367 464 638 471 710 1159 1524 1445 1671 1829 1917 1782 1279 1139 930 1272 1467 1339 1151 1247 1477 1812 1878 1856 1851 1871 1763 1706 1654 1636 1608 1626
287 126 49 3 0 0 137 198 261 424 518 519 350 437 530 449 587 647 731 626 471 775 1286 1392 1504 1758 1753 2033 1785 1629 1412 1178 1139 1304 1358 1737 1870 1860 1883 1776 1693 1677 1669 1639 1685 1706 1687 1375 1435
6 1 4 5 5 0 144 212 321 626 735 519 358 409 536 656 910 951 864 683 591 795 1379 1708 1637 1828 1924 2088 2190 1865 1563 1355 1295 1494 1810 1850 1789 1863 1765 1706 1755 1675 1562 1583 1586 1712 1648 1645 1819
9 4 1 5 3 14 125 268 302 610 602 565 579 293 498 732 897 1085 1031 824 830 1397 1748 1976 1930 1908 2026 2018 1878 1836 1527 1143 1091 1581 1569 1542 1697 1360 1401 1611 1688 1628 1620 1716 1857 2006 1971 2042 2180
34 0 3 0 0 0 218 171 292 432 546 892 552 319 472 575 876 1048 1062 1029 1178 1600 1774 1819 1989 2165 2061 1996 1762 1502 1499 1389 1379 1561 1439 1430 1505 1344 1522 1271 1463 1785 2011 1914 1676 1989 1906 1787 1659
57 68 5 5 0 0 0 31 318 448 728 398 545 441 853 784 895 1162 1193 1280 1215 998 1293 1655 1909 1956 1630 2019 2171 1836 1457 1395 1340 1359 1332 1482 1411 1045 252 722 722 1177 1583 1851 1536 1462 1603 1674 1446
26 54 17 6 21 0 0 52 185 385 519 471 439 748 1143 1144 1249 1213 1355 1322 1263 1190 1259 1362 1415 1858 1881 2112 1983 1627 1831 1509 1187 1383 1280 1013 1042 1041 912 583 365 470 1364 1494 1422 1484 1256 1260 882
0 2 4 4 61 40 78 163 217 330 351 301 341 687 1277 1232 1356 1323 1322 1229 1277 1391 1527 1611 1801 1793 1750 1709 1714 1414 1289 1215 1179 950 970 1263 1200 1106 838 753 762 866 1236 1216 1459 1445 1295 1129 1009
2 0 20 29 92 32 65 102 143 204 318 384 497 825 1151 1167 1222 1394 1204 1205 1281 1447 1571 1752 1824 1644 1705 1436 1321 1097 1089 994 1248 1204 1390 1359 1394 829 576 981 1326 1180 1112 987 991 1022 952 981 820
1 0 19 55 23 82 88 0 228 213 365 369 384 573 737 1003 1080 1132 997 1138 1273 1237 1290 1607 1862 1692 1661 1746 1539 1560 1586 1519 1576 1535 1464 1586 1375 989 1302 1109 1172 1114 981 906 1021 914 847 751 637
38 33 52 47 88 139 0 57 173 481 383 253 321 380 627 719 839 677 619 1017 1177 1239 1608 1841 1861 1533 1841 1619 1680 1744 1764 1678 1752 1634 1540 1532 1390 1096 1183 944 807 593 825 829 870 833 663 560 602
37 8 1 50 141 251 204 294 208 402 416 365 300 354 356 470 498 648 600 865 899 1229 1713 1828 1777 1966 1919 1996 1680 1241 1577 1379 1406 1452 1467 1289 1212 1227 1131 959 734 543 554 564 604 470 283 257 323
2 0 0 11 69 238 95 261 190 409 395 358 377 349 381 449 354 480 670 653 506 679 1509 1597 1794 1924 1712 1684 1656 1671 1527 1473 1347 1214 1250 1141 992 1039 1020 866 686 648 607 631 436 266 356 301 276
0 0 0 0 0 16 12 251 128 137 239 306 321 326 333 301 308 263 400 484 505 686 1150 1387 1707 1649 1663 1678 1764 1789 1763 1330 1345 1561 1206 1194 928 930 1056 751 758 813 643 507 461 396 333 209 181
0 0 0 0 0 1 4 108 182 151 134 179 217 194 244 262 278 266 288 319 362 461 716 899 1283 1713 1897 1917 1905 1826 1708 1548 1674 1371 1083 1088 942 1070 1093 730 759 778 739 610 571 506 270 260 261
0 0 0 0 0 0 0 101 135 249 260 290 364 295 319 243 253 249 289 302 408 459 604 706 852 1392 1943 1711 1572 1714 1654 1441 1209 957 1041 1235 1004 1022 911 705 618 768 617 536 486 402 415 341 248
0 0 0 0 0 0 45 83 144 275 389 476 548 534 498 523 294 280 318 391 442 537 640 869 941 1466 1647 1530 1504 1408 1402 1316 1259 1439 1552 1267 993 949 643 632 698 550 403 381 314 240 246 221 362
0 0 0 4 8 2 67 82 162 236 330 390 465 629 676 794 635 452 425 522 625 718 843 1102 1349 1485 1594 1624 1579 1600 1663 1336 1185 1061 1383 710 431 231 54 129 118 101 212 158 220 289 318 190 279
0 0 0 10 27 6 43 20 49 117 111 149 267 479 549 625 781 762 753 529 764 1003 1072 1520 1587 1771 1849 1944 1569 1292 529 317 132 522 684 191 0 0 0 1 112 199 99 66 168 346 332 221 115
0 0 0 12 37 22 17 18 18 6 13 67 138 316 384 406 751 861 912 649 852 1207 1423 1530 1673 1820 1784 1757 1598 1393 229 0 53 113 0 0 0 0 0 100 151 16 0 2 54 24 127 164 144
0 0 0 7 12 24 12 15 8 14 41 23 24 268 312 286 634 906 1017 751 1158 1335 1619 1752 1643 1514 1498 1571 1150 369 0 0 0 0 0 0 0 0 0 8 0 0 0 0 2 80 52 53 120
0 0 0 0 0 0 0 34 0 3 24 18 11 139 264 231 300 645 683 725 1309 1482 1602 1753 1628 1271 1058 520 7 0 0 0 0 0 0 0 0 0 0 0 0 0 0 0 7 9 0 17 35
0 0 0 0 0 0 0 0 0 0 5 17 5 94 185 187 210 376 263 311 907 1316 1421 1529 1406 1277 862 103 0 0 0 0 0 0 0 0 0 0 0 0 0 0 0 1 7 16 0 12 62
0 0 0 0 0 0 0 0 0 0 1 5 0 12 104 155 191 255 265 340 701 1075 1229 1384 1161 1185 677 273 0 0 0 0 0 0 0 0 0 0 0 0 0 0 0 0 0 0 80 31 13
0 0 0 0 0 0 0 0 0 14 22 27 2 2 11 68 181 228 289 384 786 983 1292 1406 1129 1104 760 254 0 0 8 2 8 0 0 0 0 0 0 0 0 0 0 0 0 0 0 0 16
0 0 0 0 0 0 0 0 0 16 20 42 46 37 2 36 56 228 320 405 810 1065 1312 1473 1297 1210 894 285 0 2 92 61 8 0 0 0 0 0 13 35 11 0 0 0 31 30 77 46 30
0 0 0 0 0 0 0 0 0 3 15 33 56 51 23 1 56 122 240 311 664 990 1350 1466 1485 1350 1105 362 12 53 305 277 101 27 10 0 0 0 0 0 0 0 0 0 0 22 58 92 56

GFSSGP_con_mlcape_003.txt.gz
CAPE
1063 431 817 1136 360 61 33 19 34 16 42 128 131 30 91 73 2 0 1 89 136 234 298 579 669 970 1404 1373 1356 1298 1311 1092 1469 1437 1289 1418 1295 1279 1165 1313 1449 1274 1261 1519 1736 1767 1820 1828 1758
413 699 1010 960 20 0 38 22 0 5 158 243 265 189 163 87 72 116 101 293 379 534 620 789 1024 1490 1093 1308 1425 1494 1532 1597 1551 1669 1550 1423 1266 1549 1706 1625 1323 1319 1440 1582 1648 1622 1487 1507 1678
303 670 903 591 28 3 10 0 0 77 411 436 188 169 201 94 148 150 154 504 712 839 1030 1425 1403 1017 1251 1374 1635 1625 1672 1630 1492 1216 1365 1500 1448 1495 1418 1283 1204 1316 1454 1529 1494 1431 1467 1492 1558
385 442 410 223 6 40 142 66 54 180 234 474 304 141 377 377 241 235 303 595 515 954 1355 1502 1455 1720 1738 1718 1873 1504 1357 1142 998 1251 1539 1484 1462 1634 1500 1345 1480 1560 1448 1324 1298 1289 1320 1420 1589
290 129 0 0 0 108 202 113 113 211 530 443 349 287 452 471 372 306 440 472 496 1079 1347 1440 1771 1912 2116 2108 1705 1536 1537 1780 1838 1976 1733 1423 1324 1653 1649 1729 1768 1552 1393 1352 1446 1523 1615 1684 1639
11 0 0 0 11 209 222 131 229 562 628 462 339 370 474 561 420 566 610 379 772 1129 1488 1972 2079 2091 2035 1894 1880 1806 1655 1538 1571 1333 1383 1452 1679 1799 1826 1691 1485 1325 1341 1519 1488 1633 1742 1683 1953
6 0 0 0 0 232 251 413 702 427 468 316 372 238 670 691 664 772 590 492 832 1412 1493 1637 1959 2111 2090 2072 1867 1561 1279 1189 1035 1409 1488 1579 1836 1789 1545 1414 1444 1428 1520 1611 1647 1872 1855 1900 2105
0 0 0 0 5 81 208 419 703 391 364 680 338 98 361 800 963 873 807 638 1114 1212 1556 1547 1988 2084 2153 2265 1873 1545 1285 1099 1128 1388 1466 1558 1600 1501 1464 1302 1517 1727 1958 1932 1775 1622 1529 1577 1746
23 6 2 0 0 49 219 405 771 892 530 280 552 229 444 954 1055 985 835 737 901 1240 1536 1544 1625 1904 1877 1878 2045 1992 1642 1345 1218 1558 1707 1899 1307 1509 1229 865 901 953 1545 1677 1159 1217 1006 929 1243
4 6 8 0 2 63 148 294 578 395 309 573 568 492 748 988 1089 943 713 752 764 1064 1450 1463 1620 1658 1842 1856 1796 1605 1531 1689 1268 1264 1650 1319 923 911 418 681 534 537 1006 1250 1159 973 1079 989 816
0 0 0 12 10 15 38 203 326 253 350 415 222 532 770 898 1057 991 978 881 488 586 1082 1403 1554 1679 1598 1775 1598 1616 1404 1131 968 1008 1157 1035 749 828 861 509 371 496 962 1137 970 1160 985 870 841
0 0 0 11 14 0 58 186 312 299 278 392 676 862 926 1018 1190 1098 1147 1097 902 760 924 1121 1399 1790 1639 1618 1467 1431 1354 1169 1030 754 1061 1070 987 768 609 561 768 921 936 771 671 740 642 774 699
0 0 0 13 0 26 91 119 201 276 401 631 1024 1128 1116 1242 1301 1227 1201 1083 1196 1189 1293 1491 1765 1714 1482 1390 1279 1218 965 1074 1079 1145 1128 1269 1025 815 516 792 675 617 707 716 699 698 625 447 431
0 15 2 13 9 0 77 231 247 393 445 516 1053 1138 1210 1341 1347 1378 1378 1215 1267 1296 1317 1599 1773 1677 1621 1652 1454 1179 1340 1301 1256 1259 1433 1371 1237 952 885 712 626 580 506 570 663 581 410 185 183
10 0 11 14 40 28 86 157 311 322 408 522 917 1012 1121 1154 1304 1242 1158 1133 1205 1205 1297 1527 1741 1474 1687 1783 1521 1219 1454 1376 1336 1435 1370 1388 1361 1220 1020 882 582 541 387 387 356 280 95 160 121
3 0 18 39 36 50 94 2 395 308 275 363 469 597 764 926 995 856 865 987 1090 1121 1334 1548 1972 1911 1702 1907 1696 1443 1504 1305 1206 1216 1143 1140 1098 992 888 628 592 540 439 421 383 240 194 123 53
0 0 0 31 62 56 92 77 403 309 185 197 292 374 499 546 650 648 559 643 809 962 1306 1670 1956 1943 1818 1984 1932 1462 1317 1245 1167 1082 964 1005 911 840 801 508 502 442 487 436 322 231 229 114 35
0 0 0 0 59 6 25 40 263 320 203 127 113 152 241 337 332 474 493 515 599 732 1226 1690 1808 1943 1753 1731 1546 1402 1487 1472 1260 1216 994 850 769 771 718 790 588 586 540 395 341 323 231 182 144
0 0 0 0 0 0 19 28 105 257 163 104 157 166 140 177 251 213 392 483 405 394 740 1200 1404 1658 1675 1622 1588 1571 1461 1384 1268 1225 1196 995 838 853 743 627 371 416 422 361 350 270 287 280 280
0 0 0 0 0 14 33 27 54 93 79 49 62 130 174 189 196 194 216 323 316 347 596 820 1096 1286 1622 1668 1533 1474 1532 1467 1300 998 1006 1246 938 769 632 392 331 534 344 151 137 138 137 230 362
0 0 0 0 0 25 38 28 103 78 84 81 102 136 119 149 170 176 195 200 247 314 441 560 818 932 1301 1703 1523 1460 1391 1409 1260 1394 1585 1137 1046 925 537 189 214 52 22 43 33 158 204 206 294
0 0 0 0 0 0 34 0 69 135 157 206 237 256 261 214 182 184 204 256 282 283 398 586 751 964 1284 1516 1504 1346 910 581 321 460 946 931 606 178 2 0 0 20 34 15 16 284 248 139 52
0 0 0 0 0 0 17 1 23 93 137 196 267 312 392 387 258 253 235 303 307 331 525 694 931 1257 1510 1605 1632 1383 1006 425 78 111 701 582 0 0 0 0 6 29 0 0 7 0 33 43 49
0 0 0 0 0 0 0 0 0 28 82 104 145 207 422 420 519 415 290 325 434 546 771 950 1091 1498 1656 1730 1905 1507 1123 260 0 89 258 0 0 0 0 0 14 0 0 0 0 0 0 0 44
0 0 0 0 0 0 0 0 0 4 40 54 65 91 267 416 595 644 599 514 597 673 996 1132 1229 1492 1490 1750 1803 1431 1201 80 0 0 0 0 0 0 0 0 0 0 0 0 0 0 0 0 0
0 0 0 0 0 0 0 0 0 0 17 38 51 46 144 293 375 677 772 724 700 723 1067 1302 1445 1474 1321 1445 1361 1240 263 0 0 0 0 0 0 0 0 0 0 0 0 0 0 0 0 0 0
0 0 0 0 0 0 0 0 0 0 0 6 17 13 74 183 212 595 805 763 819 848 1083 1298 1529 1637 1185 950 885 302 0 0 0 0 0 0 0 0 0 0 0 0 0 0 0 0 0 0 0
0 0 0 0 0 0 0 0 0 0 0 0 0 9 13 102 162 423 764 670 903 958 1071 1327 1538 1617 1205 658 492 65 0 0 0 1 5 0 0 0 0 0 0 0 0 0 0 0 0 0 0
0 0 0 0 0 0 0 0 0 0 0 0 0 2 7 45 110 257 507 535 707 989 1260 1263 1486 1548 1219 711 397 52 0 0 0 6 7 3 0 0 0 0 0 0 0 0 0 0 0 0 28
0 0 0 0 0 0 0 0 0 0 0 0 6 11 4 26 85 182 333 445 481 700 1030 1117 1371 1299 1103 804 523 173 0 0 0 0 0 0 0 0 0 0 0 0 0 0 0 0 0 0 0

GFSSGP_con_mlcape_006.txt.gz
CAPE
946 628 749 946 146 10 0 4 11 60 36 108 48 24 45 41 3 0 0 62 114 199 293 416 1029 723 613 761 617 601 676 1376 1362 1429 1154 857 856 869 861 1232 1543 1391 1365 1557 1645 1612 1783 1899 1668
473 714 930 820 23 0 0 6 0 14 141 147 130 108 116 41 74 39 55 156 223 299 425 481 810 940 822 969 979 784 1007 1240 1030 1142 1237 1109 1197 1198 1420 1660 1469 1367 1482 1560 1601 1648 1590 1621 1626
740 545 919 583 19 0 0 0 0 182 302 215 108 164 93 46 121 80 125 283 433 411 524 789 966 1349 1422 1526 1499 1543 1299 1245 1403 1598 1581 1665 1783 1873 1608 1442 1357 1442 1440 1338 1404 1480 1548 1571 1626
463 496 323 33 3 29 35 0 118 372 422 323 90 38 208 215 124 140 301 493 489 543 798 1193 1384 1457 1590 1633 1685 1724 1808 1663 1625 1882 1707 1658 1806 1608 1526 1353 1471 1468 1277 1287 1306 1312 1435 1578 1652
230 74 4 0 22 83 71 48 170 234 483 309 155 94 103 282 235 189 430 585 617 848 1282 1370 1504 1589 1616 1736 1761 1928 1872 1611 1506 1578 1686 1729 1733 1727 1597 1555 1557 1413 1413 1409 1469 1565 1565 1625 1659
9 3 0 0 41 168 116 72 190 493 395 348 188 190 283 408 66 238 476 439 933 1000 1350 1591 1712 1848 1886 1981 1647 1510 1492 1484 1326 1261 1360 1326 1566 1570 1505 1400 1378 1346 1345 1511 1492 1611 1697 1892 1926
23 0 1 0 85 198 145 125 323 487 320 279 268 173 421 372 274 365 420 622 1127 1266 1457 1675 1847 2014 1982 1755 1558 1483 1495 1433 1277 977 1315 1375 1332 1707 1610 1489 1471 1463 1462 1612 1754 1687 1811 1905 1933
1 0 0 0 38 146 211 292 635 440 386 479 318 107 206 444 540 417 420 636 1075 1249 1422 1559 1863 1830 1765 1182 1413 1599 1486 1216 1118 1328 1390 1403 1430 1555 1613 1202 1266 1706 1861 2071 1965 984 1184 1173 957
7 8 2 1 17 78 220 444 587 730 503 378 404 216 404 677 715 583 403 499 649 1041 1302 1554 1648 1634 1446 1513 1504 1329 1468 1421 1482 1530 1443 1132 955 1241 1446 1114 1135 1209 1362 1482 1706 1083 1084 1308 917
9 9 11 2 0 31 174 416 502 507 274 322 474 412 664 846 781 546 370 383 508 659 1047 1245 1539 1615 1668 1689 1543 1437 1301 1237 1175 1170 948 960 962 1062 566 666 790 755 665 1131 1317 1029 1055 933 917
0 0 0 0 0 29 105 327 433 212 112 200 289 300 754 884 842 727 553 331 439 710 1182 1223 1284 1629 1515 1500 1396 1348 1235 994 882 974 1063 1063 782 742 927 473 357 239 867 1007 879 811 814 772 742
0 0 0 0 0 22 37 197 319 100 30 314 410 412 816 800 866 832 571 500 568 840 1077 1380 1476 1474 1401 1273 1119 1010 980 1082 882 861 981 962 803 729 581 495 621 824 826 784 606 682 727 695 519
0 0 0 0 0 0 20 100 212 36 324 524 448 528 654 777 822 853 615 754 705 567 711 1002 1354 1500 1461 1261 1362 1201 1087 1158 1207 882 790 887 849 627 577 555 713 649 631 674 707 735 681 465 274
0 0 0 1 0 0 8 143 203 185 485 455 328 406 593 643 800 911 1008 1017 790 620 444 712 900 1184 1499 1321 1235 1142 985 1041 996 839 933 958 914 866 666 662 656 590 559 489 661 656 441 134 147
0 0 0 0 0 14 90 112 122 289 443 474 517 569 680 834 1084 967 1004 1000 910 887 822 937 1171 1484 1327 1297 1112 898 1068 995 1163 1125 1079 1172 1103 938 859 731 633 553 394 376 316 343 179 195 142
0 0 9 5 8 29 41 11 247 374 343 442 678 760 760 951 1067 1092 1065 1024 961 1025 1022 1087 1400 1506 1270 1336 1293 1173 1196 1234 1226 1243 1179 1224 1230 1194 1052 675 428 423 386 365 380 270 218 164 81
0 0 5 5 0 29 37 32 283 339 320 395 626 752 770 849 1003 1056 1028 1014 938 981 957 1010 1410 1530 1413 1214 1313 1400 1407 1273 1113 998 944 971 1003 903 815 586 474 445 431 443 306 217 187 62 62
0 0 1 14 20 22 26 66 235 255 248 256 341 448 648 632 743 822 695 820 856 876 1012 1072 1267 1532 1614 1335 1335 1344 1243 1122 1085 1043 895 804 839 757 644 591 548 509 433 297 184 181 143 123 138
0 7 13 8 17 19 27 59 124 202 188 184 162 152 247 338 450 503 483 563 562 612 876 1072 1280 1545 1585 1469 1386 1466 1281 1237 1219 1127 975 913 695 753 716 620 461 293 260 182 199 144 126 90 103
0 0 0 0 0 40 39 54 111 218 139 135 99 90 104 166 225 237 314 444 335 364 720 905 1247 1501 1571 1510 1381 1416 1358 1345 1337 1165 1076 904 834 783 658 366 217 253 228 89 16 45 62 94 199
0 0 0 0 0 4 26 12 51 169 200 150 99 63 48 56 82 118 141 237 362 275 518 642 876 1271 1436 1406 1342 1354 1252 1264 1085 1138 996 1053 919 739 590 359 98 75 7 2 2 1 48 126 135
0 0 0 0 0 0 26 0 18 67 86 119 99 75 61 66 85 93 109 140 239 254 338 412 600 898 1142 1246 1430 1473 1376 1046 727 672 1066 1151 901 737 344 0 0 0 0 15 1 53 106 88 11
0 0 0 0 0 0 10 0 0 37 38 68 95 88 81 69 92 115 115 115 115 188 268 308 441 553 868 1089 1223 1444 1332 1053 308 158 368 812 430 234 0 0 0 0 10 0 0 0 3 12 4
0 0 0 0 0 0 0 0 0 0 32 62 123 131 128 102 100 96 83 72 126 143 219 286 368 451 781 912 1138 1344 1275 815 378 73 42 455 275 0 0 0 0 0 0 0 0 0 0 0 0
0 0 0 0 0 0 0 0 0 0 23 46 87 127 166 164 166 151 115 124 191 245 300 356 385 511 776 1036 1291 1398 1292 799 441 14 0 152 0 0 0 0 0 0 0 0 0 0 0 0 0
0 0 0 0 0 0 0 0 0 0 1 36 50 96 117 178 275 324 250 227 277 336 378 439 510 596 759 1175 1340 1435 1418 888 562 29 19 39 0 0 0 0 0 0 0 0 0 0 0 0 0
0 0 0 0 0 0 0 0 0 0 0 0 10 64 89 125 244 409 380 333 389 432 515 538 641 792 802 1058 1238 1136 1291 951 552 0 0 0 0 0 0 0 0 0 0 0 0 0 0 0 0
0 0 0 0 0 0 0 0 0 0 0 0 0 3 45 76 206 344 502 518 567 576 638 724 755 847 864 999 949 907 1014 861 34 0 0 0 0 0 0 0 0 0 0 0 0 0 0 0 0
0 0 0 0 0 0 0 0 0 0 0 0 0 0 0 24 100 233 555 685 735 685 686 856 863 1084 1093 951 823 636 726 312 0 0 0 0 0 0 0 0 0 0 0 0 0 0 0 0 0
0 0 0 0 0 0 0 0 0 0 0 0 0 0 0 1 72 137 474 683 785 756 760 941 1030 1133 1265 1094 779 494 423 87 0 0 0 0 0 0 0 0 0 0 0 0 0 0 0 0 0

GFSSGP_con_mlcape_009.txt.gz
CAPE
1445 1390 804 987 107 20 37 62 49 75 74 166 35 21 50 46 5 21 16 138 175 244 300 443 671 582 656 431 427 676 795 700 866 1019 794 824 899 1091 1310 1576 1712 1657 1700 1749 1676 1680 1735 1640 1593
540 844 910 709 13 0 14 34 118 78 156 123 161 134 95 31 71 56 112 233 303 397 313 303 513 552 542 744 693 739 1283 1233 1468 1325 968 1131 1218 1332 1614 1570 1381 1446 1746 1678 1629 1565 1483 1457 1448
786 562 943 155 0 0 0 30 144 248 253 146 163 165 79 63 84 104 179 358 499 624 487 608 549 819 815 774 804 1116 1482 1480 1396 1188 1119 1368 1626 1754 1686 1416 1389 1551 1486 1518 1504 1431 1350 1393 1420
568 503 291 0 0 0 0 55 293 397 397 308 115 62 160 163 119 181 343 500 598 714 648 1026 1285 1416 1136 1196 1313 1472 1523 1344 1530 1568 1769 1828 1810 1515 1343 1272 1465 1409 1404 1433 1394 1386 1502 1631 1565
229 62 0 0 12 146 0 159 471 427 489 293 195 58 122 437 289 279 483 558 595 763 1021 1227 1382 1499 1489 1473 1694 1641 1565 1641 1754 1746 1717 1785 1706 1636 1561 1691 1607 1478 1463 1453 1494 1527 1608 1633 1722
58 4 0 0 47 177 106 205 411 664 557 281 139 70 242 575 212 333 471 551 572 784 1017 1175 1385 1606 1768 1781 1845 1898 1738 1618 1332 1310 1571 1703 1734 1760 1618 1547 1339 1364 1441 1529 1659 1747 1881 1852 1839
52 15 28 33 121 148 116 214 468 496 450 312 178 136 386 387 208 406 484 748 833 915 1055 1473 1608 1763 1956 1972 1879 1818 1529 1147 901 1315 1257 1236 1629 1574 1550 1443 1376 1474 1591 1786 1985 1499 1444 1521 1507
24 1 5 27 65 81 189 319 596 393 420 425 318 92 131 382 293 466 537 818 1039 1066 1248 1510 1631 1769 1761 1527 1709 1619 1474 1334 1426 1262 1289 1248 1597 1821 1610 1312 1252 1538 1692 1726 1812 1314 1211 1280 1288
2 17 10 3 38 89 293 277 698 598 474 428 414 386 257 513 382 381 566 837 1109 1256 1574 1635 1536 1836 1888 1609 1598 1524 1506 1476 1330 1435 1061 1024 1465 1509 1470 1247 1059 948 1242 1269 1449 1257 1140 1018 993
1 11 8 0 24 52 233 366 639 670 535 426 476 610 594 682 401 321 414 608 819 948 1305 1643 1759 1644 1617 1137 1551 1699 1266 1131 1245 1506 1374 1412 1482 1656 1266 702 834 836 888 1239 997 1077 1115 1151 1215
4 6 4 0 0 120 255 359 667 354 190 377 383 557 685 718 470 411 361 430 549 856 1061 1480 1697 1897 1790 1908 1783 2052 1625 1589 1325 1500 1478 1691 1277 1212 1372 1195 902 612 1072 1368 1239 1289 1245 1392 1284
0 0 0 0 0 92 202 469 408 312 106 297 591 674 755 680 590 458 426 477 563 791 1041 1230 1603 1878 1929 1827 1395 1744 1252 1395 1146 1313 1475 1145 871 1147 1205 1071 1167 1546 1339 1406 1306 1267 1388 1243 1011
0 0 0 0 0 64 246 212 266 226 143 540 670 776 708 684 663 624 610 534 672 732 1160 1427 1536 1738 1887 1592 1339 1272 1471 1067 1132 1363 1230 1145 862 1160 1215 1080 1257 1357 1231 1258 1310 1330 1272 1083 697
0 0 0 0 0 35 78 229 147 199 396 562 672 657 718 746 789 926 940 784 755 725 968 1427 1683 1902 1936 1688 1645 1644 1623 1603 1398 1505 1263 1106 1064 909 841 1040 1063 1237 1179 1080 1163 1181 937 696 746
0 0 1 0 0 6 186 93 72 270 526 436 493 631 710 797 921 983 870 795 929 861 758 881 1213 1607 1818 1822 1585 1459 1664 1532 1210 1283 1491 1213 1382 1284 858 1054 855 1296 1105 987 952 985 774 613 406
0 0 1 0 0 59 38 6 208 431 436 360 347 474 555 664 773 926 1013 942 1165 1054 883 837 797 1072 1504 1654 1637 1514 1641 1645 1534 1230 1187 1120 1099 966 997 832 673 872 1059 930 969 910 741 583 352
0 0 8 7 6 13 16 30 186 418 487 476 400 349 453 606 804 1039 1133 1210 1229 1263 1188 1189 1445 1569 1904 1865 1628 1513 1559 1675 1520 1820 1748 1277 1336 1246 1132 933 719 1024 1050 939 950 735 617 243 148
0 0 4 23 7 42 28 67 209 413 494 493 605 581 596 694 945 1186 1260 1230 1291 1334 1412 1456 1519 1814 1987 1247 1300 1247 1384 1266 1521 1706 1553 1376 1075 1047 1151 967 984 1108 1156 916 643 625 548 316 330
0 4 36 38 19 23 50 41 155 319 397 437 656 747 694 589 739 968 1145 1138 1258 1328 1303 1368 1464 1551 1557 1718 1513 1341 1459 1753 1756 1412 1221 1137 1070 1108 1109 770 923 1008 775 745 768 519 319 180 416
0 1 38 12 21 35 32 30 52 240 248 319 419 544 584 644 772 894 1004 931 970 1161 1165 1298 1445 1632 1762 1929 2090 1959 1920 1979 1808 1865 1778 1538 1453 1381 1327 1204 887 712 560 585 313 369 169 220 485
0 0 8 6 4 17 34 9 29 111 278 261 260 303 322 362 471 574 694 804 818 910 1034 1130 1345 1538 1834 2108 2152 1939 1863 1767 1751 1813 1791 1634 1531 1426 1372 1012 722 544 171 7 266 225 329 196 334
0 0 7 30 12 0 26 0 16 73 106 207 246 232 221 202 278 326 429 596 741 759 802 859 1185 1419 1786 2082 1916 1809 1617 1667 1771 1666 1561 1630 1610 1377 1207 924 136 160 37 174 196 117 340 292 64
0 0 0 2 21 0 1 0 0 21 43 99 112 270 205 169 175 206 318 369 485 640 632 724 943 1226 1582 1848 1937 1845 1830 1855 1817 1205 1090 1774 1516 1378 971 315 7 16 86 246 44 216 104 183 70
0 0 0 0 0 0 0 0 0 0 1 47 132 128 156 174 175 220 260 237 280 423 471 622 772 908 1083 1407 1771 1766 1748 1832 1468 850 467 858 1153 803 434 0 0 116 222 171 16 78 46 83 160
0 0 0 0 0 0 0 0 0 0 3 12 65 81 82 121 133 156 257 269 302 360 464 573 680 787 929 1199 1432 1616 1637 1870 1494 905 528 450 497 590 73 0 0 81 198 37 12 15 59 13 40
0 0 0 0 0 0 0 0 0 0 10 17 64 88 62 78 113 165 234 321 349 420 485 556 649 727 905 1001 1154 1467 1601 1827 1581 982 625 272 435 347 0 0 0 86 5 0 0 18 32 33 0
0 0 0 0 0 0 0 0 0 0 0 0 12 48 67 123 138 171 305 367 438 479 563 633 716 777 868 1038 1253 1445 1652 1738 1450 995 733 259 310 114 24 0 16 6 0 0 3 0 0 10 48
0 0 0 0 0 0 0 0 0 0 0 0 0 12 66 129 246 354 463 462 540 628 708 804 828 887 906 1118 1332 1420 1721 1643 1637 1168 698 25 162 19 17 1 4 0 0 0 0 0 0 0 0
0 0 0 0 0 0 0 0 0 0 0 0 0 0 46 131 165 372 675 599 600 743 821 925 933 1023 1056 1102 1312 1436 1642 1443 1416 1214 683 2 59 39 7 0 0 0 0 0 0 0 0 0 0
0 0 0 0 0 0 0 0 0 0 0 0 0 0 0 82 112 487 740 755 753 826 892 975 1090 1113 1188 1160 1324 1352 1269 1037 713 732 318 4 0 12 1 0 0 0 0 0 0 0 0 0 1

GFSSGP_con_mlcape_012.txt.gz
CAPE
1188 1414 1728 1852 659 86 44 100 63 111 133 164 4 11 87 106 110 138 191 332 291 344 333 443 497 437 488 611 716 692 704 681 919 884 952 981 1318 1488 1827 1915 1723 1650 1701 1686 1612 1456 1448 1491 1471
1606 1468 1281 879 60 48 83 93 138 171 124 98 126 70 127 100 137 202 340 336 278 235 286 445 592 655 504 673 948 912 759 927 930 796 907 1038 1199 1394 1723 1589 1560 1659 1618 1615 1543 1445 1389 1434 1462
948 831 884 8 1 48 68 170 202 200 118 157 234 209 116 152 170 263 362 522 432 394 312 415 682 769 740 845 927 1338 1235 1293 1363 953 1055 1139 1382 1850 1677 1516 1581 1561 1532 1437 1301 1227 1319 1522 1556
560 763 625 12 0 0 37 203 375 330 264 195 142 160 178 183 273 396 544 730 678 650 629 341 520 746 867 1006 1118 1373 1545 1482 1423 1144 1280 1679 1848 1645 1416 1486 1504 1377 1290 1267 1353 1462 1501 1514 1621
697 279 13 2 0 0 6 248 442 410 294 201 147 99 223 472 346 575 789 880 859 793 872 570 919 1059 1134 1214 1369 1535 1383 1502 1417 1486 1679 1896 1705 1615 1533 1649 1557 1388 1366 1425 1483 1646 1675 1732 1778
386 74 58 15 0 1 46 231 444 486 517 321 128 237 450 324 510 678 857 937 955 938 1041 1210 1529 1486 1427 1580 1773 1563 1625 1745 1804 1769 1749 1752 1754 1745 1639 1480 1409 1461 1455 1530 1881 1733 1686 1614 1673
162 70 56 77 1 0 6 132 283 488 539 338 107 306 522 338 569 720 761 789 850 1003 1120 1272 1427 1758 1848 1876 2117 1677 1831 1718 1525 1632 1654 1488 1759 1594 1572 1459 1169 1580 1629 1918 1758 1371 1368 1339 1183
143 62 28 52 65 6 0 124 274 283 508 327 150 299 406 267 428 554 706 847 955 1004 1263 1202 1334 1371 1336 1528 1947 2022 1750 1414 1499 1588 1520 1641 1496 1179 1135 756 1459 1274 1524 1557 1669 1339 1349 1221 1157
149 100 76 56 90 131 60 82 276 322 515 431 361 230 264 247 379 497 761 891 959 1039 1183 1362 1336 1552 1439 875 1111 1525 1685 1807 1538 1186 1326 845 1035 1447 1285 1147 745 1098 1180 1180 1389 1171 1182 917 1004
22 111 91 26 36 166 118 124 310 429 456 414 536 452 343 275 472 566 750 904 1096 1318 1250 1141 1388 1491 1190 977 1272 1312 1049 803 752 827 1056 837 1193 1448 1244 963 749 829 979 1061 958 867 1025 1208 1160
0 43 52 17 0 141 176 214 331 140 288 287 509 629 486 408 499 611 736 881 930 1011 1135 1092 1105 1366 1208 1023 1290 1219 1064 1001 1085 1371 1051 1066 1283 1415 1585 1391 1228 952 813 1516 1313 1385 1280 1352 1203
0 0 0 0 0 130 209 226 255 123 103 179 381 645 548 534 421 455 591 686 798 930 971 1126 1146 1224 1248 1401 1251 1259 1058 998 815 821 1300 1395 1071 1425 1504 1311 1278 1499 1244 1363 1337 1275 1418 1357 1274
0 0 0 0 0 46 231 280 283 180 192 358 537 680 536 518 418 437 419 471 612 924 1006 1075 1281 1505 1529 1594 1089 1055 967 861 764 887 1033 982 1133 1290 1123 1327 1319 1258 1369 1290 1277 1331 1333 1325 1010
0 0 0 0 0 106 228 388 353 186 207 541 659 691 589 557 533 528 482 502 612 712 868 1190 1283 1513 1579 1483 1236 1114 1099 961 1050 865 881 1227 1117 1348 1266 1179 1092 1327 1387 1249 1283 1283 1225 1143 1047
0 0 0 0 112 209 245 448 330 288 405 796 725 684 579 567 580 638 651 674 659 712 766 1168 1437 1488 1687 1671 1669 1560 1290 1171 993 921 1338 1599 1457 1472 1174 1040 1076 1130 1284 1519 1419 1353 1179 1007 689
0 0 3 29 145 288 259 132 292 518 468 729 642 618 505 532 560 646 754 767 733 757 762 978 1118 1314 1570 1584 1655 1422 1175 1319 1427 1425 1591 1315 1485 1419 1316 1236 1142 1025 1156 1235 1110 1104 983 468 166
0 0 2 87 136 263 249 99 303 555 547 690 506 350 386 507 626 769 783 754 738 965 1028 980 941 876 1239 1635 1701 1586 1538 1646 1713 1437 1616 1375 1426 1357 1399 1244 1109 1291 1199 1042 1150 657 370 9 0
0 0 7 4 82 208 174 173 347 545 473 478 603 363 288 327 458 702 809 1030 981 1104 1317 1257 1112 1223 1563 1823 1871 1726 1518 1346 1295 1400 1571 1888 1525 1353 1292 1161 1121 1265 1149 1126 577 395 129 21 3
0 7 22 24 96 144 74 45 212 560 504 420 639 570 330 196 246 587 923 1018 1028 1274 1445 1622 1604 1658 2058 1240 1131 1300 1216 1146 1348 1294 1662 1754 1701 1473 1603 1241 1166 1265 1044 690 408 86 2 0 16
0 0 17 56 108 80 62 78 80 214 486 373 465 616 677 316 253 584 883 923 950 1221 1509 1703 1846 1949 2132 1506 1490 1387 1404 1187 1445 1521 1590 1796 1740 1726 1482 1399 1319 1238 460 498 65 5 0 2 68
0 0 4 68 99 106 62 57 36 33 255 389 420 354 623 505 389 418 571 787 882 1009 1457 1686 1930 2103 2329 1778 1766 2026 1978 1806 1639 1484 1550 1726 1951 1911 1841 1639 1023 931 173 0 32 44 7 7 72
0 0 0 48 48 40 50 30 19 29 112 268 432 389 199 497 551 525 539 631 827 946 1221 1637 1965 2217 2370 2506 2063 1974 1455 846 570 704 647 785 1334 1439 1346 1302 963 148 0 0 74 21 42 82 4
0 0 0 7 39 36 78 38 7 14 34 131 345 458 236 86 287 478 540 476 715 861 1074 1393 1898 2150 2265 2385 2368 2068 2019 913 833 817 898 689 1045 999 768 1119 284 37 0 121 152 69 87 21 4
0 0 0 3 13 26 40 31 0 0 14 17 124 298 369 83 87 143 276 354 584 741 949 1114 1610 2132 2313 2418 2540 2394 1755 1334 811 1034 705 340 481 774 778 1020 141 33 14 172 145 56 49 53 49
0 0 0 1 7 9 13 13 0 0 0 1 14 119 362 106 47 74 144 340 576 724 836 1040 1383 1926 2152 2281 2309 2497 2393 2136 1808 1608 764 138 219 213 563 1081 160 23 297 259 91 53 34 62 21
0 0 0 1 3 5 0 0 0 0 0 0 6 39 223 197 56 59 129 273 529 659 834 1008 1189 1776 2036 2036 2156 2420 2560 2323 1985 1861 460 247 85 98 227 744 112 86 207 270 1 2 7 25 21
0 0 0 7 11 6 0 0 0 0 0 0 5 37 126 264 87 70 106 260 446 621 896 1187 1511 1704 1866 1900 2076 2364 2533 2382 1624 1447 1565 696 246 119 368 303 137 64 275 32 1 0 31 18 29
0 0 0 0 2 3 0 0 0 0 0 0 7 54 108 229 250 67 159 253 466 651 817 1098 1363 1666 1757 1790 1944 2076 2217 2440 2202 2123 1737 779 505 346 324 310 26 101 73 12 34 0 7 10 0
0 0 0 0 0 0 2 0 0 0 0 0 0 39 81 186 382 306 165 326 572 633 718 1023 1328 1552 1744 1742 1838 1871 1929 2082 2399 2299 2082 1596 994 576 457 432 92 174 24 22 56 20 0 1 0
0 0 0 0 0 0 0 0 0 0 0 0 0 0 13 97 360 523 505 511 602 777 732 852 1053 1260 1541 1715 1981 1892 1949 1992 2089 2539 2178 1835 1049 380 571 428 216 160 66 21 66 6 0 0 0

GFSSGP_con_mlcape_015.txt.gz
CAPE
656 832 1178 1343 54 18 71 73 74 101 125 26 17 22 148 90 71 20 22 140 389 246 249 336 453 515 644 662 654 718 706 1087 1147 1149 1238 1424 1635 1922 1739 1627 1703 1711 1631 1472 1375 1351 1363 1378 1391
1269 1576 1878 1710 137 16 52 92 138 116 123 54 74 136 129 148 99 293 217 332 284 165 306 284 468 608 921 823 844 785 735 966 962 970 1065 1113 1488 1700 1496 1456 1577 1536 1532 1434 1277 1224 1341 1459 1477
1937 1599 1257 572 38 28 68 112 108 100 162 182 160 121 289 142 235 246 231 185 203 219 436 375 762 684 906 1100 983 878 1004 1011 967 987 1040 1194 1627 1663 1418 1466 1502 1448 1386 1271 1266 1376 1425 1530 1610
1327 959 648 12 12 66 176 109 94 108 129 127 171 193 268 364 433 362 409 307 244 237 434 440 883 780 1035 1226 1468 1260 1406 1462 977 936 1213 1722 1775 1453 1348 1543 1376 1265 1279 1355 1394 1470 1529 1622 1725
696 655 308 2 0 35 196 178 164 156 169 145 177 264 296 468 511 597 644 431 505 687 516 388 914 1012 1198 1332 1637 1717 1664 1483 1166 1243 1640 1792 1652 1521 1590 1470 1211 1177 1328 1506 1728 1626 1627 1570 1708
689 108 29 16 0 2 73 189 225 233 229 121 250 356 636 600 633 604 763 727 786 917 635 700 1024 1310 1403 1522 1698 1370 1391 1433 1547 1648 1769 1760 1794 1664 1551 1207 1254 1296 1383 1620 1776 1411 1336 1438 1444
407 148 9 24 0 0 5 77 144 141 203 149 265 515 531 709 764 893 859 851 837 837 915 1111 1192 1489 1723 1833 1592 1518 1773 1805 1710 1718 1788 1678 1706 1455 1088 1096 1105 1399 1639 1846 1736 1280 1277 1292 1068
385 13 60 91 12 0 0 26 31 86 280 138 329 483 510 790 726 740 896 747 829 1045 838 1027 1127 1179 1197 1405 1685 1681 1809 1502 1336 1610 1487 1279 1266 1057 700 786 1313 1242 1343 1421 1587 1138 1032 870 964
61 29 100 26 83 1 0 9 11 125 160 95 230 399 562 699 637 580 601 799 751 934 921 883 865 931 1380 1353 1828 1756 1679 1308 1322 1280 1340 789 1180 1416 1564 1328 655 858 1149 1004 1205 1013 799 980 1228
12 1 65 31 63 15 3 7 7 3 72 195 250 432 539 655 658 641 643 694 762 950 966 1005 1128 957 879 639 1134 847 669 625 674 715 1206 784 1129 1431 1180 1135 753 723 737 828 893 752 939 1466 1636
2 15 8 34 17 102 0 32 10 30 0 144 275 369 429 585 706 694 702 694 686 810 1074 1047 1112 1367 810 1042 847 1023 1011 934 832 1132 1131 882 1210 1227 1422 1310 1500 1490 1040 1378 1389 1319 1600 1390 953
0 2 0 29 10 50 49 69 20 7 51 41 238 330 387 561 662 686 684 738 850 918 805 780 1142 1098 875 980 898 858 738 686 759 987 1286 1395 1309 1150 1390 1549 1265 1383 1278 1252 1232 1362 1305 1046 1076
0 1 0 0 0 19 89 77 40 6 4 35 283 310 352 494 617 613 575 591 723 753 822 757 958 1270 1161 1430 829 922 716 664 712 839 1219 1185 976 1157 1319 1172 1339 1480 1145 1147 1115 1086 1328 1022 1003
0 0 0 0 0 4 76 68 59 6 0 105 385 352 359 423 466 510 524 546 655 727 781 897 1144 1362 1467 1336 1605 1097 1096 927 739 917 893 1308 1201 1326 1688 1402 1106 1126 1322 1311 1243 1348 1428 1361 1091
0 0 0 0 0 2 21 8 3 0 94 196 364 370 242 316 303 446 447 492 574 763 861 962 1097 1361 1531 1574 1563 1295 1059 845 974 789 1084 1443 1682 1436 1764 1160 1264 1108 1293 1803 1507 1229 1440 1289 978
0 0 36 2 0 7 24 32 0 79 77 171 230 362 241 260 278 381 398 448 512 653 797 984 992 1102 1442 1537 1645 1416 1034 1168 1061 978 1251 1542 1659 1899 1759 1288 1108 1176 1248 1273 1291 1169 1029 470 36
0 0 3 0 0 34 7 0 26 135 50 28 141 166 264 269 325 396 418 475 500 662 805 998 1093 1057 1285 1628 1631 1498 1457 1395 1462 1537 1043 1673 1667 1711 1608 1255 1318 1596 1351 1386 1399 1140 477 6 0
0 2 43 75 0 81 19 191 144 256 134 19 33 26 96 154 314 423 501 557 602 700 922 1085 1110 1164 1345 1772 1774 1594 1444 1601 1424 1135 1492 1902 1729 1698 1779 1268 1492 1527 1252 1304 875 493 104 4 1
3 38 0 36 8 39 64 97 120 334 302 122 84 27 15 35 197 301 559 579 619 748 1025 1253 1375 1582 1459 1369 1657 1449 1350 1356 1058 897 1512 2104 1894 1822 1632 1641 1260 1576 1154 993 400 167 0 0 35
0 12 29 13 25 4 90 116 167 338 307 326 247 125 57 25 38 191 477 532 746 822 1070 1509 1682 1924 1969 1740 1648 1591 1105 911 913 730 1169 1572 1710 1990 1540 1580 1191 1358 830 812 253 4 0 2 106
0 0 18 43 87 40 80 43 110 120 302 332 244 315 177 49 8 76 301 554 697 822 1121 1704 2079 2296 2271 2074 1761 1775 1916 1696 1386 920 1478 1465 1560 1550 1693 1726 1652 1397 634 10 91 32 5 3 15
0 0 1 34 31 56 3 85 65 48 77 205 411 317 366 108 45 27 310 586 621 784 1162 1594 2173 2364 2390 2347 1796 1694 1341 758 399 441 423 954 1043 970 1488 1362 823 801 52 22 27 16 46 2 8
0 0 2 12 78 82 39 51 14 7 40 50 203 429 400 200 123 56 169 403 573 710 992 1538 2257 2512 2580 2649 1823 1603 1479 554 627 434 993 895 1044 765 697 624 846 417 0 20 227 36 76 110 0
0 0 6 9 29 39 92 68 82 9 42 95 89 197 474 441 127 285 199 318 421 587 882 1308 2281 2773 2828 2851 2554 2340 2135 978 728 778 912 415 426 718 598 653 657 54 2 188 95 73 62 51 85
0 0 0 5 16 12 52 74 64 62 44 31 35 62 197 512 298 116 393 304 526 637 937 1309 2092 2887 2963 2598 2545 2460 2383 2165 1594 1573 808 369 298 479 824 786 731 54 181 278 190 178 92 39 21
0 0 0 0 10 11 10 31 28 41 27 41 26 18 51 286 443 113 134 337 542 610 1119 1320 1833 2676 2972 2687 2760 2822 2805 1951 1525 1474 974 396 309 380 1090 1056 714 137 273 304 289 54 2 23 1
0 0 0 1 25 30 24 16 12 21 64 48 18 6 10 131 376 189 114 130 314 527 1036 1327 1759 2394 2759 2260 3039 3042 3016 2688 1489 1387 1647 1121 433 243 362 1105 537 200 139 342 187 19 100 68 58
0 0 0 0 7 27 22 25 15 16 10 2 8 0 1 43 335 260 122 116 283 482 815 1298 1661 2290 2309 2298 2706 2765 2894 3165 2713 2435 2221 1357 810 406 602 714 425 201 185 332 121 28 61 81 31
0 0 0 0 1 11 32 36 24 23 6 0 0 0 3 17 227 369 153 152 263 334 494 932 1293 1776 2136 2207 2301 2339 2489 2673 3036 2776 2438 2252 1291 1043 544 870 432 120 301 153 170 136 102 155 95
0 0 0 0 0 0 15 30 18 0 1 1 9 6 20 7 84 309 296 253 277 353 322 544 820 998 1737 1857 2324 2425 2487 2525 2477 2893 2813 2685 1899 1351 944 838 520 228 231 102 121 193 89 4 4

GFSSGP_con_mlcape_018.txt.gz
CAPE
278 489 679 25 8 10 30 139 90 114 17 54 34 7 9 93 9 2 13 153 240 195 311 239 312 423 488 557 1011 1043 1351 1385 1183 1556 1619 1750 1843 1697 1662 1677 1685 1615 1513 1401 1335 1346 1409 1385 1340
499 714 445 0 0 5 52 139 66 59 62 129 103 130 101 43 15 25 112 289 252 165 199 286 394 494 611 708 948 1033 1146 1185 1213 1248 1255 1698 1657 1416 1442 1466 1475 1450 1349 1213 1217 1344 1421 1515 1442
767 773 532 610 116 11 153 135 201 199 179 134 140 137 140 77 175 217 236 369 94 160 309 616 769 983 880 858 998 1039 1152 1128 1174 1155 1264 1669 1535 1310 1399 1432 1352 1262 1220 1284 1342 1408 1417 1453 1589
1512 1158 1641 842 101 116 47 37 178 66 205 110 177 229 272 218 230 208 326 135 341 524 354 766 930 1187 1230 1107 1163 1288 1275 1090 1043 1122 1536 1601 1375 1275 1483 1316 1145 1173 1248 1400 1567 1480 1466 1504 1509
1625 390 445 204 36 224 65 110 128 46 112 222 189 393 440 236 243 238 200 244 359 429 413 741 1044 1273 1391 1538 1439 1610 1567 1165 1079 1346 1572 1486 1417 1368 1485 1125 1063 1151 1329 1553 1546 1276 1369 1292 1356
146 563 390 1 0 65 74 291 80 59 135 187 168 344 462 647 453 445 375 314 404 373 290 626 1085 1369 1417 1685 1757 1698 1537 1324 1222 1375 1586 1515 1508 1395 1305 1045 1117 1187 1396 1677 1574 1149 1254 1191 943
9 159 114 28 0 2 12 147 176 39 61 181 480 307 494 712 821 644 606 710 535 557 816 895 1099 1411 1541 1755 1485 1485 1537 1501 1414 1462 1378 1343 1422 1209 988 1064 1075 1150 1488 1423 1465 982 901 958 739
2 36 208 13 0 0 0 25 11 31 174 127 283 201 435 684 866 811 761 772 798 824 873 1066 1203 1201 1339 1474 1402 1534 1442 1403 1207 1168 1130 1060 1242 1224 929 915 1153 946 917 1029 997 685 716 718 948
103 2 12 6 0 0 0 0 55 120 60 116 381 284 486 464 1043 742 870 828 952 875 808 1023 1107 1406 1413 1256 1128 1623 1522 1143 953 1018 851 900 962 1283 1470 1520 1109 639 829 729 773 614 805 1034 1252
0 2 0 8 36 0 2 0 0 0 0 96 428 456 421 451 923 879 725 674 675 808 747 649 920 1206 1228 930 1416 1321 957 568 566 835 1004 687 892 1149 1337 1195 1172 676 782 696 941 981 1127 1359 1658
0 0 0 11 17 5 18 7 0 0 2 26 473 539 493 427 392 786 773 575 801 553 712 923 888 919 893 1321 906 990 858 826 896 1102 1352 1286 1011 717 1219 1276 865 1236 956 1104 1312 1604 1050 1695 1084
13 0 1 31 70 41 8 8 0 14 13 6 471 650 592 421 387 330 534 498 708 649 1005 1009 1120 845 1304 899 537 1038 1125 1167 1180 1351 1170 1079 1794 1260 1255 1534 1160 1163 1185 1221 1425 1073 1490 1191 1177
0 0 14 5 0 6 4 6 0 11 20 40 191 399 535 520 362 292 411 457 796 409 1098 1258 1195 1230 1791 1032 967 1002 1099 702 1068 1376 1282 980 1330 1055 1271 1255 1154 1549 1421 1383 897 1226 1251 952 1093
0 0 0 0 5 0 56 43 0 0 10 3 129 235 381 501 392 317 428 553 879 617 857 1597 1579 1393 1842 911 1666 1392 371 884 437 735 1721 1258 1303 1310 1604 1261 1223 1096 1170 1495 1504 1339 1148 1182 1296
0 0 0 0 0 4 63 27 24 0 9 30 102 148 202 405 456 373 353 453 660 594 732 1197 1308 1345 1264 1189 1634 1722 1465 1034 629 1048 1509 1387 1455 1641 1656 1626 1391 1333 1348 1462 1695 1141 1392 1358 1236
0 0 0 2 0 2 27 64 12 0 0 3 98 82 120 209 281 411 346 409 521 569 834 1235 1043 1477 1129 1875 2007 1157 924 1036 1011 1195 1085 1715 1727 1572 1644 1643 1520 1445 1295 1234 1052 1058 1085 692 570
0 0 0 0 0 14 1 2 97 55 0 1 23 64 57 163 201 324 307 444 468 763 1140 1037 975 1402 1709 1682 1813 1619 1571 1377 1086 1162 1282 1243 1641 1716 1591 1356 1474 1542 1561 1431 1337 927 574 348 0
0 0 0 4 15 31 25 60 0 5 32 2 0 31 65 55 111 274 306 312 500 755 1128 1083 1299 1443 1740 1544 1905 2013 1646 1316 1093 1563 1140 1534 1881 1874 1506 1663 1590 1649 1114 1180 772 612 251 0 0
0 0 0 1 4 1 147 39 0 4 108 8 11 0 22 74 123 264 310 323 380 783 1208 1155 1260 1321 2292 2139 1430 1460 1596 1631 1531 1541 1714 1939 1891 1762 1440 1372 1625 1570 1074 1032 568 243 5 0 27
0 0 1 10 14 6 81 216 72 38 162 59 24 8 0 0 59 222 390 362 485 806 1025 1369 1380 1850 1487 1809 1653 1611 1515 1419 1595 952 1563 1749 1801 1719 1631 1429 1525 1324 1232 977 424 20 0 2 59
0 0 0 0 6 15 18 23 119 122 124 123 68 48 4 0 0 164 362 420 584 773 1201 1622 1800 1895 1825 1865 1707 1647 1479 1562 1638 1348 1361 1758 2089 1934 1805 1771 1576 1536 670 695 121 61 44 1 208
0 0 0 0 5 3 4 4 68 50 257 172 133 141 152 22 0 47 282 571 585 839 1390 1751 1886 1876 2406 1611 2131 1792 1403 1534 1020 1166 1138 2119 1606 1272 1597 1486 1571 1093 532 377 52 53 7 57 33
0 0 0 0 0 18 123 35 47 89 191 251 156 139 167 283 45 0 211 424 580 880 1345 1871 2353 2488 2544 2546 1792 1966 1555 1369 881 688 1193 1839 1906 1146 1692 1564 1008 869 60 301 369 92 4 193 4
0 0 0 0 0 0 9 23 32 74 24 0 78 141 245 264 292 66 79 280 548 801 1417 1521 2577 2582 2438 2781 2167 2101 1637 1068 1349 1056 1148 1028 1210 892 1198 832 1143 562 13 314 209 112 153 13 177
0 0 0 0 0 0 8 44 5 25 54 0 0 8 238 352 390 225 108 403 675 821 1185 1746 2447 2648 2622 2666 2866 1820 2460 1580 1549 1524 1291 824 155 1016 1004 1018 945 389 88 559 292 366 301 100 38
0 0 0 0 0 0 0 1 28 112 22 7 0 73 109 365 386 369 370 338 760 781 1108 1572 2478 2675 2944 2448 3198 2826 2189 2821 1798 1771 1463 968 566 723 915 911 951 489 206 428 452 392 68 138 47
0 0 0 0 0 0 0 5 5 30 49 0 0 7 30 254 393 440 452 579 829 882 948 1470 2388 2860 3133 3091 2843 3268 2474 2554 2580 1753 1743 1175 608 1231 1057 960 1278 536 670 399 520 152 108 199 212
0 0 0 0 0 0 0 0 7 16 64 1 0 0 9 6 444 521 428 669 805 1029 1056 1479 1924 2826 3281 3212 3115 3078 3147 2447 2279 2039 1809 1207 1330 482 1234 1288 1112 611 251 589 424 88 256 210 109
0 0 0 0 0 0 0 0 25 59 94 112 12 2 4 0 213 371 540 380 786 1007 1180 1439 1742 2654 3187 3227 3127 3196 3213 3225 2564 2948 2154 2190 1416 806 1266 1370 1045 576 405 538 339 121 125 116 143
0 0 0 0 0 0 0 0 18 48 33 92 26 23 9 0 26 222 579 412 492 677 928 1357 1740 2204 2871 3119 2886 3159 3296 3313 3326 2610 3105 2601 2120 1818 843 1179 866 625 375 515 291 39 116 111 141

GFSSGP_con_mlcape_021.txt.gz
CAPE
405 506 424 78 7 1 24 69 71 23 48 18 9 16 22 6 0 0 0 42 0 27 173 143 360 652 1004 1137 1187 1273 1276 1555 1506 1506 1423 1420 1519 1539 1678 1680 1585 1530 1409 1324 1398 1478 1462 1400 1357
407 544 189 0 9 31 40 3 60 89 1 39 98 37 8 2 0 0 13 83 131 57 87 293 509 698 934 1014 1259 1300 1203 1381 1234 1643 1553 1485 1386 1546 1514 1486 1440 1355 1248 1298 1400 1412 1510 1487 1429
634 213 10 2 26 78 71 28 48 181 185 122 143 40 12 28 52 64 105 188 139 122 96 372 561 690 770 887 1184 1252 1279 1087 1100 1277 1670 1529 1378 1480 1420 1327 1249 1230 1340 1433 1491 1479 1461 1544 1584
636 544 241 185 75 101 169 190 178 243 206 155 143 82 175 179 192 176 252 92 58 251 359 826 740 764 840 884 1165 1058 1122 1097 1074 1350 1717 1360 1275 1423 1196 1066 1097 1208 1422 1664 1535 1554 1444 1492 1460
728 406 215 178 104 57 106 95 175 261 212 218 115 151 147 236 151 349 187 196 256 276 599 1026 1242 1161 927 1099 1181 1242 1127 1004 1242 1636 1552 1420 1342 1380 1029 1010 1008 1146 1402 1688 1431 1240 1260 995 1057
38 103 173 156 239 143 155 27 122 231 446 365 200 197 158 301 263 158 323 377 296 230 615 1011 1297 1385 1295 1214 1446 1526 1209 972 1283 1561 1466 1373 1126 955 800 963 999 1139 1424 1623 1488 1023 1120 783 650
1 0 31 54 48 206 256 112 330 271 300 357 425 215 240 247 190 228 336 395 294 291 447 882 1284 1402 1639 1557 1667 1606 1349 1205 1373 1438 1300 1135 1017 985 891 939 915 923 1084 1123 1122 858 896 932 819
0 0 22 77 36 15 191 94 114 146 343 376 675 455 410 422 330 331 308 372 196 427 555 699 1126 1256 1493 1440 1521 1486 1546 1403 1255 1204 1076 886 1222 1267 1014 895 1121 890 644 660 855 960 827 878 1092
40 8 5 27 12 0 48 83 223 284 328 398 418 453 697 590 494 535 680 489 726 704 699 917 993 1106 1277 999 1340 1540 1419 993 844 845 731 550 792 1099 1293 1166 1267 789 796 678 608 760 986 1092 1357
18 6 18 1 5 8 90 155 160 225 260 236 378 530 829 800 683 566 725 687 765 731 897 916 902 957 1039 1003 1296 1026 695 455 234 378 386 429 872 667 1107 1309 1164 961 593 903 969 857 1061 1670 1170
22 23 33 20 13 45 7 2 4 55 342 260 484 632 855 879 725 595 569 723 826 704 962 989 1055 1076 913 940 531 599 518 226 257 585 799 873 902 699 637 795 509 932 941 782 1091 1232 1191 1098 1223
1 16 19 20 53 16 10 0 8 0 202 388 292 250 992 782 804 565 671 682 706 660 727 858 1019 977 875 1097 651 219 573 414 454 595 1040 1420 1175 508 775 1129 717 912 1187 1004 1176 1148 983 1179 821
0 7 17 33 44 51 12 3 20 39 382 507 440 302 616 830 736 538 505 531 335 554 671 634 758 761 1051 885 245 567 692 780 828 891 1298 749 1031 805 578 1232 1053 1129 932 1153 963 1351 924 835 1063
0 2 1 26 75 60 19 19 10 118 587 607 546 379 347 228 516 642 437 599 509 660 704 871 804 615 855 675 771 1046 922 1112 1118 1279 1062 859 1048 949 1196 1256 938 926 1247 1439 1211 970 691 635 1006
0 0 0 0 3 70 64 2 2 32 399 573 553 476 440 368 263 275 668 541 428 732 801 988 679 828 1193 752 1383 1306 933 587 299 1138 1248 1019 1178 1131 1116 1210 882 1458 1255 1451 1378 919 936 1022 713
0 0 0 0 0 16 52 25 7 0 161 309 299 372 469 447 309 220 620 664 234 440 1007 1074 1008 1344 1441 826 1395 1065 991 1158 882 847 1239 1057 1258 1437 1088 1242 1439 1150 1130 975 876 650 600 708 179
0 0 0 0 0 0 10 1 0 0 90 121 177 171 276 348 349 317 238 627 508 849 1124 1100 1202 746 861 1094 1316 1186 692 838 854 1137 1160 1630 1599 1479 1158 926 1221 1349 1192 1115 915 639 397 4 0
0 0 0 0 0 1 3 12 0 0 0 92 75 75 97 152 278 348 143 327 385 647 1028 958 1113 1070 750 1006 1151 1157 677 1044 1395 1088 932 775 1405 1447 1140 984 1463 1202 1017 842 517 392 121 0 0
0 0 0 0 15 17 0 5 10 1 0 0 38 7 72 77 121 264 221 317 523 685 745 926 872 1330 1137 1251 1323 1352 1338 1201 1197 909 1065 1194 1353 1594 1376 1126 1062 1316 762 744 307 104 0 0 0
0 0 0 0 25 0 17 5 0 0 0 0 8 15 48 76 66 183 195 221 394 672 760 677 881 1683 1460 1285 1302 1408 1380 1376 1436 1315 1698 1501 1574 1531 1051 852 1063 1023 1132 800 149 3 0 0 51
0 0 0 0 0 16 33 2 0 0 0 0 3 0 25 38 59 140 165 200 254 546 792 780 757 1315 1827 1553 1428 1299 1166 1139 1232 1410 1360 1388 1374 1345 1184 1069 972 1230 977 472 49 0 0 0 49
0 0 0 0 0 0 52 10 9 0 11 6 7 0 5 38 64 105 207 218 220 516 855 898 888 1103 1361 1701 1324 1288 847 909 1010 1299 1463 1435 1519 1439 1465 1281 1211 868 198 144 1 18 6 5 1
0 0 0 0 0 1 0 0 26 60 31 28 1 0 0 0 3 60 252 204 302 507 781 1032 1004 1092 1245 1452 1375 1100 864 777 1094 1258 1234 1696 1709 1246 1419 1225 1231 604 98 118 20 0 0 29 3
0 0 0 0 0 0 0 0 1 62 19 51 60 19 1 0 0 22 128 296 266 667 899 1310 1244 1196 1549 1252 1489 1393 1393 1409 1080 898 976 1318 1294 917 1481 1239 1004 433 17 82 50 39 5 3 24
0 0 0 0 0 0 0 0 0 29 21 54 124 78 103 30 0 0 68 322 367 709 1142 1410 1405 1439 1604 1622 1273 1444 1799 1325 976 1247 1237 1189 1106 668 1005 975 562 394 0 100 74 29 27 10 37
0 0 0 0 0 0 0 0 0 33 50 152 165 22 125 80 29 5 51 200 484 621 1113 1641 1689 1592 1849 1842 1812 1493 1545 1688 1186 1286 1014 776 749 670 787 732 467 339 0 483 212 167 83 61 8
0 0 0 0 0 0 0 0 0 1 42 79 31 19 12 0 229 115 64 138 419 589 1147 1354 2126 1908 1984 2189 2120 1784 1668 1978 2062 1401 1729 834 254 469 698 813 485 305 49 129 338 191 38 151 44
0 0 0 0 0 0 0 0 0 0 23 48 8 14 29 2 128 270 94 140 403 580 993 1409 2158 2121 2155 1896 2295 2180 1914 1744 2043 2214 1301 1577 710 989 791 781 614 418 143 27 359 235 101 55 160
0 0 0 0 0 0 0 0 0 0 48 71 6 7 27 1 49 335 245 232 490 681 942 1369 1977 2272 2380 2322 2054 2447 2395 2208 1893 2193 1867 1348 1342 596 803 890 737 487 367 194 294 271 55 124 40
0 0 0 0 0 0 0 0 0 0 43 84 59 13 5 0 131 348 418 394 709 756 830 1308 2104 2345 2500 2602 2467 2216 2590 2637 2133 1758 2114 1638 1272 1274 952 882 857 621 292 256 381 276 93 54 245

GFSSGP_con_mlcape_024.txt.gz
CAPE
310 236 294 48 2 4 21 40 65 24 5 1 0 0 0 0 0 0 5 0 0 1 66 232 428 844 1230 1319 1255 1230 1410 1191 1432 1581 1332 1396 1542 1676 1664 1577 1563 1510 1391 1406 1530 1635 1523 1507 1398
606 516 156 6 22 39 32 47 82 43 5 2 2 0 0 0 0 2 3 0 0 26 129 346 452 861 1152 1304 1126 1418 1431 1511 1646 1324 1435 1515 1682 1689 1524 1514 1447 1336 1373 1445 1451 1528 1618 1578 1400
538 59 1 0 39 37 0 40 60 44 100 43 3 0 0 1 0 0 0 0 25 90 305 535 862 1030 1176 1310 1342 1420 1365 1363 1407 1404 1276 1334 1516 1491 1375 1305 1287 1400 1484 1564 1572 1526 1566 1642 1364
527 33 69 295 75 79 60 239 59 253 212 43 3 13 33 16 14 7 55 24 20 19 322 774 894 956 1084 1310 1351 1236 1178 1093 1453 1554 1398 1395 1528 1307 1159 1162 1243 1422 1657 1687 1551 1519 1457 1448 1392
627 295 31 48 40 86 147 354 362 198 201 102 31 70 76 117 50 140 172 75 23 33 463 869 952 1037 1113 1225 1245 1236 1064 1033 1445 1578 1388 1412 1467 1195 1070 1026 1071 1285 1524 1751 1356 1270 1106 1245 1208
209 24 1 4 12 79 246 406 384 287 232 122 49 61 45 136 199 227 96 114 189 126 842 1063 1051 1099 1186 1166 1217 1084 921 1238 1521 1505 1548 1270 1419 1037 951 1023 1033 1180 1530 1587 1492 1134 1161 991 990
0 0 0 1 0 38 329 434 362 276 106 124 64 36 121 253 313 108 210 297 201 451 872 1171 1161 1008 1222 1293 1384 1149 981 1207 1363 1445 1441 1355 1115 879 811 990 1007 1061 1248 1326 1249 915 939 970 670
0 0 1 1 0 108 259 500 363 221 334 261 132 20 118 236 214 307 308 349 185 428 750 1006 1203 1264 1254 1668 1575 1499 1269 1159 1263 1392 1237 1129 851 743 1045 935 1128 1105 1038 955 951 1001 1033 959 930
5 0 0 0 0 97 306 459 519 542 384 215 597 154 174 223 268 380 314 263 244 302 495 854 977 1308 1250 1436 1508 1543 1384 1260 1218 1034 889 435 457 1012 1267 1210 1230 1399 965 871 859 904 1049 1208 1101
154 0 1 1 0 84 94 313 494 519 374 664 316 319 262 251 311 349 357 320 260 297 341 591 842 1039 1162 1167 1228 1097 1125 933 614 362 347 504 722 795 1154 1190 1354 1204 795 1032 1168 1130 1285 1051 982
44 6 13 28 57 117 204 348 457 465 434 480 291 460 390 358 400 529 426 494 511 559 521 489 587 864 856 554 902 766 598 228 77 95 257 404 673 715 1033 757 848 980 1023 637 941 1252 971 1055 969
1 14 10 33 71 77 169 405 458 315 340 328 526 598 525 483 458 614 510 613 627 617 657 643 503 410 354 258 487 206 125 29 2 171 485 723 855 528 470 759 746 712 1015 1049 1003 1159 1005 1076 851
0 0 8 49 67 46 68 83 381 394 396 466 744 745 542 578 439 535 565 622 614 711 797 714 697 551 478 401 135 80 107 93 164 255 433 814 942 563 574 878 979 927 785 980 880 1120 966 749 998
0 0 0 4 21 45 14 17 32 302 489 659 694 777 711 680 405 437 538 656 604 709 733 827 783 774 600 805 451 66 203 438 397 493 632 813 862 638 583 939 957 1157 1193 1106 1107 904 673 746 879
0 0 0 0 0 47 20 20 74 504 431 461 763 845 871 808 643 420 511 594 561 612 646 730 743 736 645 715 641 145 463 723 705 811 865 1078 920 902 1157 1013 756 1143 1134 1356 1003 785 554 867 315
0 0 0 0 9 34 1 13 556 557 470 256 582 920 779 715 695 469 469 505 361 545 565 672 657 666 817 607 538 1347 1003 606 598 940 1008 999 949 897 949 882 1062 992 972 858 689 589 429 26 0
0 0 0 0 0 30 6 0 14 627 566 445 337 373 524 458 478 574 382 396 319 445 563 628 589 503 785 660 763 924 866 843 708 799 1066 996 1001 1222 990 875 931 1065 992 897 781 435 196 3 0
0 0 0 0 0 17 34 0 0 615 574 479 494 367 333 207 250 154 469 373 244 470 645 687 594 509 759 874 1062 742 588 650 849 982 891 967 1282 1299 1095 699 922 1120 932 867 419 264 124 0 0
0 0 0 0 0 0 16 11 0 294 400 413 461 421 355 256 257 192 447 423 238 330 706 744 786 621 1074 1095 804 725 485 513 662 1024 793 1004 1112 1258 1117 786 1086 998 796 526 228 44 0 0 0
0 0 0 0 0 0 23 25 0 13 129 217 242 269 312 235 261 236 214 472 451 470 719 813 800 644 636 813 733 639 532 759 580 992 953 733 869 1208 1108 948 912 890 895 768 180 0 0 0 0
0 0 0 0 0 0 16 21 1 0 0 8 113 129 160 94 95 167 186 306 425 609 714 746 812 809 658 702 804 951 845 1075 1132 1212 1266 1365 1387 1264 1331 917 752 827 882 550 73 0 0 0 0
0 0 0 0 0 0 2 0 7 3 0 0 9 45 100 80 45 60 156 118 272 462 597 666 879 1028 946 973 1078 1063 958 935 893 1054 1135 1266 1335 1334 1127 882 577 607 773 311 26 0 0 0 0
0 0 0 0 0 0 0 0 0 4 0 0 0 29 35 31 22 19 104 102 175 367 483 531 786 1118 1131 1150 1128 1069 921 840 727 717 1060 1286 1406 1222 1066 1005 796 501 268 137 0 0 4 1 0
0 0 0 0 0 0 0 0 0 0 0 0 0 0 3 12 6 0 45 64 73 279 497 532 582 1048 1213 1197 1188 1093 1019 879 639 603 926 1298 1259 1224 1173 1088 934 454 43 0 0 0 0 22 2
0 0 0 0 0 0 0 0 0 0 0 0 0 1 0 0 0 0 18 47 50 181 497 641 633 755 1096 1207 1110 1100 1013 857 474 488 1004 1040 1165 1150 1161 1086 863 368 38 22 1 16 14 2 10
0 0 0 0 0 0 0 0 0 0 0 0 12 0 0 0 0 3 6 65 69 153 487 756 745 722 993 1065 1163 1097 1071 945 734 1011 985 1029 965 973 705 1065 768 482 108 36 22 6 8 2 1
0 0 0 0 0 0 0 0 0 0 0 0 12 16 0 0 0 0 53 102 129 231 567 810 871 838 1038 1040 990 1151 1264 1123 1085 1184 1124 1192 1026 740 794 840 685 368 117 54 56 48 31 22 1
0 0 0 0 0 0 0 0 0 0 0 0 4 17 3 3 1 13 0 85 181 198 665 893 1059 936 1069 1284 1225 1153 1126 1398 1420 1438 1337 1078 802 709 622 638 429 264 147 111 100 89 59 16 10
0 0 0 0 0 0 0 0 0 0 0 0 0 25 40 66 60 21 15 59 128 257 754 1088 1275 1199 1362 1482 1468 1485 1383 1190 1388 1464 1598 1209 866 615 487 526 405 289 204 83 90 71 148 81 0
0 0 0 0 0 0 0 0 0 0 0 0 0 35 73 130 42 91 97 37 102 369 790 1092 1575 1445 1530 1709 1713 1652 1666 1616 1372 1292 1618 1727 1333 671 447 503 585 454 292 183 21 42 129 125 0

GFSSGP_con_mlcape_030.txt.gz
CAPE
304 272 124 96 56 14 34 56 47 1 2 17 0 0 0 0 0 0 0 0 0 0 34 38 568 1089 1256 1368 1378 1426 1269 1269 1330 1551 1444 1403 1513 1494 1450 1554 1447 1398 1402 1676 1568 1553 1509 1339 974
396 160 221 0 6 18 32 51 62 14 0 0 0 0 0 0 0 0 2 0 0 2 16 48 873 1196 1402 1362 1426 1416 1393 1434 1510 1520 1532 1603 1559 1485 1485 1371 1349 1457 1500 1437 1545 1575 1480 1233 804
312 497 20 20 6 17 19 40 35 17 7 8 0 0 0 4 3 1 0 0 0 24 113 459 1017 1184 1334 1327 1401 1624 1460 1513 1541 1577 1636 1604 1477 1408 1313 1327 1487 1541 1604 1548 1486 1544 1628 1420 1029
159 45 119 64 37 48 15 33 31 57 30 18 0 0 0 1 0 0 0 2 1 63 259 930 1155 1200 1276 1317 1601 1747 1438 1404 1404 1565 1554 1501 1359 1264 1277 1405 1560 1713 1693 1487 1404 1403 1487 1351 1043
202 120 29 55 85 81 90 53 106 93 66 29 6 0 1 29 5 0 6 25 51 159 567 1079 1167 1101 1336 1366 1564 1555 1512 1438 1352 1450 1546 1409 1282 1235 1261 1315 1452 1614 1798 1570 1412 1238 1171 1120 903
179 66 26 50 73 96 184 79 215 110 78 37 2 0 46 30 3 7 27 33 133 257 653 984 1223 1224 1258 1287 1297 1286 1490 1507 1456 1451 1472 1441 1261 1289 1274 1263 1331 1586 1599 1550 1164 1118 948 803 853
8 2 0 37 54 170 200 134 225 102 65 50 25 11 56 22 38 50 43 44 157 469 648 824 1027 1267 1255 1227 1264 1155 1257 1431 1531 1434 1346 1445 1349 1241 1231 1176 1239 1355 1282 1319 937 924 922 770 816
8 0 0 33 81 129 308 298 197 51 39 36 40 10 0 44 84 76 70 50 164 472 538 676 778 1039 1187 1310 1294 1109 1167 1344 1577 1561 1494 938 1367 1328 1340 1124 1056 1384 1145 984 1043 925 1021 929 913
4 4 1 0 49 103 310 276 206 144 84 50 81 35 52 108 111 90 75 61 180 468 537 649 690 850 1018 1138 1225 1183 1145 1199 1457 1411 1468 974 1116 1060 1212 1315 1380 1101 1023 990 1008 1021 1171 987 1160
7 28 1 0 4 15 326 338 245 203 52 115 130 39 96 180 124 93 92 72 137 231 409 642 688 700 964 1130 1116 1127 957 993 1003 1140 1104 1159 781 520 1062 1270 1442 1110 1003 886 1162 1241 813 978 821
245 50 9 0 31 78 327 429 329 264 15 87 154 47 123 180 154 141 119 83 86 181 409 620 604 761 868 997 986 1153 870 749 733 763 791 630 724 714 735 904 840 730 902 807 696 905 812 1042 724
50 14 32 19 2 162 263 444 378 232 64 126 190 57 175 170 220 213 190 117 74 141 235 563 590 633 735 854 944 927 674 533 396 394 376 243 222 426 618 780 640 604 674 963 902 953 983 719 915
2 0 14 2 0 0 144 385 425 396 162 297 158 134 144 210 235 243 261 198 103 112 214 457 614 614 633 507 912 712 448 310 215 214 125 135 481 628 526 503 605 645 620 781 977 1070 899 449 594
0 0 0 0 0 0 0 193 447 469 352 226 135 160 188 230 259 268 290 264 142 112 167 381 532 547 651 463 548 357 269 128 142 98 1 73 487 640 630 370 643 907 909 1087 1011 937 688 512 780
0 0 0 0 0 0 0 139 277 450 423 334 135 174 202 213 305 270 290 297 258 174 144 230 316 392 411 421 278 116 83 70 3 0 0 94 368 597 764 484 650 807 930 835 990 697 536 173 11
0 0 0 0 0 0 0 0 155 440 496 447 200 178 178 203 262 278 290 267 310 303 244 222 266 280 196 173 110 0 0 6 0 20 98 225 366 500 714 587 600 782 800 887 732 549 242 0 0
0 0 0 0 0 0 0 0 21 396 480 493 360 235 182 196 259 308 389 318 352 370 426 462 328 205 133 38 0 0 0 0 7 103 279 523 542 575 709 671 751 739 784 711 702 376 108 0 0
0 0 0 0 0 0 0 0 7 271 438 485 461 343 261 248 229 297 383 399 424 400 473 518 382 299 101 17 0 0 141 379 422 531 446 619 736 800 765 773 836 855 719 723 547 238 27 0 0
0 0 0 0 0 0 0 0 27 136 299 471 498 448 375 306 372 375 306 349 420 367 407 492 469 319 275 92 40 105 396 550 730 444 533 699 787 871 823 733 788 687 739 805 453 105 0 0 0
0 0 0 0 0 0 0 0 0 143 113 257 431 482 460 392 484 470 374 234 326 349 319 390 454 462 428 323 211 248 351 464 786 629 664 699 788 895 907 817 835 632 618 609 285 31 0 0 0
0 0 0 0 0 0 0 0 0 89 241 359 514 471 474 462 451 483 446 306 208 221 275 277 350 440 433 465 350 343 369 464 622 610 603 665 757 864 887 880 832 725 661 581 238 39 5 0 0
0 0 0 0 0 0 0 0 0 0 78 212 220 401 501 493 523 469 430 409 203 205 154 216 238 336 332 401 402 355 329 408 473 582 521 577 698 752 989 1051 862 773 740 629 432 63 0 0 0
0 0 0 0 0 0 0 0 0 0 0 98 232 227 239 311 368 430 251 212 339 162 151 188 233 272 279 326 420 373 354 421 405 486 518 462 688 831 872 833 811 812 771 587 367 78 8 0 0
0 0 0 0 0 0 0 0 0 0 0 10 117 282 281 221 195 204 138 55 98 178 77 141 211 249 245 252 383 381 381 319 352 365 316 473 835 952 1024 979 949 883 658 399 315 102 5 0 0
0 0 0 0 0 0 0 0 0 0 0 0 0 40 158 256 217 180 121 44 85 135 115 75 199 255 250 214 276 390 461 383 391 360 386 251 527 823 932 1014 939 828 501 350 280 98 14 0 0
0 0 0 0 0 0 0 0 0 0 0 0 0 0 2 14 85 137 153 87 32 113 137 158 209 274 310 287 253 348 454 455 437 427 439 451 362 479 729 927 1043 922 564 265 124 67 1 0 0
0 0 0 0 0 0 0 0 0 0 0 0 0 0 0 0 0 7 53 75 76 45 100 178 244 263 319 368 333 307 444 499 483 474 518 518 564 635 543 786 1054 972 684 347 102 43 0 0 0
0 0 0 0 0 0 0 0 0 0 0 0 0 0 0 0 0 0 0 0 20 33 70 162 291 295 355 423 448 427 507 585 578 514 568 589 604 740 546 918 955 932 723 463 149 59 16 3 0
0 0 0 0 0 0 0 0 0 0 0 0 0 0 0 0 0 0 0 4 9 24 14 79 254 350 419 643 647 637 627 677 650 566 610 640 670 745 481 805 920 852 818 493 283 116 54 13 0
0 0 0 0 0 0 0 0 0 0 0 0 0 0 0 0 0 0 0 1 7 9 24 35 186 305 369 638 782 774 704 728 682 617 661 681 714 689 552 654 895 816 808 598 475 325 123 52 0

GFSSGP_con_mlcape_033.txt.gz
CAPE
217 332 228 159 86 33 24 69 119 49 16 25 12 9 17 13 4 0 2 22 107 45 118 238 664 983 1223 1396 1587 1463 1422 1464 1506 1395 1405 1494 1572 1489 1547 1490 1375 1300 1350 1386 1201 1510 1458 1070 1101
385 238 178 9 36 17 34 63 95 40 16 0 0 0 1 0 4 6 25 51 18 63 106 300 695 1154 1428 1481 1413 1466 1410 1509 1379 1473 1436 1414 1486 1539 1452 1397 1391 1439 1337 1441 1597 1577 1422 1039 1003
257 384 58 42 37 27 34 43 45 11 0 0 0 0 0 4 7 8 8 43 11 6 129 774 983 1321 1302 1422 1503 1522 1477 1500 1555 1567 1590 1577 1507 1432 1359 1481 1399 1389 1439 1424 1519 1584 1555 1211 893
397 149 129 108 51 149 84 81 71 66 29 13 0 0 6 8 11 7 19 18 2 49 207 1010 1370 1287 1313 1484 1605 1489 1481 1591 1634 1639 1580 1465 1382 1315 1402 1528 1562 1593 1476 1359 1347 1484 1455 1122 887
81 107 136 133 138 132 151 98 131 111 56 12 2 1 8 60 9 15 33 30 54 123 499 786 1339 1403 1374 1675 1635 1399 1454 1493 1599 1639 1542 1436 1303 1279 1342 1415 1525 1552 1657 1398 1314 1140 1069 974 867
326 111 41 58 92 148 205 145 213 158 64 0 0 7 44 81 16 39 37 72 95 183 413 643 1180 1413 1399 1595 1538 1507 1491 1444 1543 1634 1578 1415 1377 1343 1323 1352 1484 1607 1517 1258 1113 986 830 833 992
80 31 6 21 58 223 261 247 320 165 44 17 20 24 37 76 33 63 69 154 193 347 510 581 628 1196 1326 1352 1375 1509 1587 1609 1503 1499 1492 1443 1297 1249 1263 1212 1354 1347 1365 1190 986 951 837 804 1055
47 0 4 34 97 167 404 286 256 134 46 29 45 21 7 102 90 116 121 235 296 384 535 765 510 715 833 1001 1284 1309 1508 1665 1592 1500 930 1082 1320 1343 1391 1186 998 1314 1086 1126 1040 967 882 960 988
13 2 24 3 49 43 450 369 204 137 42 30 75 40 45 122 120 132 148 249 354 474 495 566 567 1009 1205 1072 1058 1188 1367 1542 1559 1362 963 1045 1469 1525 1542 1364 1273 1043 783 948 1075 1045 851 1095 1319
15 20 23 3 43 9 343 418 291 170 64 72 142 70 60 141 145 124 156 189 224 350 494 563 585 785 953 832 1131 1157 900 712 1023 1146 1221 1447 1412 1211 1370 1531 1057 803 868 1036 1002 1163 948 1108 1366
359 73 111 0 15 88 410 446 396 225 63 118 152 80 127 152 143 132 129 129 185 227 313 555 617 847 776 666 915 1028 780 766 904 1336 1359 1295 1415 1334 1423 1534 1447 1473 1082 1343 1176 1465 1343 1405 1143
55 110 117 88 35 179 483 540 412 310 76 65 188 131 165 164 148 123 105 101 167 275 294 449 548 727 757 695 774 843 811 744 629 740 1067 959 818 992 1292 1439 1435 1348 1361 996 1327 1473 1353 1380 1350
135 19 2 16 3 1 316 273 448 415 178 263 349 212 184 181 172 146 142 144 197 264 264 427 569 718 784 856 674 676 885 608 480 629 666 619 802 1208 1353 1216 1256 1390 962 1064 771 1156 1214 1169 1088
0 0 0 0 0 0 5 66 446 531 362 405 306 203 181 183 195 200 208 200 184 217 239 476 589 672 800 725 865 943 994 754 687 389 369 387 746 1263 1392 1136 1113 1131 1470 1723 1060 1157 816 1001 993
0 0 0 0 0 0 0 0 38 470 496 436 260 164 184 186 238 256 281 308 201 177 259 392 605 662 758 770 734 1029 898 661 311 247 279 164 473 1116 1307 1408 1168 1329 1609 1598 1534 1053 976 49 11
0 0 0 0 0 0 0 0 11 460 529 491 289 163 256 261 302 335 380 421 323 203 290 455 480 610 727 744 767 694 707 443 186 198 131 144 387 883 1157 1329 1269 1377 1480 865 1111 731 909 271 2
0 0 0 0 0 0 0 0 3 429 561 557 387 240 222 278 388 424 439 464 472 405 302 344 519 542 646 720 684 634 482 97 108 137 195 373 432 913 1049 1255 1376 1428 1458 973 1234 1074 606 53 5
0 0 0 0 0 0 0 0 10 373 536 608 452 322 270 272 285 391 425 437 489 547 611 456 502 540 588 547 530 437 302 22 27 62 308 556 980 1160 1205 1348 1486 1442 1431 1287 1238 921 356 0 4
0 0 0 0 0 0 0 0 4 243 505 607 602 458 366 255 293 328 381 474 468 545 598 640 635 651 565 416 172 14 0 6 342 742 1102 1176 1083 1317 1431 1391 1394 1521 1168 1439 1254 763 373 0 0
0 0 0 0 0 0 0 0 0 133 247 517 567 587 529 426 320 347 395 489 551 634 636 723 712 792 597 519 281 88 57 208 773 1197 1198 1136 1216 1461 1517 1387 1404 1527 1323 1236 1146 482 249 79 0
0 0 0 0 0 0 0 0 0 28 240 476 698 639 616 578 452 418 435 459 552 650 669 736 738 854 781 591 499 432 598 760 859 1121 1246 1209 1335 1468 1465 1554 1411 1528 1376 1312 1127 535 227 18 0
0 0 0 0 0 0 0 0 0 0 0 202 439 635 633 650 580 593 522 526 467 606 645 686 724 829 866 815 640 459 201 239 548 887 1239 1270 1289 1408 1478 1621 1414 1516 1493 1387 1181 666 340 0 0
0 0 0 0 0 0 0 0 0 0 0 11 298 511 584 597 625 649 664 561 512 528 593 634 656 740 820 891 782 703 592 573 676 911 1104 1201 1249 1245 1400 1688 1471 1544 1518 1524 1345 749 344 50 1
0 0 0 0 0 0 0 0 0 0 0 0 135 338 499 610 595 710 756 763 685 524 472 499 645 618 752 756 819 787 739 760 794 854 851 963 1081 1173 1306 1576 1578 1543 1510 1523 1313 862 533 140 7
0 0 0 0 0 0 0 0 0 0 0 0 0 92 330 396 620 656 780 748 708 700 498 437 518 568 661 632 734 836 751 848 830 814 795 940 1029 1076 1393 1641 1580 1557 1560 1540 1182 731 565 240 49
0 0 0 0 0 0 0 0 0 0 0 0 0 0 197 392 371 447 537 705 546 482 621 478 494 557 659 645 657 780 858 918 919 948 842 960 927 1034 1535 1575 1584 1588 1571 1381 967 791 588 252 139
0 0 0 0 0 0 0 0 0 0 0 0 0 0 0 23 313 404 486 455 403 349 413 485 439 503 628 655 697 738 859 887 881 951 1040 924 1084 1017 1319 1532 1538 1565 1583 1286 988 730 529 236 119
0 0 0 0 0 0 0 0 0 0 0 0 0 0 0 0 5 165 467 516 468 318 416 465 420 411 541 651 688 715 742 858 925 1060 998 991 1102 1090 1096 1193 1369 1433 1602 1407 1039 694 495 252 112
0 0 0 0 0 0 0 0 0 0 0 0 0 0 0 0 0 0 95 327 503 445 342 532 538 526 627 700 755 767 796 909 989 1030 1054 1088 1159 1142 1264 1304 1329 1341 1570 1440 1183 924 578 349 220
0 0 0 0 0 0 0 0 0 0 0 0 0 0 0 0 0 0 0 72 187 412 432 399 598 713 699 715 801 802 892 967 998 1031 1075 1162 1129 1193 1341 1367 1437 1444 1546 1368 1276 1152 710 569 410

GFSSGP_con_mlcape_036.txt.gz
CAPE
52 113 183 250 205 197 45 100 145 136 141 124 16 29 11 33 25 12 43 75 95 2 37 283 781 1239 1551 1778 1986 1881 1448 1426 1684 1807 1468 1636 1608 1587 1495 1314 1313 1510 1446 1392 1519 1461 1184 1246 1313
352 330 94 74 253 107 55 178 172 175 120 62 37 41 33 46 34 42 42 103 69 77 458 528 914 1354 1663 1870 1839 1614 1535 1635 1636 1600 1695 1617 1622 1523 1393 1326 1325 1375 1447 1706 1640 1477 1150 1119 1087
457 344 325 343 175 90 92 182 273 200 69 125 84 56 67 32 62 68 55 81 110 207 503 710 1102 1413 1696 1601 1490 1520 1588 1633 1594 1651 1644 1635 1540 1422 1468 1276 1134 1437 1414 1530 1569 1281 1296 1115 869
334 418 227 182 133 157 164 219 206 167 112 55 80 52 4 29 69 114 118 11 232 255 488 531 1245 1582 1506 1523 1549 1577 1652 1679 1741 1683 1570 1471 1353 1415 1513 1727 1610 1594 1431 1443 1513 1267 1022 1041 952
197 207 374 327 132 187 220 291 228 220 198 102 59 5 7 55 88 257 115 133 259 290 493 820 1285 1329 1507 1624 1583 1624 1638 1724 1714 1556 1523 1405 1311 1366 1428 1556 1805 1731 1489 1428 1321 1277 1103 1027 1026
633 275 236 90 105 268 294 324 322 259 196 61 61 59 146 94 82 163 143 130 197 230 191 510 1159 1368 1691 1695 1579 1490 1528 1689 1706 1622 1545 1439 1380 1351 1372 1452 1632 1569 1454 1300 1296 1145 948 980 1095
616 134 124 94 111 186 351 444 371 183 92 56 80 283 181 138 148 129 105 149 178 143 107 221 550 1120 1761 1728 1545 1529 1560 1607 1702 1657 1550 1422 1392 1374 1350 1290 1397 1354 1417 1222 1255 1246 1165 1116 1006
624 62 110 179 190 287 466 497 446 168 137 100 140 156 148 116 197 193 181 206 231 141 87 171 420 603 734 960 1487 1580 1648 1646 1601 1466 1322 1340 1265 1207 1253 877 898 1231 1186 1257 1175 1174 1232 1276 1213
323 114 139 102 196 171 559 530 363 179 111 82 144 212 208 216 242 281 229 231 290 176 123 140 244 492 644 550 821 1244 1529 1680 1476 1076 1053 821 1433 1440 1372 711 940 870 928 1009 1023 1057 1133 1245 1182
370 136 102 65 9 43 429 493 449 203 103 113 281 226 221 205 291 316 405 376 461 217 123 114 139 323 528 402 639 712 505 452 662 1103 1193 1573 1601 1585 1380 1053 1033 984 931 939 913 754 737 1038 998
243 142 107 8 12 294 426 589 537 322 64 172 342 287 347 279 400 434 511 497 371 240 137 129 209 445 476 322 627 617 447 531 916 1456 1437 1531 1564 1724 1488 1530 1234 1417 1022 1353 1092 1215 1089 1318 899
265 202 233 47 35 123 582 654 626 449 108 167 483 347 497 465 533 457 439 379 339 299 262 287 324 444 436 412 488 497 268 304 355 498 1279 1632 1452 1493 1653 1498 1411 1437 1441 1080 784 616 838 1135 933
142 143 8 43 46 15 40 301 275 571 241 228 480 383 479 519 504 410 369 331 340 374 379 431 528 665 607 540 328 282 349 183 172 481 840 1183 1251 1602 1567 1447 1331 1356 1368 869 961 894 729 854 527
11 26 0 0 0 0 0 39 120 292 474 448 432 430 457 449 427 359 274 242 287 318 320 377 518 630 713 661 579 471 559 312 295 238 478 1136 1276 1861 1349 1431 1226 1232 1416 1271 418 822 716 884 836
0 0 0 0 0 0 0 0 1 114 580 688 603 510 443 429 393 365 272 249 274 339 370 354 552 634 756 773 821 785 478 393 217 199 627 1037 1235 1635 1220 1178 1289 1135 1138 1068 1007 1062 1182 533 227
0 0 0 0 0 0 0 4 12 103 523 825 779 653 447 373 364 365 339 305 292 340 391 451 475 532 778 771 815 575 564 418 172 156 490 852 1051 1623 1502 1488 1377 1586 1061 909 971 1258 793 401 103
0 0 0 0 0 0 0 7 22 81 485 705 834 684 466 376 332 316 308 285 261 287 352 480 546 506 662 861 840 766 605 545 118 127 478 721 1141 1462 1856 1488 1460 1894 1575 1041 1108 1024 646 123 77
0 0 0 0 0 0 0 0 0 114 390 601 826 742 597 468 338 380 383 299 369 351 429 617 641 676 858 888 1008 688 454 319 74 169 409 767 1159 1310 1892 1512 1285 1408 1474 1228 1238 1204 565 32 3
0 0 0 0 0 0 0 0 0 92 342 488 746 822 786 681 519 454 472 394 456 528 579 680 747 850 996 883 676 407 146 60 31 180 488 1191 1460 1817 2224 1687 1533 1480 1266 1387 1380 861 758 33 0
0 0 0 0 0 0 0 0 0 45 313 541 671 695 818 807 628 508 549 523 500 596 751 1022 992 1073 1231 979 678 194 31 0 12 349 831 1755 2029 2046 2294 2010 1764 1838 1601 1877 1613 1317 277 86 0
0 0 0 0 0 0 0 0 0 2 90 245 544 648 705 819 778 569 459 487 480 510 712 969 1352 1392 1460 987 790 545 151 67 100 483 1226 1844 1968 2119 2423 1852 1524 1929 1560 1456 1832 1483 883 94 0
0 0 0 0 0 0 0 0 1 0 7 23 111 598 667 801 859 698 452 458 481 670 805 1025 1385 1670 1743 1485 696 644 150 80 103 526 956 1202 1935 1971 2106 2285 2292 2214 1709 1687 1769 1452 1022 519 0
0 0 0 0 0 0 0 0 0 0 0 0 35 245 650 788 861 843 648 373 389 633 757 1107 1496 1813 1784 1794 986 834 809 166 244 430 982 1535 1630 2001 1828 2186 2337 2286 2055 1911 2149 1807 1528 625 16
0 0 0 0 0 0 0 0 0 0 0 0 16 100 426 668 744 875 872 525 391 502 811 1103 1579 1984 1891 1794 1740 1384 1285 945 520 810 1039 1258 1228 1396 1725 1778 2304 2370 2051 2180 2238 2128 1635 1126 341
0 0 0 0 0 0 0 0 0 0 0 0 0 2 296 714 655 753 928 932 571 503 701 1055 1448 1908 1954 1775 1741 1746 1585 1590 1479 1451 1328 1232 968 879 1199 1832 2021 2135 2446 2206 2361 2239 1477 1462 845
0 0 0 0 0 0 0 0 0 0 0 0 0 0 30 504 744 708 914 1065 1079 835 973 1036 1359 1727 1932 1839 1904 2046 2117 1571 1493 1585 1382 1387 1035 998 1057 1533 1849 2151 2166 2401 2421 2087 1621 1213 1204
0 0 0 0 0 0 0 0 0 0 0 0 0 0 0 248 588 780 845 1001 1217 1295 1319 1312 1499 1764 1888 1817 2029 2044 2112 1871 1379 1438 1878 1531 1561 1225 1323 1478 2093 2149 2097 2408 2364 1851 1544 999 1236
0 0 0 0 0 0 0 0 0 0 0 0 0 0 0 0 346 505 802 978 1129 1364 1451 1595 1649 1555 1490 1682 1874 1911 1981 2150 1975 2002 1907 1772 1666 1689 1338 1672 1935 2070 2113 2353 2324 1825 1618 1231 939
0 0 0 0 0 0 0 0 0 0 0 0 0 0 0 0 105 394 463 650 860 1114 1393 1509 1722 1766 1775 1748 1817 1798 1834 1935 2104 2047 2101 2126 1907 2046 1900 1860 1872 1765 1938 2225 2371 1992 1570 1405 1109
0 0 0 0 0 0 0 0 0 0 0 0 0 0 0 0 0 46 130 318 637 920 1034 1107 1342 1596 1627 1737 2000 1829 1826 1877 1832 2062 2108 2312 2094 2168 2173 2120 2093 1965 1819 2094 2409 2176 1559 1571 1305

GFSSGP_con_mlcape_039.txt.gz
CAPE
33 28 109 336 221 360 90 58 50 134 90 15 2 26 43 13 51 0 0 13 0 58 156 423 1043 1473 1530 1582 1832 1753 1500 1639 1886 1692 1557 1626 1609 1494 1280 1377 1589 1553 1481 1559 1515 1286 1268 1289 1420
96 240 329 293 257 76 52 56 62 124 180 56 64 15 122 31 13 6 0 53 0 0 161 509 1059 1440 1768 1910 1865 1595 1562 1723 1671 1742 1609 1640 1541 1400 1375 1532 1459 1456 1760 1625 1476 1275 1155 1148 1094
250 225 449 547 280 12 31 73 167 172 151 130 136 94 194 229 37 2 2 1 0 38 455 816 1286 1566 1914 1935 1736 1654 1618 1639 1685 1575 1604 1609 1440 1451 1665 1360 1568 1449 1540 1540 1546 1340 1278 1109 987
524 603 549 115 104 121 96 126 155 166 145 150 156 109 118 276 126 88 155 2 1 551 556 719 1477 1747 1746 1660 1584 1611 1633 1650 1678 1605 1543 1406 1480 1584 1762 1689 1694 1412 1449 1424 1385 1222 1162 1131 1062
508 416 480 501 121 78 132 184 260 213 293 138 154 137 111 110 183 234 23 75 279 494 701 868 1513 1664 1566 1526 1548 1626 1621 1731 1609 1517 1410 1413 1464 1487 1604 1849 1797 1513 1425 1388 1339 1292 1272 1286 1334
654 449 34 18 60 74 80 197 181 240 299 232 236 183 225 219 313 150 199 281 455 580 470 923 1560 1576 1539 1499 1594 1649 1702 1693 1584 1570 1471 1457 1445 1462 1514 1677 1644 1567 1336 1329 1258 1124 1217 1295 1357
666 505 111 27 66 152 132 153 137 187 172 327 293 358 241 467 372 84 219 260 348 458 622 650 807 1234 1623 1536 1537 1495 1584 1645 1622 1622 1540 1509 1473 1399 1287 1368 1458 1494 1432 1386 1389 1251 1188 1222 1291
1009 358 110 108 23 54 68 146 101 190 214 354 445 400 329 458 314 212 197 240 358 260 142 72 284 647 792 944 1420 1458 1514 1564 1614 1587 1547 1377 1185 1053 957 812 1041 1204 1357 1447 1346 1280 1315 1351 1262
805 378 110 33 4 59 76 45 53 125 195 279 353 424 420 360 371 177 202 221 253 149 7 2 142 478 705 706 1081 1392 1514 1572 1439 1267 1025 1161 1614 1715 1569 889 765 933 989 1105 1120 1116 992 899 1016
318 272 48 15 14 21 146 38 2 57 132 184 452 510 408 402 261 368 327 281 318 153 35 39 115 293 422 243 614 649 530 476 662 1020 941 981 1562 1347 1387 734 757 867 855 893 720 1102 1166 776 622
139 80 39 15 31 57 66 86 41 30 80 212 490 504 414 592 578 519 513 385 278 211 71 90 196 278 253 255 340 466 311 515 842 1519 1501 1561 1449 1137 886 1149 806 1034 851 690 1018 619 1191 581 711
50 134 133 52 41 218 103 82 116 64 39 242 394 550 477 568 620 717 699 607 516 224 125 85 222 310 250 424 292 320 238 465 589 973 1594 1794 1588 1418 1620 1125 1261 1067 1003 912 853 818 813 699 446
19 120 210 195 97 71 226 264 353 245 52 124 440 541 537 600 588 587 593 488 429 263 133 123 225 502 521 594 264 340 233 205 306 696 1220 1535 1278 1421 1288 1176 1004 1255 991 775 823 973 664 298 424
26 80 212 43 56 26 35 95 112 492 211 438 433 586 592 675 621 575 555 424 277 196 188 219 329 610 739 670 634 351 356 258 290 364 699 1325 1336 1274 1525 1325 1054 1292 992 662 670 1073 593 885 548
31 19 105 115 9 0 4 39 99 380 474 567 571 535 652 701 611 501 418 386 227 226 250 289 466 689 816 818 888 697 426 361 219 349 776 1178 1401 1452 1748 1095 1029 1044 1218 1412 1178 973 1139 505 184
0 1 2 0 0 0 0 26 10 117 675 729 668 627 505 573 556 467 409 380 282 230 304 329 341 530 779 768 843 669 393 273 255 242 666 1125 1382 1716 1494 1250 1267 1499 1229 772 947 620 652 786 99
0 0 0 3 0 2 0 2 3 53 432 777 823 755 566 449 508 469 379 313 275 315 390 453 447 428 677 893 809 701 455 483 252 180 431 1276 1367 1612 1903 1569 1524 1862 1281 685 694 515 216 10 42
0 0 0 0 4 1 5 0 16 63 277 488 889 872 748 510 384 467 395 302 301 363 515 649 581 759 971 960 1087 706 422 465 351 133 313 1127 1407 1598 1924 1433 1647 1470 1314 978 962 903 34 19 0
0 0 1 45 12 1 20 39 22 55 209 392 793 902 862 717 462 344 423 328 293 339 481 791 841 1028 1025 920 775 562 327 326 206 93 276 829 1277 1504 2069 1849 1722 1458 1215 1393 669 910 239 12 0
0 0 6 19 9 0 34 28 44 66 185 375 648 804 848 794 658 352 406 346 247 349 545 916 1142 1478 1367 1087 966 521 410 128 87 6 545 955 1555 1922 2235 2157 1484 1624 1442 1641 1013 792 431 10 0
0 0 0 5 13 0 1 7 46 51 99 381 577 624 743 850 837 623 396 399 326 404 786 1027 1404 1607 1572 1246 1143 887 483 240 30 36 391 1036 1619 1970 2385 1819 1531 1562 1678 1589 1684 1020 398 228 0
0 0 0 0 0 6 0 3 2 14 60 122 466 604 645 778 872 859 544 416 376 449 724 1246 1722 1914 1910 1729 970 772 283 35 3 31 131 998 1681 1872 2160 1536 1439 1867 1640 1631 1647 1146 1173 182 2
0 0 0 0 0 0 1 11 11 10 23 47 71 354 554 644 846 904 830 464 329 410 565 1090 1968 2168 1931 1994 1324 919 690 21 70 81 289 982 1927 1942 1744 2205 2219 2213 1854 1528 1660 1622 1585 824 136
0 0 0 0 0 0 0 0 0 1 23 31 36 48 238 541 716 917 924 646 368 303 462 877 1755 2244 2421 2381 1834 1810 920 516 278 222 475 890 1083 1847 1978 1905 2333 2069 2038 1608 1734 1887 1923 1453 325
0 0 0 0 0 0 0 0 0 0 1 15 15 51 62 367 752 876 893 793 529 397 620 894 1740 2398 2635 2609 2333 1959 1650 1173 1684 1149 654 848 787 689 1554 1878 1950 1991 2247 2049 2019 2499 2060 1796 1258
0 0 0 0 0 0 0 0 0 0 0 5 7 42 55 94 607 869 982 917 756 578 799 887 1654 2500 2793 2631 2603 2592 2318 1694 1428 1421 1050 1026 808 636 1044 2304 2120 2169 2272 2304 2489 2233 2108 1717 1597
0 0 0 0 0 0 0 0 0 0 0 0 0 2 11 20 469 746 913 1041 1081 818 1005 1150 1600 2403 2841 2723 2800 2875 2809 2302 1623 1631 1849 1875 1509 943 1292 1705 2171 2133 2166 2285 2453 1849 2316 1685 1684
0 0 0 0 0 0 0 0 0 0 0 0 0 0 0 1 284 742 839 1054 1276 1155 1044 1341 1671 2451 2872 2705 2892 2967 3048 2954 2328 2202 2197 1895 1914 1893 1860 1631 1726 2176 2257 2350 2461 1855 2058 1973 1381
0 0 0 0 0 0 0 0 0 0 0 0 0 0 0 0 143 638 871 987 1279 1371 1341 1435 1692 2247 2759 2914 2882 2839 2950 2870 2989 2545 2556 2454 2440 2719 1924 2258 2016 2344 2446 2433 2487 2103 1882 2183 1720
0 0 0 0 0 0 0 0 0 0 0 0 0 0 0 0 15 458 589 911 1036 1308 1514 1639 1790 1746 2448 2446 2838 2854 2890 2824 2914 2949 2701 2830 2789 2681 2947 2774 2500 2603 2476 2520 2630 2439 1459 2165 2130

GFSSGP_con_mlcape_042.txt.gz
CAPE
6 5 65 59 121 88 92 79 40 90 63 23 51 23 94 37 16 0 12 0 1 44 221 818 1373 1468 1417 1479 1485 1475 1489 1794 1460 1527 1382 1578 1280 1294 1381 1561 1539 1490 1570 1539 1333 1294 1319 1343 1379
15 31 235 212 71 10 41 122 95 88 88 34 101 77 128 27 5 2 10 3 0 12 282 817 1375 1455 1479 1686 1414 1484 1670 1511 1584 1361 1531 1313 1306 1331 1512 1462 1474 1828 1627 1483 1337 1195 1166 1162 1098
263 190 185 254 45 17 73 93 132 163 106 154 201 220 330 91 0 3 1 0 1 16 294 1141 1256 1519 1708 1675 1451 1498 1479 1551 1460 1478 1501 1310 1436 1650 1445 1516 1414 1492 1448 1454 1341 1315 1153 1038 991
402 430 309 372 102 43 177 154 157 147 141 170 131 174 153 32 0 1 0 0 0 226 700 1287 1616 1671 1816 1579 1582 1461 1443 1450 1477 1567 1302 1364 1561 1734 1634 1572 1379 1433 1392 1349 1269 1249 1204 1104 1170
681 265 9 1 317 146 141 136 279 121 169 213 185 139 24 8 0 0 0 0 101 347 911 1234 1599 1687 1668 1536 1522 1439 1493 1556 1443 1299 1318 1359 1448 1587 1767 1673 1418 1392 1400 1362 1337 1341 1367 1343 1277
422 0 0 0 7 107 101 178 193 202 352 392 123 96 119 196 25 5 0 0 436 496 527 1190 1623 1515 1428 1447 1504 1509 1610 1468 1509 1401 1352 1402 1405 1462 1641 1577 1466 1294 1270 1254 1165 1180 1272 1281 1212
482 0 2 23 37 113 69 136 96 79 404 367 231 288 132 197 150 0 21 297 453 521 694 1144 1388 1445 1447 1482 1517 1589 1557 1552 1571 1409 1374 1318 1309 1259 1296 1393 1433 1411 1346 1306 1237 1207 1282 1232 1058
582 650 167 134 29 44 75 24 46 254 405 386 222 152 245 244 26 347 287 346 426 372 666 831 955 832 866 1191 1347 1475 1515 1505 1514 1455 1374 1358 1404 1157 789 960 1237 1346 1394 1312 1307 1181 1014 1009 1055
133 484 355 48 1 20 23 128 171 112 721 535 612 411 418 220 94 256 268 294 526 520 297 311 362 864 867 905 1144 1401 1422 1313 1293 1166 1184 1024 1331 1221 1425 1309 869 1038 1110 1329 1061 1013 1036 836 947
215 30 60 58 0 46 8 9 40 66 139 591 462 609 353 293 223 277 318 398 363 170 23 13 194 587 716 427 854 1026 830 738 1006 1005 43 7 1030 1288 1402 574 912 944 987 1217 881 454 697 618 585
129 48 0 45 3 74 31 16 57 30 69 624 604 542 500 352 323 302 274 295 183 164 0 0 284 417 370 411 331 778 732 758 751 415 293 167 912 1206 1162 642 686 60 348 781 638 111 800 907 1012
91 12 6 28 54 112 83 99 26 13 60 609 573 483 524 469 342 319 322 364 241 123 23 81 384 357 277 438 51 535 506 552 819 1224 1157 1277 840 783 510 603 875 257 393 930 1085 1048 646 630 742
30 65 21 31 102 152 6 30 0 33 75 505 569 508 468 524 408 395 427 309 246 186 57 207 417 369 503 1034 147 340 413 346 717 1221 1179 1582 891 1059 1029 1096 968 1136 945 912 1144 753 511 81 193
30 51 119 148 84 187 177 165 19 7 32 323 489 500 508 534 566 656 547 417 435 170 112 360 568 444 1028 696 934 476 344 65 438 471 1094 1111 1288 1036 1469 1108 976 1091 519 251 1029 1081 914 368 217
17 27 50 58 41 46 8 266 185 1 128 187 368 485 403 436 924 707 616 658 431 149 70 337 707 553 930 683 859 763 639 284 56 600 1097 972 1193 1722 1454 1464 975 890 1451 1383 1065 1068 545 52 466
14 28 23 36 89 31 0 27 312 131 295 370 350 415 455 327 235 500 624 348 342 116 128 410 241 686 472 897 884 858 561 313 349 228 817 1074 1271 1791 1418 411 922 1183 1192 1164 940 587 745 335 83
7 9 30 64 67 32 0 0 0 391 274 453 433 391 371 476 343 389 222 317 205 146 355 514 386 699 774 1116 1143 694 664 611 418 287 789 995 1393 1615 1528 918 71 790 1349 902 953 623 695 502 91
12 1 27 40 25 5 19 0 15 23 442 423 550 473 390 432 440 374 227 243 246 364 637 426 476 920 999 908 946 978 727 504 528 376 287 1256 1482 1619 1603 1092 695 1552 788 1247 1104 355 0 0 1
4 3 0 31 80 10 6 8 29 7 29 515 569 649 501 438 442 485 354 269 348 481 785 580 748 797 1166 1003 976 999 564 517 519 436 319 1369 1491 1622 1732 1578 1362 1465 1007 807 1066 374 63 269 0
0 0 0 0 49 16 15 13 6 35 21 425 636 623 672 528 405 511 461 317 274 473 819 963 800 1042 1356 1221 1219 952 812 523 451 323 433 740 1193 1487 1838 1522 1419 1359 1511 1345 593 764 570 11 2
0 0 0 2 5 2 2 17 25 9 0 132 564 581 743 718 525 410 494 392 302 630 818 1127 1060 1538 1547 1298 1282 1084 883 683 571 277 176 803 1287 1928 1672 1621 1340 1159 1530 1345 1332 705 743 1 0
0 0 0 3 33 25 31 27 13 24 49 72 337 498 766 810 724 523 570 484 410 558 854 1192 1291 1365 1774 1460 1225 1188 778 515 320 191 274 826 1030 1539 2164 1754 1645 1440 1592 1327 1218 1370 1278 199 0
0 0 0 0 0 0 4 3 28 19 58 119 249 478 487 794 778 692 576 548 508 535 952 1244 1443 1563 1931 1284 1761 1064 914 510 271 296 105 553 1511 1894 2135 2104 1660 1892 1626 1498 1442 1498 603 1182 312
0 0 0 0 0 0 0 1 5 5 0 15 79 429 447 692 853 951 761 639 546 657 1083 1264 1703 1692 1972 1990 1201 1948 1014 764 297 141 359 750 1902 1724 2220 2309 2017 1914 1980 1799 1579 2133 1634 1230 964
0 0 0 0 0 0 0 0 0 6 9 6 52 48 492 585 832 1080 1055 845 647 729 1006 1277 1892 1870 2009 2238 1904 1224 2128 882 860 878 182 698 1158 1777 2018 1882 2209 1951 1859 2037 2086 1739 2245 1685 1318
0 0 0 0 0 0 0 0 0 0 0 5 46 36 84 365 718 962 1219 1082 803 697 874 1261 2004 2191 2414 2230 2399 1764 1843 2104 718 1237 1117 466 1047 1223 1980 1521 2181 1915 2141 1865 2451 2466 2067 2412 1580
0 0 0 0 0 0 0 0 0 0 0 0 15 68 63 159 406 723 1284 1234 993 760 868 1051 1581 2258 2473 2329 2518 2577 1564 2374 1695 859 1601 1629 917 1557 1341 1813 2067 2061 2413 1974 2521 2292 2550 2207 2008
0 0 0 0 0 0 0 0 0 0 0 0 0 12 41 80 272 859 1179 1325 1182 897 855 1072 1495 2059 2474 2619 2517 2729 2601 2043 2050 1540 1707 1380 2039 1111 1985 2293 2135 2501 2498 2532 2577 2658 2152 2233 2272
0 0 0 0 0 0 0 0 0 0 0 0 0 0 0 115 265 662 1159 1372 1376 1148 981 1095 1322 2141 2638 2843 2937 2820 2879 2623 2246 1991 2012 2302 1769 2559 1507 2714 2601 2498 2441 2505 2776 2229 2318 2128 2099
0 0 0 0 0 0 0 0 0 0 0 0 0 0 0 12 318 557 999 1276 1539 1456 1248 1236 1445 1741 2598 3122 3116 2937 2896 3148 2831 2257 2182 2440 2678 2170 2807 2312 2328 2372 2249 2727 2516 2595 1836 2311 2278

GFSSGP_con_mlcape_045.txt.gz
CAPE
0 0 1 77 18 14 28 24 80 92 20 100 5 33 45 12 0 0 0 0 16 47 569 1056 1210 1314 1268 1170 995 1214 1776 1134 1358 1483 1431 1332 1362 1587 1574 1518 1531 1592 1465 1326 1393 1319 1348 1356 1036
0 1 97 75 148 19 38 41 91 67 18 16 74 101 16 0 0 6 0 0 14 97 894 1041 1258 1258 1443 1319 895 1673 1306 1321 1117 1720 1320 1442 1539 1702 1479 1668 1835 1629 1444 1344 1233 1255 1268 1179 1065
4 66 98 91 8 49 85 81 70 43 111 193 218 178 167 3 10 1 0 3 3 272 900 1281 1251 1413 1501 932 1207 1448 1403 1325 1514 1280 1433 1640 1659 1625 1523 1443 1502 1456 1448 1368 1358 1220 1142 1082 999
229 160 126 82 38 112 85 163 213 142 239 185 107 37 0 0 1 2 7 5 7 572 871 1397 1588 1711 1321 1079 1254 1338 1399 1382 1663 1375 1541 1778 1831 1634 1569 1478 1518 1446 1395 1346 1311 1267 1190 1177 1073
512 123 1 2 3 127 113 226 190 188 242 172 87 0 0 3 0 0 9 8 309 590 846 1480 1590 1666 1295 1301 1402 1377 1419 1483 1359 1442 1509 1627 1744 1839 1696 1528 1553 1501 1447 1402 1382 1402 1347 1370 934
380 7 0 0 1 36 76 245 256 289 319 83 8 13 4 0 0 0 0 7 636 661 856 1424 1560 1552 1298 1372 1381 1457 1449 1404 1418 1408 1412 1460 1543 1759 1742 1570 1450 1445 1405 1280 1165 1199 1200 1253 837
161 0 3 28 39 117 260 301 365 442 314 134 51 43 5 0 0 0 0 117 565 688 847 1307 1530 1324 1355 1485 1480 1578 1398 1538 1466 1392 1398 1364 1386 1427 1528 1531 1511 1460 1417 1342 1277 1205 1184 1191 814
322 0 0 43 61 21 188 248 412 481 293 296 217 19 29 3 0 0 3 161 436 767 903 1126 1241 1142 1222 1418 1522 1525 1441 1585 1447 1373 1328 1352 1384 1259 1210 1196 1435 1582 1392 1156 1037 1076 928 1003 906
437 161 40 53 2 16 51 356 468 446 367 343 245 156 139 0 0 57 76 296 343 673 777 972 836 848 892 987 1281 1377 1379 1401 1292 1160 1217 1135 1098 1143 1008 1056 969 1281 1193 972 641 804 986 828 692
231 93 46 86 42 3 0 84 605 553 521 387 271 245 13 2 79 216 238 338 399 516 623 583 494 487 718 652 935 827 715 491 839 961 89 7 325 978 1150 521 877 1047 1044 1182 778 361 949 627 404
116 167 10 14 35 52 6 21 42 493 507 295 307 200 143 331 197 250 271 365 371 243 222 180 509 575 511 565 269 664 450 503 883 424 123 5 749 757 977 406 388 12 67 397 395 153 381 563 764
77 177 90 31 7 33 32 5 4 428 656 421 450 283 183 324 152 231 232 257 276 59 14 27 369 447 365 308 92 512 537 510 380 420 147 3 0 96 575 326 264 263 148 320 919 787 765 575 467
12 55 90 33 0 70 26 19 47 608 706 482 387 301 240 246 184 213 295 133 135 36 0 4 164 308 277 138 11 374 411 487 540 617 609 552 434 282 658 700 606 432 494 600 998 981 622 180 37
1 48 67 45 2 71 8 26 12 683 554 495 402 292 354 259 271 267 183 95 64 51 0 64 71 268 265 306 50 81 635 434 821 1218 1154 773 167 846 781 918 804 832 595 42 1094 728 673 240 188
0 22 49 68 86 148 13 32 7 613 564 474 508 377 321 278 201 258 128 148 65 46 16 71 60 276 449 275 670 490 622 195 499 951 1068 1042 655 889 1080 1005 828 506 589 473 1049 856 432 164 199
0 0 0 58 7 97 72 48 81 331 526 519 496 480 393 346 300 231 91 108 108 78 147 118 105 262 452 250 536 476 472 603 317 743 759 1093 1156 1546 844 667 861 836 1041 1078 761 800 364 147 126
0 0 1 40 7 39 133 84 117 68 397 503 485 454 408 370 471 261 103 63 125 109 146 160 184 81 367 253 500 416 441 463 580 947 714 712 856 1529 920 470 365 11 1194 921 846 311 401 334 91
0 0 3 3 18 55 61 4 87 62 150 331 465 373 298 457 486 497 347 207 194 0 108 94 266 188 247 429 457 293 180 394 559 519 799 868 969 1368 1205 805 305 627 733 1102 985 55 22 15 19
0 0 0 0 27 38 40 3 128 73 175 242 295 449 374 237 184 468 420 187 0 0 62 24 281 417 276 544 437 464 12 274 432 292 1178 1007 1124 1414 1332 729 839 839 985 679 618 0 6 0 14
0 0 0 0 0 3 0 5 26 126 270 117 114 364 410 373 275 226 90 98 55 92 32 170 393 608 424 552 448 652 703 307 371 226 793 1076 1257 1421 1518 1193 1219 1090 1001 674 778 466 217 0 10
0 0 0 0 0 0 7 5 28 219 284 87 109 236 360 391 309 234 97 93 111 186 116 185 196 657 576 624 599 434 765 704 454 278 134 1284 1182 1233 1416 1381 1099 996 1213 1030 754 404 397 0 0
0 0 0 0 0 14 0 0 0 19 134 154 448 615 174 372 313 309 168 148 178 321 330 176 299 639 796 841 822 611 405 476 588 332 179 253 1071 988 1191 1566 1158 1065 1126 1276 843 416 269 0 0
0 0 0 0 1 0 0 0 0 11 2 194 603 359 72 438 323 321 282 285 132 310 554 411 358 598 978 929 866 795 636 607 325 501 167 294 489 705 1552 1620 1248 1106 1303 1114 744 1278 1058 2 0
0 0 0 0 0 0 0 0 0 4 1 235 501 374 371 628 405 313 384 339 245 434 642 731 524 648 919 1002 978 686 845 593 523 133 168 192 694 782 1073 1975 1661 1515 1331 1132 1181 1398 459 931 349
0 0 0 0 0 0 0 0 0 0 0 47 205 296 436 394 230 462 420 371 363 469 624 809 736 626 938 981 811 1302 816 750 317 306 47 224 627 1129 1320 1847 1852 1545 1433 1510 1642 1658 1177 288 748
0 0 0 0 0 0 0 0 0 0 0 5 142 410 357 191 476 593 427 448 371 419 643 937 857 778 814 1194 973 703 1616 954 653 483 323 28 649 982 1201 1460 2089 1690 1440 1390 1499 1599 1778 1420 537
0 0 0 0 0 0 0 0 0 0 0 0 0 439 313 214 625 657 532 528 393 513 721 831 1103 942 1103 1213 1348 941 772 1909 969 353 653 1028 452 1065 1259 1369 1824 1912 1600 1294 1423 2065 1685 1923 1621
0 0 0 0 0 0 0 0 0 0 0 0 0 1 300 489 818 824 696 624 508 492 729 921 1224 1206 1179 1322 1526 1441 956 813 1974 1041 395 611 1258 458 1470 1656 1728 1667 1683 1495 1324 1785 2214 1723 1957
0 0 0 0 0 0 0 0 0 0 0 0 0 0 22 458 876 1098 957 822 655 508 744 932 1182 1572 1592 1598 1531 1876 1772 1323 1080 1920 926 513 1222 1622 750 1380 1813 1762 1821 1803 1587 1511 2094 2065 2040
0 0 0 0 0 0 0 0 0 0 0 0 0 0 0 246 761 1223 1177 1066 882 667 701 856 1085 1621 1839 1928 1951 1829 2186 2193 1420 1327 1887 637 1128 1216 1927 1994 1896 2130 1974 1871 1992 1913 2109 1911 1772

GFSSGP_con_mlcape_048.txt.gz
CAPE
1 0 0 29 8 41 37 18 136 51 17 78 0 0 7 0 0 0 0 0 0 97 543 953 1105 1305 1231 1228 1257 1650 1192 1440 1830 1469 1443 1607 1666 1617 1607 1703 1554 1600 1486 1571 1385 1519 1549 1229 782
0 0 39 66 123 1 15 112 85 66 118 89 47 58 8 0 2 2 0 0 3 469 957 1286 1128 998 1152 1090 1693 1176 1545 1544 1494 1399 1583 1807 1615 1575 2027 1692 1689 1547 1427 1389 1466 1475 1146 1296 1076
1 21 51 48 11 49 96 87 127 149 95 170 155 40 7 1 2 0 0 1 177 601 976 1291 1276 1284 1006 1159 1712 1478 1165 1812 1282 1516 1661 1612 1796 1476 1493 1593 1484 1537 1499 1477 1377 1306 1249 1155 985
5 80 61 17 0 65 122 198 167 121 274 217 94 0 0 0 0 0 1 5 363 594 1090 1313 1508 1276 975 1624 1216 1531 1332 1761 1393 1614 1834 1746 1597 1490 1568 1520 1519 1496 1485 1457 1416 1360 1293 1295 984
413 96 0 0 10 3 34 114 231 206 275 199 12 0 2 8 0 0 1 131 451 801 1176 1375 1607 1152 1110 1296 1467 1268 1438 1465 1468 1637 1764 1907 1786 1735 1663 1705 1654 1626 1569 1547 1562 1519 1455 1120 887
232 0 0 0 7 14 59 83 328 288 152 0 0 0 6 1 0 0 0 446 554 814 1293 1517 1603 1363 1250 1277 1387 1432 1414 1238 1511 1547 1631 1710 1898 1817 1652 1571 1571 1536 1452 1341 1324 1232 1294 1052 643
17 0 1 0 9 26 90 4 388 325 212 56 0 0 3 0 0 0 145 513 563 967 1256 1467 1438 1389 1285 1299 1607 1358 1379 1423 1504 1523 1480 1494 1530 1563 1636 1564 1547 1539 1517 1470 1331 1204 1035 527 459
23 0 0 0 0 2 35 134 418 364 225 124 0 0 1 0 0 0 285 591 542 881 1078 1203 1263 1188 1256 1415 1510 1329 1485 1539 1521 1416 1305 1277 1256 1288 1269 1211 1515 1434 1348 1325 1142 1166 1010 719 705
1 4 0 5 5 3 27 339 330 299 191 175 145 0 0 0 0 0 247 560 542 754 931 1126 987 994 1181 1323 1356 1250 1505 1553 1441 1387 1253 1038 913 954 1074 900 1150 1190 1196 1180 839 964 971 594 719
309 90 8 33 15 0 25 366 348 300 347 152 60 5 0 0 0 6 255 454 565 486 693 878 695 702 809 1060 1121 696 1139 1043 857 481 291 317 570 928 1049 813 1027 1129 1096 834 904 487 852 768 301
403 103 52 22 27 43 1 463 499 411 343 182 90 0 0 0 0 153 261 511 553 529 628 539 365 583 460 240 401 352 475 520 666 231 0 88 735 854 1034 545 458 21 69 189 495 263 224 607 641
90 161 108 25 7 45 3 20 435 457 232 267 82 0 0 0 94 141 285 409 549 540 443 265 226 436 345 29 0 1 135 431 538 257 0 290 210 508 323 152 55 57 2 164 557 830 763 756 474
50 98 137 111 16 1 0 36 372 571 326 266 37 0 0 22 209 263 304 354 430 393 226 138 279 327 248 0 0 102 195 345 347 226 14 125 0 78 129 146 363 278 365 489 706 845 586 177 42
35 57 50 156 16 18 31 21 318 576 359 204 83 73 140 106 288 308 293 333 221 168 88 89 275 238 249 88 0 127 291 284 386 326 399 321 357 553 620 638 582 462 507 392 436 822 505 342 128
0 0 0 38 18 13 62 5 437 593 433 256 166 210 277 186 194 264 277 254 270 42 16 31 188 219 132 135 0 38 260 294 398 483 623 438 1 554 760 560 599 593 529 321 565 522 300 85 147
0 0 0 19 25 89 2 0 675 545 402 351 213 182 216 217 89 237 216 179 165 34 0 13 117 231 47 269 318 447 321 157 491 794 808 637 394 783 782 763 600 586 742 862 872 663 249 51 73
0 0 0 0 50 91 9 7 686 586 417 327 229 224 247 151 138 224 196 151 114 4 0 8 36 239 81 519 392 297 302 377 458 795 706 795 1018 1000 461 386 542 546 606 900 818 442 439 185 97
0 0 0 0 0 65 27 36 456 614 507 375 277 238 272 127 128 157 175 141 118 38 0 0 11 231 192 257 206 131 167 166 409 680 610 796 1074 924 456 546 145 0 954 734 645 457 128 74 71
0 0 0 0 0 58 5 53 31 574 441 460 365 374 273 220 164 128 153 109 126 99 59 0 15 125 282 164 125 13 44 44 135 283 661 624 626 905 670 467 474 476 726 804 492 0 0 0 28
0 0 0 0 0 10 43 80 67 502 450 359 390 463 409 390 260 236 155 93 107 103 117 40 11 5 147 57 48 19 0 0 26 137 491 691 771 962 814 417 633 565 928 520 588 6 3 0 16
0 0 0 0 0 0 13 13 34 100 461 469 397 404 401 372 356 258 287 115 138 77 129 69 26 0 56 178 126 66 4 0 7 113 232 729 891 1098 1121 960 644 879 1016 680 629 381 89 0 19
0 0 0 0 0 0 0 0 1 62 119 338 315 322 290 272 288 355 344 263 190 56 87 100 97 92 70 308 146 123 12 4 16 59 89 543 913 1105 1336 1059 951 793 907 1028 815 252 358 0 0
0 0 0 0 0 0 0 2 2 33 137 195 78 108 34 267 235 182 318 308 125 71 87 79 250 224 238 375 270 190 202 145 350 264 188 196 884 1097 1112 1103 1175 745 926 843 723 554 250 0 0
0 0 0 0 0 0 0 0 0 8 77 193 54 44 57 199 307 202 106 45 34 110 34 153 338 328 354 399 362 268 207 148 163 333 316 175 353 793 916 987 1098 907 746 1061 887 915 698 156 0
0 0 0 0 0 0 0 0 0 5 64 30 109 113 148 257 302 275 147 78 74 207 135 98 242 482 451 420 465 390 302 265 97 201 180 197 200 348 573 1028 1261 1368 1104 1013 772 954 1103 696 349
0 0 0 0 0 0 0 0 0 0 0 50 193 290 399 147 241 293 233 138 92 236 327 210 217 329 546 453 427 504 457 425 272 282 251 46 137 341 429 758 1077 1514 1488 1207 1173 1278 1155 588 455
0 0 0 0 0 0 0 0 0 0 0 10 173 468 572 310 140 367 308 228 188 234 442 438 318 288 551 585 583 654 585 521 457 421 195 99 80 328 488 826 1251 1455 1556 1386 1283 1322 1507 1404 924
0 0 0 0 0 0 0 0 0 0 0 0 21 383 620 405 465 373 323 358 247 259 414 583 553 420 462 770 644 558 738 1038 725 511 447 373 126 350 513 840 1255 1486 1471 1529 1218 1197 1441 1660 1487
0 0 0 0 0 0 0 0 0 0 0 0 0 111 415 491 646 325 459 436 320 317 493 666 716 655 666 661 863 794 640 537 1274 1075 474 354 535 590 734 979 1175 1386 1490 1526 1414 1117 1327 1609 1651
0 0 0 0 0 0 0 0 0 0 0 0 0 73 246 437 512 358 591 499 440 387 516 626 864 825 773 838 936 1085 1060 832 566 1118 1344 810 469 406 834 1023 1267 1486 1604 1624 1555 1256 1280 1443 1695

GFSSGP_con_mlcape_051.txt.gz
CAPE
44 44 0 20 33 53 14 22 87 36 112 161 0 1 1 2 9 0 0 0 11 285 1002 1326 1242 1359 1355 1751 1263 1371 1565 1814 1829 1823 1622 1615 1685 1708 1638 1701 1831 1820 1551 1293 1585 1416 920 771 853
28 11 47 110 89 4 0 49 64 77 77 53 27 29 12 0 2 4 0 2 91 519 1055 1126 1302 1347 1347 1808 1296 1633 1851 1244 1617 1863 1615 1688 1716 1723 1796 1717 1723 1550 1632 1609 1234 1246 1066 929 770
8 60 53 49 9 4 38 85 83 102 130 149 86 20 0 0 1 4 0 60 353 625 1027 1050 1300 1393 1367 1580 1531 1558 1791 1364 1535 1734 1702 1687 1679 1778 1682 1671 1709 1618 1537 1490 1203 793 1226 949 823
36 58 142 21 5 39 77 60 119 120 244 148 21 1 0 2 0 0 16 304 434 901 866 1011 1270 1224 1741 1341 1725 1608 1617 1458 1783 1880 1732 1533 1561 1529 1552 1577 1612 1627 1604 1285 1420 1284 1290 961 608
122 82 0 0 0 13 43 84 147 121 272 146 0 0 2 9 0 0 78 516 429 755 1086 1262 1336 1306 1596 1360 1432 1687 1514 1555 1762 1901 1874 1821 1821 1806 1771 1769 1763 1689 1667 1646 1442 1333 1182 824 680
204 4 0 0 0 11 54 83 286 316 69 0 0 0 7 9 0 9 276 457 696 832 1117 1442 1307 1503 1423 1477 1291 1512 1405 1554 1687 1782 1824 1896 1903 1822 1788 1728 1660 1521 1411 1473 1441 1218 895 704 669
21 0 0 0 1 39 63 0 190 201 39 0 0 0 5 3 1 38 448 593 800 964 1016 1351 1223 1325 1301 1355 1410 1435 1347 1531 1582 1636 1739 1848 1876 1820 1723 1699 1688 1642 1598 1517 957 592 380 460 621
87 0 0 1 0 19 19 5 60 276 117 15 4 0 2 0 8 138 561 660 902 957 1040 1145 1270 1175 1180 1469 1349 1503 1484 1532 1588 1550 1543 1458 1518 1616 1519 1368 1612 1543 1494 1473 805 528 225 576 811
1 0 0 0 0 27 127 172 388 168 108 129 51 14 0 0 1 298 476 496 787 1003 1099 989 1103 923 1028 1337 1291 1590 1587 1582 1549 1406 1406 1099 803 913 1177 1130 1501 1440 1346 1196 1011 1010 700 738 723
177 3 0 1 5 6 122 237 364 126 172 40 33 2 0 0 10 258 428 287 449 713 943 943 961 538 1010 1287 1239 1293 1475 1434 1231 922 696 609 696 789 875 694 1354 1171 1264 1253 1016 553 959 435 339
297 34 42 17 42 15 39 152 396 258 147 65 22 0 7 5 14 224 467 325 223 538 841 792 657 545 700 789 973 829 1067 1063 807 334 50 311 691 982 911 781 465 33 111 256 391 254 266 473 352
150 163 163 30 55 28 42 301 514 324 362 103 5 0 3 16 19 242 459 374 253 367 547 593 388 224 275 378 533 289 510 558 538 227 0 400 551 671 697 267 40 24 5 92 369 675 734 567 488
75 103 120 189 102 13 0 0 186 295 335 11 0 0 6 11 9 205 374 454 332 213 288 312 125 33 0 0 187 37 126 338 531 283 1 72 136 303 93 70 240 213 305 390 393 660 399 36 30
27 19 45 58 47 68 4 86 258 452 198 0 0 0 0 0 79 142 221 395 371 252 179 130 17 0 0 0 0 0 48 289 345 186 60 11 0 39 181 355 390 487 427 420 347 511 105 33 28
0 0 0 0 0 58 39 13 139 384 176 5 0 0 0 5 124 144 185 325 394 298 163 38 0 6 0 0 0 0 129 239 289 270 319 195 320 508 625 482 472 538 553 369 380 606 182 84 24
0 0 0 0 5 48 9 22 297 353 191 81 1 0 0 0 77 131 166 194 254 211 114 16 46 50 0 52 0 0 139 239 299 320 412 423 133 368 592 532 540 552 504 576 599 538 43 63 13
0 0 0 0 0 72 44 4 381 360 185 119 91 56 12 0 94 147 139 147 117 75 39 0 38 61 44 61 118 0 33 145 267 412 466 577 261 551 640 568 503 510 392 704 550 440 374 79 42
0 0 0 0 0 36 48 16 288 391 274 153 149 180 204 56 48 117 117 90 130 0 0 0 0 30 54 42 97 319 252 325 240 540 646 689 641 804 446 345 428 86 376 611 444 475 167 123 185
0 0 0 0 0 24 57 35 274 347 360 248 178 151 182 154 103 63 96 72 49 0 0 0 0 8 72 57 216 213 142 207 358 498 739 741 974 692 268 488 125 0 695 573 459 0 3 7 38
0 0 0 0 0 0 30 32 164 347 279 341 246 159 182 146 130 59 96 82 50 0 0 0 0 0 35 47 260 96 9 38 103 243 599 622 910 1020 644 357 363 393 671 603 566 0 0 2 21
0 0 0 0 0 0 22 53 10 386 437 430 294 163 205 180 117 86 88 128 53 28 0 0 0 0 13 36 85 70 34 21 42 92 258 497 692 804 927 383 364 627 657 551 343 154 0 2 23
0 0 0 0 0 0 0 0 13 79 360 414 386 269 197 219 162 133 105 123 112 2 3 0 0 0 0 51 92 55 1 0 0 0 76 343 717 807 978 870 732 700 678 778 501 316 83 0 4
0 0 0 0 0 0 0 0 0 39 178 262 326 373 291 262 223 178 139 133 127 22 18 0 0 0 0 58 36 0 0 0 0 0 0 192 570 824 938 1058 933 613 700 826 785 477 158 0 0
0 0 0 0 0 0 0 0 0 0 24 76 201 372 365 361 327 310 215 201 154 59 29 0 0 0 0 17 11 0 14 0 0 0 0 5 311 658 827 1065 1006 889 675 768 715 720 214 0 0
0 0 0 0 0 0 0 0 0 0 0 0 51 309 346 342 341 295 291 257 282 163 54 22 20 33 0 18 31 0 19 0 0 0 0 0 84 402 733 982 985 968 847 668 728 746 602 435 44
0 0 0 0 0 0 0 0 0 0 0 7 54 192 240 151 112 340 220 316 333 255 90 61 61 68 48 33 47 63 35 8 15 0 0 93 150 258 407 832 893 910 1071 1014 776 689 791 770 744
0 0 0 0 0 0 0 0 0 0 0 0 2 114 79 112 108 137 293 228 220 225 147 130 119 174 116 54 101 141 123 95 59 32 9 0 74 241 288 375 684 861 954 1310 1163 950 866 961 701
0 0 0 0 0 0 0 0 0 0 0 0 0 72 130 103 102 177 302 213 136 162 175 100 134 210 209 130 171 207 201 189 193 117 50 7 72 134 255 321 480 647 801 1223 1366 1206 999 1161 1054
0 0 0 0 0 0 0 0 0 0 0 0 0 6 67 132 151 144 195 269 184 128 254 192 131 163 244 317 260 259 311 311 332 300 235 196 100 95 218 294 425 746 817 1074 1304 1386 1261 1060 1280
0 0 0 0 0 0 0 0 0 0 0 0 0 0 9 91 232 279 110 249 238 137 206 310 235 179 188 327 352 365 433 500 539 435 334 261 269 303 167 295 530 655 1008 1102 1221 1275 1372 1235 1091

GFSSGP_con_mlcape_054.txt.gz
CAPE
23 31 6 20 23 47 21 33 61 16 26 11 0 3 9 28 8 0 0 0 1 46 595 1057 1149 1265 1422 1509 1334 1845 1762 1774 1665 1750 1866 1783 1707 1684 1572 1684 1580 1269 1412 1582 1108 919 971 767 795
17 5 6 94 12 8 12 46 45 16 123 8 7 17 10 11 0 3 0 4 144 502 738 1044 1048 1389 1444 1448 1412 1729 1590 1688 1870 1855 1745 1733 1644 1674 1295 1513 1707 1643 1346 1332 1460 1084 1066 989 1071
9 19 81 102 10 5 18 96 57 69 22 4 14 10 1 1 2 0 0 103 423 783 825 1090 1090 1443 1387 1727 1824 1356 1422 1913 1952 1668 1704 1506 1644 1649 1767 1740 1572 1445 1127 1151 1075 1131 1055 997 938
5 46 62 8 1 21 55 37 114 107 94 36 5 3 0 5 3 0 57 314 514 810 996 1349 1299 1544 1298 1607 1821 1294 1516 1864 1878 1938 1562 1667 1676 1600 1664 1627 1744 1327 808 1161 1215 1264 998 732 735
19 90 0 2 14 34 53 108 196 158 158 23 0 2 3 5 0 8 164 395 630 662 1008 1217 1283 1832 1361 1477 1942 1302 1639 1864 1867 1701 1762 1688 1347 1518 1585 1546 1589 1754 1509 1400 1385 1350 872 922 978
324 3 0 0 1 20 56 75 386 208 49 1 0 0 7 8 0 52 282 507 668 419 923 1243 1253 1730 1377 1251 1731 1383 1635 1817 1802 1498 1576 1883 1845 1854 1730 1597 1532 1524 1462 1410 1229 862 862 900 764
67 0 0 0 7 49 60 5 331 187 35 10 0 0 6 4 7 184 319 660 633 862 971 1093 1268 1305 1284 1155 1440 1320 1538 1646 1679 1693 1627 1858 1861 1856 1815 1745 1665 1551 1399 978 909 829 785 886 950
126 0 0 0 4 43 48 53 191 221 48 0 0 0 1 3 28 167 357 515 633 898 1036 901 1201 1131 1194 1291 1314 1226 1469 1560 1628 1671 1679 1771 1869 1823 1600 1309 1449 1480 1308 968 798 626 613 905 1088
0 0 0 1 2 69 90 50 348 147 22 1 0 2 2 1 83 106 158 299 476 739 836 888 1009 941 1075 1259 1244 1309 1493 1590 1585 1506 1547 1356 1167 1175 1137 1192 1430 1359 1341 1174 1040 741 703 790 828
120 13 0 3 20 89 244 431 268 138 38 0 0 0 4 4 69 75 124 250 349 469 753 792 879 718 1056 1251 1278 1328 1456 1466 1363 1248 766 477 525 672 759 943 1322 1341 873 1180 940 749 680 390 638
288 50 26 1 31 0 184 196 289 133 48 0 0 0 3 21 83 76 99 155 351 512 775 788 795 661 895 1037 1094 1191 1301 1212 1010 708 349 468 709 896 752 755 290 34 152 311 324 191 289 226 343
115 206 183 45 82 11 45 141 337 247 199 50 0 0 0 5 77 81 78 133 303 489 644 700 721 393 698 800 804 812 917 882 598 304 0 349 641 701 489 342 26 2 28 204 385 549 593 503 517
12 106 92 175 135 49 13 145 440 287 181 34 0 7 0 0 66 106 129 141 337 401 474 518 543 176 297 317 518 432 504 463 419 313 0 319 494 476 302 110 181 211 315 291 303 437 195 40 47
0 25 43 37 44 54 21 0 106 215 40 32 0 1 4 0 23 226 340 129 140 191 218 395 292 47 88 9 39 79 190 265 426 380 84 1 148 212 101 109 305 407 379 434 297 299 134 38 30
0 0 0 0 5 0 19 15 82 92 22 0 0 0 0 9 26 144 268 204 106 85 131 137 92 1 0 0 0 1 16 155 302 287 203 4 67 109 162 370 406 481 503 283 282 461 195 46 15
0 0 0 1 12 21 75 49 146 95 44 11 0 0 0 0 22 83 236 255 239 94 44 63 64 0 0 0 0 0 0 111 218 260 264 227 235 370 581 372 491 507 398 484 388 402 31 52 15
0 0 0 0 0 32 77 54 192 110 33 2 0 0 0 0 30 79 125 215 260 124 20 0 0 0 0 0 0 0 0 118 181 228 276 345 397 119 593 523 506 450 499 682 413 262 106 61 42
0 0 0 0 0 0 6 56 207 161 73 3 0 0 0 0 1 77 87 140 216 181 59 0 0 0 0 0 0 22 0 0 68 164 325 353 470 335 591 395 455 316 210 483 388 317 136 137 89
0 0 0 0 0 0 13 63 184 201 119 29 0 0 0 0 0 56 64 99 129 87 40 17 0 0 0 0 6 34 66 152 207 141 408 481 574 593 557 310 345 142 378 496 325 0 30 31 42
0 0 0 0 0 0 0 15 195 222 176 156 115 51 19 4 0 28 58 61 100 28 11 15 0 0 0 0 0 17 108 69 208 276 537 674 683 834 473 334 238 29 516 447 266 0 0 11 16
0 0 0 0 0 0 0 0 68 270 284 143 97 81 71 87 80 24 28 61 43 48 0 0 9 0 0 0 2 10 7 9 37 136 357 565 683 917 757 503 400 389 618 534 489 0 11 4 8
0 0 0 0 0 0 0 0 0 120 139 200 177 147 87 84 102 78 39 46 37 15 0 0 0 0 0 0 0 26 135 102 23 43 100 395 579 730 858 743 394 483 664 536 321 301 0 0 0
0 0 0 0 0 0 0 0 0 9 28 120 223 178 157 88 89 107 79 45 50 0 0 0 0 0 0 0 0 0 0 0 0 0 0 126 349 599 753 840 807 676 646 610 613 378 110 0 0
0 0 0 0 0 0 0 0 0 0 0 131 244 264 228 159 121 128 89 50 25 0 0 0 0 0 0 0 0 0 0 0 0 0 0 0 121 339 605 872 887 930 671 641 567 660 335 0 0
0 0 0 0 0 0 0 0 0 0 0 18 47 188 288 269 159 121 111 74 44 27 3 0 0 0 0 0 0 0 0 0 0 0 0 0 0 120 346 643 826 926 853 785 684 699 623 48 0
0 0 0 0 0 0 0 0 0 0 0 9 80 194 237 312 250 185 114 123 90 68 47 27 0 0 0 0 0 0 0 0 0 0 0 0 0 0 197 426 709 885 983 916 687 576 772 607 271
0 0 0 0 0 0 0 0 0 0 0 0 2 50 122 266 265 257 259 182 145 100 45 38 3 0 9 7 0 0 0 0 0 0 0 0 0 0 61 272 457 701 832 848 922 818 651 712 724
0 0 0 0 0 0 0 0 0 0 0 0 0 0 18 190 253 240 255 247 214 160 114 16 22 0 21 5 10 20 10 0 0 0 0 0 0 0 115 270 423 482 696 807 957 1164 1060 823 771
0 0 0 0 0 0 0 0 0 0 0 0 0 0 33 143 225 130 78 175 185 225 188 72 36 7 0 31 56 61 81 38 23 0 5 3 0 0 10 181 256 312 387 528 725 944 1328 1223 1045
0 0 0 0 0 0 0 0 0 0 0 0 0 0 17 49 101 142 120 84 105 184 220 123 75 56 72 91 104 131 144 120 59 50 49 20 17 0 0 128 218 285 360 497 659 771 1198 1367 1353

GFSSGP_con_mlcape_057.txt.gz
CAPE
7 20 12 24 20 29 24 33 72 35 38 17 0 1 5 25 16 6 0 2 13 130 697 749 1538 1326 1427 1553 1734 1804 1888 1839 1846 1825 1895 1700 1540 1788 1887 1614 1381 1380 1672 1086 1029 1052 822 1098 1346
7 9 7 53 20 23 28 52 44 7 99 1 30 31 33 3 0 3 2 2 0 176 742 613 1509 1283 1531 1594 1746 1787 1837 1674 1835 1810 1887 1818 1634 1541 1710 1684 1522 1445 1620 1525 1209 1183 1095 1131 1249
7 2 56 51 43 45 35 83 121 12 9 0 54 27 23 5 3 0 4 6 15 420 820 721 1546 1297 1323 1718 1602 1640 1783 1867 1794 1803 1764 1666 1666 1392 1763 1649 1103 996 1263 1244 1288 1211 1202 1019 974
7 34 10 17 1 55 64 73 176 84 21 29 13 12 0 5 2 0 66 29 34 448 650 942 1656 1203 1808 1832 1187 1754 1750 1919 1853 1445 1455 1611 1652 1806 1553 1160 1253 1138 1271 1261 1319 1331 1149 1092 1204
21 98 0 12 18 36 99 124 245 194 139 48 0 0 2 10 4 23 175 69 123 253 741 811 1660 1257 1622 1788 1227 1662 1758 1740 1797 1633 1477 1346 1581 1583 1475 1358 1394 1018 1284 1245 1537 1026 1029 1094 986
160 5 0 4 34 48 92 125 420 312 87 5 0 0 5 14 12 119 183 121 198 487 503 703 1644 1347 1541 1726 1290 1776 1780 1778 1756 1645 1482 1616 1735 1700 1536 1629 1584 1508 1419 1182 1180 905 1014 1002 1077
24 10 0 0 18 74 139 99 330 211 98 30 0 0 5 16 42 145 216 331 278 462 524 678 1403 1278 1335 1747 1326 1660 1748 1717 1612 1556 1406 1723 1791 1806 1686 1683 1492 1164 1011 992 919 1054 1058 1038 1050
141 0 0 17 49 89 102 64 346 163 65 1 0 0 1 7 72 128 382 453 239 252 501 690 1217 722 681 936 1267 1492 1582 1653 1729 1672 1743 1775 1826 1759 1166 1156 1326 1124 920 810 854 898 1015 1125 732
0 1 0 2 15 109 89 169 312 70 14 0 0 0 0 7 118 109 447 418 129 258 419 584 919 990 1080 1020 943 1347 1479 1572 1579 1513 1639 1454 1646 1331 989 892 1041 882 1118 1103 964 928 935 1139 1081
100 25 5 0 30 97 148 392 265 167 39 3 0 0 0 23 96 68 202 114 48 289 331 445 722 731 895 742 1042 1258 1227 1105 1212 1433 1374 1246 1323 1303 1002 971 1027 1089 1165 1217 1224 1055 986 882 1026
137 157 21 15 18 360 429 424 312 209 107 51 0 3 11 25 50 10 46 10 9 280 202 503 716 820 925 849 1198 1148 1224 1185 1282 1309 829 991 1236 1422 1027 1099 587 526 617 670 575 717 759 890 890
103 256 252 166 92 23 91 214 437 278 278 94 0 0 2 9 27 2 5 34 78 228 309 431 695 714 923 978 993 1064 1045 1095 1086 970 513 1035 1247 1192 925 814 301 281 707 1095 1263 1355 1363 1260 1121
8 162 153 185 188 134 35 160 418 384 291 53 5 0 0 10 7 0 13 85 99 122 549 427 736 666 901 1009 966 971 1069 947 870 755 53 854 1143 1173 746 618 647 992 1018 1070 1156 1012 666 492 604
4 0 93 99 121 70 106 41 319 250 122 41 0 0 0 4 5 0 26 83 129 221 325 494 666 584 771 647 882 796 895 796 801 837 150 339 832 946 589 581 948 1122 1108 998 1036 964 604 286 514
0 0 0 0 3 88 26 69 107 139 93 46 5 0 0 16 0 0 13 94 236 332 377 460 553 473 404 395 436 487 495 520 765 890 645 139 246 494 642 1030 1050 1238 1247 753 1030 1108 658 106 315
0 0 0 12 0 0 30 139 206 134 106 48 30 17 0 8 0 18 39 70 175 246 372 503 237 208 195 179 132 213 187 379 713 810 689 374 677 927 1088 1060 1132 1226 1117 1171 469 489 506 207 168
0 0 0 15 0 51 101 191 369 139 133 70 38 28 0 0 0 46 85 115 99 175 348 334 324 145 61 55 80 46 63 237 567 727 791 843 771 529 1223 1203 1316 1258 1323 1229 1117 831 370 211 104
0 0 0 5 33 9 97 166 324 139 152 95 56 29 6 0 0 35 81 155 233 192 289 248 179 124 0 96 102 50 13 174 462 569 667 903 965 1000 974 1236 1187 1047 874 709 954 886 734 370 96
0 0 0 0 1 40 61 43 249 272 137 113 64 30 19 1 0 8 62 147 230 352 242 178 62 24 0 0 23 72 104 227 340 593 763 924 940 1071 1095 1177 1104 782 675 479 595 451 233 355 41
0 0 0 0 0 1 21 33 205 317 227 148 82 42 22 3 0 10 69 89 158 271 294 160 82 22 0 0 109 305 426 516 813 861 801 1070 1034 1211 1247 941 939 767 882 761 710 196 28 81 75
0 0 0 0 0 0 0 5 20 352 391 272 43 7 4 5 6 19 64 80 102 191 310 230 186 177 0 60 189 216 346 322 446 693 886 969 1202 1325 1355 990 1011 695 705 750 781 173 18 47 86
0 0 0 0 0 0 0 0 0 124 219 279 265 134 3 0 0 0 40 70 98 207 179 186 257 243 129 49 90 72 166 299 450 635 723 1009 1188 1262 1485 1395 1016 1010 918 673 1151 773 277 15 40
0 0 0 0 0 0 0 0 0 18 191 233 384 321 233 112 14 8 13 33 68 77 121 46 127 200 171 95 108 146 215 359 547 412 531 803 1036 1195 1430 1488 1328 1159 1007 774 1133 978 767 117 19
0 0 0 0 0 0 0 0 0 0 9 204 484 480 379 276 234 215 83 34 0 25 68 0 13 61 117 138 81 95 144 245 303 313 315 428 773 1014 1225 1410 1508 1630 1379 1178 1237 1289 1006 519 11
0 0 0 0 0 0 0 0 0 0 0 50 182 269 423 425 292 294 261 126 55 60 53 28 0 40 83 136 111 65 117 165 82 227 208 232 388 751 979 1199 1365 1402 1552 1478 1336 1343 1398 1034 313
0 0 0 0 0 0 0 0 0 0 0 0 99 196 398 504 399 348 339 251 138 128 134 67 42 60 46 80 166 170 164 162 142 213 170 184 131 303 799 913 1185 1318 1625 1600 1571 1519 1495 1466 1059
0 0 0 0 0 0 0 0 0 0 0 0 0 154 310 497 490 414 412 309 206 145 204 132 130 89 72 58 150 230 227 218 197 201 222 188 174 105 400 478 725 1039 1324 1569 1674 1611 1554 1395 1529
0 0 0 0 0 0 0 0 0 0 0 0 0 31 117 338 533 532 455 420 244 166 176 168 150 111 135 83 123 210 235 289 269 299 155 191 219 124 58 267 706 947 1141 1407 1611 1554 1775 1751 1582
0 0 0 0 0 0 0 0 0 0 0 0 0 0 21 113 261 483 589 517 393 220 243 226 143 183 177 136 138 183 266 326 339 293 307 279 243 271 240 225 460 827 1061 1252 1424 1405 1668 1887 1963
0 0 0 0 0 0 0 0 0 0 0 0 0 0 2 46 177 382 533 551 490 423 332 269 228 233 205 202 159 142 266 326 344 315 360 394 301 315 340 378 454 724 883 1055 1194 1069 1228 1533 1772

GFSSGP_con_mlcape_060.txt.gz
CAPE
0 0 26 23 26 41 129 146 184 187 30 24 2 0 20 97 182 347 150 354 374 471 469 891 1272 1439 1695 1748 1829 1923 1941 1910 1856 1862 1867 1856 1982 2101 1904 1633 1285 1746 1137 1182 1120 958 1338 1309 1011
4 8 4 62 53 169 94 247 250 61 59 12 17 14 91 68 38 77 231 320 438 501 357 1000 1253 1458 1744 1995 1929 1963 1981 1992 1996 2031 1888 1713 1903 1903 1877 1553 1546 1624 1363 1330 1293 1129 1142 1396 1277
8 23 53 147 201 223 47 371 156 23 10 55 72 152 249 237 50 59 235 265 313 170 161 1185 1436 1501 1871 1815 1857 1808 1839 1918 2045 1939 1828 1675 1628 1795 1451 1554 1327 1441 1386 1462 1401 1290 1172 1215 1384
9 136 212 219 69 216 69 424 205 122 16 57 103 132 43 40 18 107 199 279 319 159 163 1239 1459 1358 1911 1654 1791 1891 1868 1985 1795 1909 1756 1788 1475 1457 1356 1298 1319 1348 1331 1415 1503 1411 1165 1207 1048
164 266 89 128 24 40 268 399 365 279 134 161 149 176 3 8 10 120 147 285 201 76 236 1267 1389 1631 1623 1293 1631 1766 2014 1992 1649 1743 1738 1578 1553 1556 1293 1270 1136 1349 1335 1528 1208 1159 1250 1278 1257
267 284 100 4 26 204 400 460 525 461 415 193 234 130 17 6 15 119 139 111 29 28 102 1100 1308 1721 1739 1314 1819 1720 1816 1736 1754 1656 1585 1646 1789 1627 1748 1725 1637 1450 1334 1439 1078 1081 1034 1154 1337
223 261 217 98 174 403 529 584 519 701 426 152 206 384 42 43 36 76 73 8 14 14 111 901 566 1395 1552 1370 1698 1722 1810 1775 1618 1543 1329 1797 1805 1726 1565 1469 1251 1206 1128 908 1141 993 740 802 1143
640 39 88 120 254 434 338 609 691 598 481 226 122 219 41 75 85 53 31 12 22 21 112 693 445 606 1324 733 1626 1688 1791 1795 1693 1406 1531 1780 1617 1142 1036 553 1082 1003 939 905 1079 849 800 933 992
184 119 117 90 104 522 318 588 555 488 330 215 151 219 135 44 127 40 36 18 33 21 90 544 242 425 664 825 1293 1472 1658 1760 1705 1673 1410 1293 789 743 881 752 1056 1148 1053 895 986 861 808 984 1195
168 235 291 35 207 216 297 686 662 516 348 219 145 108 45 72 121 86 28 10 8 11 42 243 182 404 613 430 853 910 855 855 988 987 1148 973 1014 1049 806 794 1001 1212 1294 1301 1165 1050 745 1086 780
186 273 145 153 365 456 317 686 668 615 416 357 280 100 52 97 193 111 16 3 0 2 9 152 230 435 519 501 745 807 867 808 1061 1281 1015 983 965 699 885 614 788 652 999 603 896 1009 933 985 752
11 137 415 336 157 523 603 671 667 579 595 466 275 132 66 125 111 80 7 1 0 1 1 111 232 421 631 617 664 667 635 590 572 840 1369 1239 1103 1055 866 603 654 904 983 1293 982 820 1294 1231 1220
0 121 325 373 237 224 200 386 713 656 656 408 235 120 86 104 48 37 40 0 0 0 0 54 205 445 727 664 668 560 599 688 708 1089 898 1062 997 991 808 841 934 937 1037 841 859 703 737 891 1176
0 0 34 262 371 252 300 260 495 670 524 374 201 109 89 86 9 20 27 0 0 0 0 38 206 414 744 745 875 758 828 950 930 859 580 1478 1200 1236 818 1022 1040 901 952 735 666 577 237 357 648
0 0 0 0 271 323 289 280 261 590 456 398 245 120 76 85 13 5 0 0 0 0 32 36 198 311 630 791 991 817 775 601 747 847 915 768 1312 1472 1207 1040 1040 958 1178 1247 1022 899 629 54 185
0 0 0 3 148 247 178 280 305 538 487 440 296 150 75 76 12 10 9 0 0 0 42 93 42 120 399 486 724 468 493 609 681 851 868 752 1194 1524 1536 923 990 1262 1065 668 469 97 102 74 123
0 0 0 258 169 253 176 333 588 478 530 518 340 182 111 76 39 8 6 0 0 40 111 112 41 34 116 275 356 369 559 764 865 990 995 1268 1337 1495 1462 1024 1244 1096 1053 484 414 277 190 77 118
0 0 0 57 157 222 279 371 591 542 571 565 426 223 161 152 92 23 9 0 0 72 177 138 50 0 100 124 206 191 372 675 921 1034 1109 1468 1337 1484 1653 1433 1355 980 549 612 562 648 294 277 198
0 0 0 0 141 218 292 283 634 488 530 508 506 347 202 156 139 68 32 18 0 0 139 184 55 87 140 68 44 138 249 537 777 863 1234 1576 1465 1653 1823 1259 1423 1265 587 412 1015 1124 847 79 39
0 0 0 0 3 152 252 211 216 646 439 534 553 476 264 205 129 63 115 61 0 12 46 215 181 181 273 0 19 39 291 513 671 983 1370 1603 1611 1742 1615 1539 1359 1071 627 878 1117 811 202 323 75
0 0 0 0 0 1 165 216 183 314 578 501 489 490 353 234 207 84 134 75 45 57 148 215 344 256 305 0 0 455 657 892 1097 1139 1054 1424 1683 1768 1743 1853 1555 1200 745 819 911 589 248 108 243
0 0 0 0 0 0 19 113 100 148 541 565 479 458 419 291 206 148 123 127 78 95 201 313 451 454 392 77 0 440 472 225 228 564 560 968 1665 1681 1857 1902 1806 1401 878 1085 742 599 334 298 76
0 0 0 0 0 0 0 39 77 121 233 599 582 451 368 326 226 144 154 237 125 92 194 437 617 694 491 402 56 209 345 0 179 429 886 1227 1783 1802 1688 2025 2022 1574 960 1201 1085 1063 801 68 63
0 0 0 0 0 0 0 0 0 33 83 186 554 537 474 317 236 190 140 202 251 166 114 363 779 918 887 782 298 215 201 116 144 583 715 733 845 1304 1772 1942 2121 2090 1481 1125 1136 1231 1424 1010 684
0 0 0 0 0 0 0 0 0 15 78 85 218 503 576 561 353 203 143 117 276 264 249 326 655 999 962 842 603 189 285 570 530 760 529 420 374 605 962 1859 2063 1864 2152 1800 1463 1651 1514 1454 1015
0 0 0 0 0 0 0 0 0 0 1 6 100 387 660 716 640 574 329 176 131 273 290 342 460 875 894 801 942 618 704 439 608 752 495 483 287 297 547 1629 1670 1881 1915 2037 1978 1523 1491 1498 1416
0 0 0 0 0 0 0 0 0 0 0 0 1 114 208 398 581 646 723 673 426 232 358 440 615 757 781 658 1094 1081 906 674 385 621 714 550 634 347 472 779 1492 1402 1550 1861 1827 1639 1943 1854 1620
0 0 0 0 0 0 0 0 0 0 0 0 0 0 61 192 521 647 755 812 750 476 379 429 516 735 681 595 894 899 807 940 771 750 861 840 582 761 433 679 885 891 1068 1630 1972 1677 1980 2269 1924
0 0 3 0 0 0 0 0 0 0 0 0 0 0 1 187 561 668 747 777 842 692 430 505 539 626 704 658 770 726 716 772 993 853 1016 1165 1025 866 1125 734 653 653 1240 1587 1894 1793 1526 2145 2350
0 10 0 11 0 0 0 0 0 0 0 0 0 0 0 17 187 565 644 720 803 824 602 470 553 609 663 730 978 846 894 844 740 984 1021 1192 1279 1164 1254 1136 967 615 820 1320 1826 1782 1272 1663 1902

GFSSGP_con_mlcape_063.txt.gz
CAPE
0 0 12 1 25 133 159 74 375 173 184 129 50 99 226 301 244 398 258 520 450 616 586 897 1259 1520 1711 1754 1713 1672 1656 1809 1905 1876 1910 2105 1900 2022 1739 1291 1768 1202 1374 1105 1108 1416 1239 1145 1677
6 10 29 341 241 337 9 312 307 173 163 83 3 130 222 206 221 261 360 393 397 481 529 587 1134 1704 1756 1806 1990 1990 2023 2039 2044 1925 1803 1884 1964 1878 1667 1554 1501 1351 1444 1339 1119 1287 1098 1206 1527
31 9 265 346 572 123 203 474 494 263 121 173 319 231 540 207 311 315 393 392 378 201 159 761 1191 1723 2030 1950 1997 1988 1947 1894 1880 1929 1832 1786 1575 1516 1532 1453 1470 1437 1594 1298 1346 1216 1306 1531 1179
11 173 364 462 286 433 137 351 218 21 146 237 204 365 263 296 260 294 447 381 175 271 208 1036 1390 1805 1808 1878 1861 1868 1911 1823 1956 1888 1782 1637 1555 1532 1451 1488 1436 1372 1503 1459 1383 1330 1236 1175 1287
80 330 377 366 340 176 27 374 139 129 229 240 471 425 228 80 233 256 289 214 97 244 256 1048 1534 1731 1728 1864 1865 1831 1850 1577 1783 1699 1724 1609 1597 1367 1366 1346 1462 1407 1426 1198 1256 1344 1439 1265 1372
182 423 313 294 59 287 408 528 343 255 369 445 536 236 206 161 148 248 258 394 60 39 193 418 1562 1543 1505 1561 1697 1845 1753 1741 1675 1687 1582 1523 1635 1901 1805 1622 1416 1358 1477 1190 1142 1158 1300 1382 1371
221 378 194 61 82 450 596 656 596 386 513 472 553 770 155 152 123 150 290 95 58 47 190 472 1135 1403 1480 1652 1664 1758 1765 1800 1833 1602 1735 1693 1631 1623 1536 1346 1330 1180 910 1152 870 886 1201 1354 1551
473 634 230 226 302 394 593 652 497 568 498 418 651 553 133 160 109 110 149 67 55 90 108 189 570 1092 561 1405 1586 1690 1791 1697 1495 1372 1641 1576 1246 765 664 1061 1148 1062 920 1128 916 956 1086 1262 1331
399 348 219 242 309 515 452 663 702 537 585 503 484 541 228 94 115 124 35 53 55 57 120 51 296 796 495 1192 1500 1634 1802 1733 1430 1394 1338 878 749 1020 1056 621 1232 1053 903 940 816 848 1126 1027 856
402 303 307 39 365 580 502 665 767 554 519 416 377 465 175 137 127 61 26 58 36 36 72 88 179 299 402 442 1040 1142 1096 802 948 663 1288 1257 1042 1136 498 618 1129 1212 1076 888 735 795 298 1010 938
178 458 374 253 634 518 553 675 602 495 301 408 435 261 128 155 110 37 21 34 21 20 80 60 118 177 168 484 848 546 956 591 872 780 779 521 469 573 391 801 794 908 1095 704 712 758 945 1230 765
25 96 304 306 636 389 498 480 529 511 369 318 499 324 177 195 102 61 38 21 14 12 42 47 99 276 298 182 488 527 486 295 459 797 1062 1074 1048 1001 859 933 845 916 773 685 703 775 788 861 512
0 23 412 481 395 516 398 327 437 514 445 470 420 315 169 224 108 90 61 25 7 6 21 36 97 317 613 659 750 459 212 211 644 870 1047 1005 1157 701 866 665 538 955 697 427 293 334 670 882 769
0 0 128 458 369 325 166 169 301 609 571 540 379 303 217 258 175 73 65 20 4 3 10 27 138 400 554 548 664 376 207 1022 526 803 772 1445 1195 965 777 856 644 673 448 732 715 621 411 579 609
0 0 0 21 357 311 252 195 143 504 591 601 389 321 169 177 232 100 92 8 2 0 2 11 132 355 564 882 681 332 432 609 631 1054 1306 1253 1488 1435 1272 976 390 717 867 1097 625 108 36 125 369
0 0 0 0 81 373 288 291 168 631 621 657 376 320 240 190 239 149 126 15 6 1 0 3 9 277 498 753 691 557 390 544 558 658 1102 1082 1421 1459 1138 821 743 617 547 458 414 92 282 66 154
0 0 0 0 0 98 287 203 7 507 608 665 400 345 277 199 184 156 91 20 6 0 0 1 9 167 419 686 606 692 668 698 651 863 1000 1319 1589 1586 1471 969 1308 944 1024 268 179 7 140 72 27
0 0 0 0 132 117 303 228 85 644 531 692 485 341 309 273 223 134 64 33 2 0 0 0 35 161 422 631 607 466 574 611 703 855 1494 1518 1471 1548 1621 1168 1119 976 375 219 539 150 415 421 42
0 0 0 0 187 147 157 223 0 522 506 673 610 305 318 320 281 130 60 26 1 0 0 25 62 394 275 364 251 208 406 496 736 782 1243 1306 1452 1548 1755 1407 1288 1180 762 696 295 356 156 26 16
0 0 0 0 19 136 146 192 346 395 434 595 655 472 326 372 307 151 83 25 9 8 55 141 194 503 359 215 209 180 334 432 470 444 1145 1364 1248 1608 1459 1514 1377 1179 764 840 913 860 223 22 31
0 0 0 0 0 84 149 95 160 150 377 510 656 686 287 353 391 258 144 47 23 33 85 302 421 539 503 159 160 200 342 597 459 851 984 1322 1482 1656 1683 1745 1027 1185 1184 832 995 944 674 164 52
0 0 0 0 0 0 30 74 31 34 388 428 605 715 610 243 378 400 315 175 79 31 69 337 529 661 635 334 0 198 279 250 269 572 460 935 1406 1505 1748 1936 1878 1350 1155 1011 1055 702 701 380 66
0 0 0 0 0 0 0 2 105 108 327 327 529 663 659 510 305 358 367 352 166 38 101 123 701 836 560 505 154 116 484 134 186 255 1065 1007 1578 1516 1417 1872 1685 1770 1170 1185 1020 1307 1048 177 480
0 0 0 0 0 0 0 2 24 7 62 320 484 568 624 602 463 376 331 371 311 124 93 288 764 1076 1064 851 160 518 321 432 24 89 892 519 1161 1290 1378 1548 1782 1597 1443 1544 1425 1336 1228 1310 391
0 0 0 0 0 0 0 0 0 69 39 52 353 490 554 559 566 474 355 291 407 328 229 383 928 1290 1281 1186 463 567 751 466 775 726 476 349 174 327 1228 1556 1842 1924 1973 1630 1578 1701 1591 1502 985
0 0 0 0 0 0 0 0 0 0 37 57 6 399 483 522 514 555 484 369 466 499 491 513 960 1530 1524 1211 968 514 779 210 224 615 409 281 112 151 1640 1879 1486 1730 1986 1557 1711 1578 1532 1724 1437
0 0 0 0 0 0 0 0 0 0 0 18 0 198 302 498 541 508 575 501 501 574 681 628 840 1510 1662 1126 1493 1523 848 249 43 531 909 990 555 316 264 878 1564 1409 1292 1691 1676 1437 1932 1322 1902
0 0 0 0 0 0 0 0 0 0 0 0 2 44 84 329 590 681 693 561 500 576 609 728 898 1550 1552 1335 1557 1509 1283 1041 691 1123 1569 943 929 829 667 683 786 1351 1354 1362 1925 1517 1681 1966 1740
0 0 0 4 0 0 0 0 0 0 0 0 0 0 103 544 512 632 733 864 629 516 581 676 850 1132 1295 1449 1490 1223 1303 931 953 1475 1510 1411 1296 1446 1234 1194 1079 1062 1223 1284 1979 1798 1731 2105 1969
0 0 0 19 4 0 0 0 0 0 0 0 0 0 0 35 324 491 631 863 974 964 708 625 659 763 1121 1267 1461 1339 1505 1041 1015 1210 1358 1719 1814 1754 1723 1708 1489 1301 916 1305 2055 1820 1398 1835 1818

GFSSGP_con_mlcape_066.txt.gz
CAPE
0 0 0 48 10 201 240 216 89 141 104 28 97 141 249 251 426 216 49 103 389 641 954 1014 1121 1437 1557 1781 1596 1617 1925 1961 1870 1793 1889 2110 1792 1463 1318 1590 1278 1498 930 1202 1437 1222 1435 1747 1827
0 0 16 110 35 164 72 150 260 139 128 17 71 166 193 221 137 45 272 350 410 703 892 988 993 1347 1593 1663 1755 1681 1676 1792 1854 1819 1945 1625 1525 1533 1532 1468 1282 1562 1282 1152 1448 1303 1278 1663 1712
4 20 36 211 374 3 117 29 137 124 54 76 182 335 253 175 163 286 296 209 365 316 515 840 1328 1476 1655 1785 1817 1969 1985 1903 1968 1813 1734 1474 1523 1572 1386 1382 1496 1474 1415 1386 1319 1546 1612 1273 1720
103 77 129 222 325 9 135 92 294 136 183 329 196 245 120 213 226 173 190 205 33 34 416 916 1448 1706 1869 1550 1860 1968 1933 1990 1646 1758 1677 1649 1655 1589 1610 1515 1387 1580 1483 1365 1421 1322 1311 1361 1208
24 115 160 486 387 108 291 237 80 207 216 333 372 126 97 199 198 177 60 115 38 190 537 888 1621 1627 1695 1769 1756 1918 1771 1868 1800 1712 1656 1587 1506 1479 1497 1509 1405 1379 1309 1355 1469 1462 1331 1396 1268
33 314 312 389 155 78 249 223 80 170 324 329 195 58 91 166 132 99 108 117 117 132 298 971 1489 1597 1710 1719 2019 1759 1728 1779 1526 1704 1683 1656 1789 1601 1388 1345 1386 1512 1255 1196 1309 1317 1315 1298 947
34 343 119 65 123 224 470 432 264 311 336 390 152 170 115 129 103 86 60 49 7 19 153 803 1004 1482 1611 1717 1796 1641 1745 1695 1766 1634 1783 1790 1686 1644 1579 1482 1111 1022 1126 913 1023 1298 1338 1367 747
288 319 278 94 33 3 159 531 440 384 399 450 482 169 89 132 113 114 115 25 12 18 186 772 663 756 1260 1496 1700 1779 1762 1676 1664 1846 1743 1186 1072 1015 1156 1095 1105 885 1152 919 1067 1241 1115 863 478
135 471 381 196 25 152 177 553 454 406 462 461 575 272 109 85 119 69 48 12 77 5 36 179 440 417 1115 1312 1633 1718 1655 1347 1301 1577 1091 731 1102 1238 1028 1117 1003 933 1069 1017 1143 1217 1239 985 643
3 454 458 201 188 1 431 506 408 405 380 480 614 304 103 51 90 119 15 1 70 15 0 41 554 482 1141 752 1303 1366 1208 1153 1094 1234 1005 1079 682 737 680 975 1103 839 1004 1083 538 0 764 1164 1067
2 16 283 105 218 127 167 463 326 334 252 414 418 173 84 60 69 20 19 7 18 24 27 71 476 325 317 445 1320 1322 1043 1244 1028 953 900 1086 977 634 357 557 797 847 950 768 600 600 434 820 908
2 18 35 35 469 415 214 284 254 96 246 491 370 136 114 59 49 9 18 24 15 28 38 93 51 200 365 468 879 617 957 1100 757 848 1038 1117 363 106 697 644 1125 643 800 1025 573 840 332 215 580
2 6 10 235 527 179 0 161 6 0 0 407 364 120 105 78 15 14 32 25 4 7 19 58 0 612 163 347 184 463 396 331 891 613 845 675 1074 641 828 325 473 380 914 586 352 1086 803 512 747
2 0 10 219 423 504 98 77 77 70 160 434 245 120 113 108 33 42 40 12 3 2 28 8 0 415 439 512 776 365 336 701 952 768 1128 434 1183 963 1138 301 580 181 502 308 786 282 867 269 453
0 0 0 1 411 371 218 129 154 306 236 238 348 186 138 133 73 50 39 12 0 1 27 0 11 351 540 389 821 217 673 817 360 1113 1245 1214 658 1234 970 445 389 137 1021 108 311 711 485 461 513
0 0 0 0 11 347 268 288 75 301 433 360 408 216 167 188 134 66 51 17 0 1 81 0 0 201 426 589 702 458 500 638 865 1142 1146 1286 910 1558 597 584 202 667 488 615 56 453 547 356 118
0 0 0 0 2 71 300 228 220 238 448 425 374 265 186 256 166 83 56 13 8 0 16 0 50 265 288 475 284 519 657 811 541 973 1252 1233 1295 1486 1105 390 791 142 820 970 239 5 279 241 240
0 0 0 0 0 20 110 192 92 27 257 332 353 329 180 164 249 130 66 8 15 4 0 0 288 426 366 1012 725 571 592 417 862 818 1316 1518 1480 1448 634 921 1019 1062 115 168 676 44 496 87 59
0 0 0 0 0 28 34 90 54 69 80 151 246 428 257 191 290 198 84 0 17 5 0 0 195 645 516 714 730 511 401 572 372 553 1194 1531 1497 1503 528 906 882 1185 196 66 695 760 314 28 59
0 0 0 0 0 56 167 30 1 0 3 26 258 324 382 254 165 159 98 0 5 6 0 151 122 680 406 935 692 373 572 534 526 743 1444 1139 1475 1663 1419 1158 1188 702 1074 895 939 18 122 20 40
0 0 0 0 0 52 59 48 27 0 0 78 404 212 330 351 252 153 88 19 2 0 46 199 161 731 448 582 429 519 705 968 570 1458 1349 1433 1323 1601 1482 1371 1249 963 786 874 1123 1143 179 60 148
0 0 0 0 0 0 7 82 0 8 90 5 11 285 271 356 296 203 96 54 0 46 238 230 510 1007 372 563 203 298 301 379 371 1203 1277 1183 1637 1651 1658 1674 1678 1143 993 522 893 799 855 35 364
0 0 0 0 0 0 0 1 59 98 4 0 0 255 155 246 292 237 111 87 0 118 245 396 518 940 551 366 582 361 302 387 907 350 1169 1442 1487 1763 1868 2060 1730 1124 1195 866 1255 985 904 1057 455
0 0 0 0 0 0 0 0 0 157 9 0 0 90 175 86 257 389 191 123 34 98 180 536 551 702 728 267 475 446 166 750 414 267 1011 1612 1591 1598 1782 1935 1423 1667 1347 1196 1417 1444 970 1287 1067
0 0 0 0 0 0 0 0 0 13 92 0 0 254 359 261 231 456 449 336 177 61 166 352 684 660 805 725 168 946 231 369 867 821 1040 739 1457 1138 1550 1993 1411 1403 1529 1423 1517 1352 1664 1373 1544
0 0 0 0 0 0 0 0 0 0 153 102 44 86 18 468 392 420 550 563 419 262 133 299 796 834 880 1135 238 374 957 332 588 1091 369 993 409 948 1373 1502 1799 1855 1663 1822 1598 1378 1775 1478 1421
0 0 0 0 0 0 0 0 0 0 0 280 75 1 0 31 525 509 599 563 732 542 304 391 746 1004 1182 940 1175 212 1056 953 397 616 872 652 671 841 1730 1598 2013 2328 1968 1528 1553 1346 1209 1495 1492
0 0 0 0 0 0 0 0 0 0 0 0 117 42 90 72 28 140 670 623 749 719 667 465 823 1156 1392 1165 1400 1042 266 910 627 138 906 781 871 346 1945 2160 1843 1507 2020 1934 1839 1709 1381 1436 1344
0 0 0 0 0 0 0 0 0 0 0 0 159 61 0 0 0 72 9 747 654 748 862 756 752 1341 1645 1649 1363 1278 1056 591 376 650 220 1090 812 1787 870 1504 1498 1908 1545 2027 1901 1423 1844 1768 1494
0 0 0 0 0 0 0 0 0 0 1 0 0 102 103 9 21 0 0 52 725 732 774 966 909 1164 1669 1849 1634 1470 1650 1116 804 192 1173 1671 1944 1273 2216 1404 1799 1434 1720 1824 1776 1863 1478 1861 1488

GFSSGP_con_mlcape_069.txt.gz
CAPE
0 0 0 0 0 25 65 87 114 35 76 120 172 155 99 156 134 0 26 125 153 298 457 1115 1314 1344 1415 1317 1562 1845 1822 1848 1667 1542 1849 1802 1584 1670 1631 1419 1531 929 1542 1347 1348 1685 1843 1764 1863
0 0 1 25 9 22 53 66 240 48 56 144 243 179 143 71 8 0 53 152 354 603 672 852 993 1371 1579 1483 1522 1753 1909 1851 1672 1862 1679 1739 1478 1654 1560 1550 1630 1192 1280 1348 1351 1420 1633 1830 1629
0 6 6 25 51 7 38 42 117 86 72 212 251 134 92 1 6 13 134 292 538 556 767 788 1035 1280 1422 1678 1842 1797 1875 1669 1740 1710 1711 1540 1471 1559 1308 1722 1381 1508 1287 1417 1440 1415 1519 1693 1657
4 36 18 2 43 0 81 3 72 140 183 124 47 17 3 61 105 88 192 414 352 625 631 1359 1107 1637 1589 1730 1701 1701 1870 1841 1784 1802 1644 1699 1612 1607 1545 1485 1582 1363 1348 1395 1311 1247 1430 1181 1332
77 17 19 73 147 132 21 39 11 217 238 123 47 46 91 61 23 87 189 76 272 307 860 1356 1588 1653 1660 1710 1750 1872 1905 1820 1703 1728 1640 1568 1530 1565 1477 1295 1506 1293 1510 1565 1333 1256 1247 1146 1023
14 65 49 102 110 182 225 166 169 228 264 131 69 80 92 16 0 41 81 52 223 179 946 1280 1482 1629 1741 1659 1643 1700 1719 1747 1689 1714 1527 1556 1348 1369 1330 1265 1557 1338 1304 1365 1306 1274 1116 827 869
8 52 113 48 35 136 124 125 212 284 151 74 61 82 72 2 1 24 8 45 95 312 868 1101 1433 1399 1659 1656 1614 1730 1744 1654 1759 1673 1871 1876 1820 1584 1360 1173 1253 1158 1039 1175 1322 1310 1011 575 664
128 160 139 147 39 7 23 235 279 349 319 82 52 32 49 17 14 22 6 27 89 469 715 456 1277 1161 1392 1561 1540 1598 1678 1784 1679 1748 1389 1136 1285 1216 1245 1065 1112 1067 987 1094 1197 1139 916 586 651
28 57 89 156 0 0 1 185 392 352 213 208 205 25 33 0 4 4 0 17 31 232 574 150 897 974 1143 1226 1602 1740 1613 1674 1757 1504 841 932 942 978 1120 938 1101 1080 999 1142 1089 883 1083 773 672
20 0 137 1 4 1 21 92 371 350 495 410 105 46 22 0 7 23 9 0 20 206 283 56 413 892 714 1289 1194 1163 1103 974 544 514 463 795 859 475 713 1026 1018 1032 968 913 246 440 727 1071 900
8 2 26 75 10 197 157 137 110 312 358 263 104 50 22 1 23 7 2 0 0 5 5 81 428 564 666 302 916 713 703 867 944 844 723 881 556 305 393 736 838 825 901 546 165 182 432 621 780
0 5 15 86 168 353 143 170 13 102 192 237 107 41 37 61 51 1 10 4 0 0 36 115 156 559 412 395 920 830 753 1029 863 374 779 424 69 293 606 540 645 311 431 463 164 131 259 351 533
0 4 11 24 193 441 240 90 0 63 103 212 98 11 28 45 47 1 0 2 0 2 34 30 98 243 170 442 877 690 662 891 709 593 463 529 543 263 620 526 83 206 552 516 377 415 264 465 429
0 0 3 40 232 170 67 34 0 8 127 186 82 0 24 34 55 3 2 5 8 17 13 2 205 156 161 232 248 133 461 677 537 366 0 300 587 860 361 237 210 193 507 568 495 482 380 291 475
0 0 0 6 351 345 224 141 157 66 155 162 102 38 20 12 27 10 5 0 1 16 4 1 179 75 379 193 317 273 264 571 687 692 252 377 519 765 656 533 376 80 610 192 489 866 732 388 349
0 0 0 0 8 379 315 198 375 84 241 194 153 82 36 58 0 11 3 0 2 1 0 0 116 508 149 121 944 490 285 206 834 946 947 841 836 578 623 265 201 868 974 486 111 371 378 328 498
0 0 0 0 0 25 253 205 297 34 29 207 84 61 59 99 25 23 2 0 0 0 0 0 0 279 143 220 428 266 162 629 934 939 1114 958 1320 989 554 285 470 253 598 438 298 71 235 300 351
0 0 0 0 0 1 249 294 141 64 232 251 198 101 42 93 179 76 13 0 0 4 0 0 0 153 73 191 47 398 455 503 855 1039 797 1267 1164 832 736 538 744 203 285 251 341 100 127 72 127
0 0 0 0 0 0 154 261 93 8 5 308 261 142 20 130 217 120 4 0 0 12 0 0 10 136 111 125 11 378 467 289 675 1156 1107 1260 1267 545 0 664 967 758 45 116 239 659 55 49 112
0 0 0 0 0 18 201 276 116 18 138 129 14 212 57 157 240 110 14 4 0 3 0 0 25 141 333 339 215 319 320 415 321 358 854 1162 1400 891 648 743 998 609 421 528 491 79 35 16 12
0 0 0 0 0 27 176 190 81 34 11 6 130 35 116 136 189 230 33 2 0 0 0 0 219 178 279 328 184 346 639 491 511 472 716 1092 1518 1343 1244 883 1011 660 719 660 739 173 33 17 24
0 0 0 0 0 0 36 22 113 62 28 8 144 48 63 94 122 243 63 0 0 0 0 0 265 191 264 216 47 176 181 468 328 560 1138 1098 1071 1363 1213 1022 910 855 702 826 814 821 375 108 120
0 0 0 0 0 0 0 0 22 69 26 14 61 37 31 80 57 117 130 0 4 0 0 0 224 292 109 493 43 49 110 196 475 654 945 1188 1185 1273 1466 1325 1352 759 757 592 538 880 1080 720 294
0 0 0 0 0 0 0 0 0 33 24 3 23 0 81 100 71 145 140 54 3 9 0 37 117 240 105 55 325 0 22 41 488 641 854 835 1379 1489 1435 1744 1404 778 887 1048 895 1377 868 830 813
0 0 0 0 0 0 0 0 0 0 112 0 0 1 46 43 232 212 187 87 2 8 40 0 84 248 160 41 186 174 22 1 443 558 491 972 925 1176 1377 1652 1396 1150 975 1157 1145 1176 1104 1324 810
0 0 0 0 0 0 0 0 0 0 94 66 24 2 9 240 189 169 238 147 94 93 165 122 101 209 259 29 9 179 217 4 199 802 1004 975 946 983 960 1589 1166 1033 1037 1211 1236 1068 945 1462 1211
0 0 0 0 0 0 0 0 0 0 33 144 57 11 224 337 239 69 187 262 158 154 126 279 219 161 354 146 0 50 345 2 62 282 886 911 732 1048 726 1435 1273 1002 1295 1070 1342 1078 871 1109 1519
0 0 0 0 0 0 0 0 0 0 0 129 72 202 191 254 114 209 235 240 217 169 205 215 445 267 408 393 93 0 178 260 25 104 332 981 366 760 1082 1452 1254 1383 1230 1205 1410 1034 1105 1072 1043
0 0 0 0 0 0 0 0 0 0 0 39 216 266 90 41 27 202 196 159 148 134 194 216 562 487 488 380 510 37 0 431 274 185 116 598 597 776 1024 1398 1464 1910 1885 1390 1390 1206 1226 1273 1072
0 0 0 0 0 0 0 0 0 0 0 5 208 373 251 234 301 5 13 4 88 189 310 215 356 657 631 573 622 643 28 78 310 252 21 195 492 622 1616 1455 1465 1404 1247 1542 1870 1495 1199 1528 1454

GFSSGP_con_mlcape_072.txt.gz
CAPE
30 0 0 0 0 40 35 22 68 58 82 27 30 95 166 102 86 0 7 21 20 0 526 1199 1390 1617 1466 1535 1735 1671 1717 1749 1480 1947 1788 1623 1814 1667 1544 1202 1546 1398 1567 1519 1582 1739 1760 1647 1860
0 0 0 33 30 44 41 71 94 95 180 101 167 155 102 36 18 31 28 44 11 64 823 1250 1458 1537 1424 1679 1960 1869 1889 1719 1914 1863 1727 1520 1821 1586 1643 1374 1060 1499 1510 1205 1706 1741 1715 1755 1644
0 0 7 21 25 0 0 49 65 210 217 190 137 67 20 3 1 27 100 88 74 368 812 1079 1349 1549 1562 1558 1612 1754 1793 1823 1642 1806 1843 1502 1702 1497 1480 1598 1519 1443 1472 1459 1484 1606 1698 1750 1536
1 8 16 2 0 2 16 52 136 177 177 100 18 6 9 0 12 47 188 258 263 508 606 1243 1439 1440 1586 1884 1782 1744 1714 1729 1730 1742 1762 1596 1489 1536 1552 1547 1508 1381 1400 1526 1268 1613 1590 1496 1421
65 50 19 28 31 0 12 77 174 185 174 84 15 15 62 44 45 121 340 370 409 488 965 1320 1609 1682 1764 1521 1659 1784 1810 1771 1798 1795 1817 1656 1506 1534 1513 1550 1466 1613 1510 1311 1362 1271 1239 1620 1501
139 87 52 66 0 6 31 39 121 141 120 41 21 0 23 22 60 189 218 391 520 733 1241 1504 1572 1724 1744 1807 1866 1828 1779 1746 1760 1685 1620 1512 1439 1414 1298 1492 1418 1480 1494 1463 1359 1211 1314 1352 1333
34 99 125 111 35 65 92 83 255 143 108 56 30 0 0 17 62 79 197 301 392 691 1031 1298 1442 1585 1708 1593 1704 1686 1751 1820 1765 1620 1579 1435 1267 1366 1459 1533 1431 1331 1302 1256 1275 1203 1061 1174 1032
68 170 90 0 61 0 0 128 164 152 138 102 21 0 0 17 37 34 137 123 220 423 795 1055 1216 1385 1478 1504 1736 1724 1819 1792 1726 1772 1348 1584 1468 1349 1114 1293 1261 1170 1191 1224 1221 1256 1142 798 833
94 28 76 100 0 0 0 97 210 143 118 131 158 0 0 4 3 18 45 48 184 492 653 844 924 1201 1208 1295 1642 1828 1755 1569 1485 1404 1341 1181 967 960 778 1129 1210 1148 1208 1246 1221 854 803 785 883
121 7 27 67 27 6 0 36 180 174 72 116 114 0 0 4 11 17 26 10 48 141 153 529 650 799 1031 1381 1589 1395 1443 752 760 903 911 779 810 658 674 1130 1170 1127 1146 799 804 897 555 894 613
15 25 1 75 93 26 176 105 153 213 175 157 105 0 2 16 16 30 17 0 0 0 0 361 470 621 694 1028 1119 839 597 412 272 296 517 615 446 546 627 773 812 894 527 66 127 208 424 630 719
0 0 2 13 239 393 171 19 8 158 324 115 33 10 1 11 3 9 0 1 82 30 0 197 477 309 415 408 652 516 551 591 619 492 546 328 150 78 279 249 109 252 325 226 77 204 332 450 636
0 0 0 7 283 447 123 0 0 11 184 147 42 21 0 20 27 0 0 0 64 0 0 110 341 295 172 140 362 521 593 765 607 561 351 34 9 176 416 336 131 154 407 392 270 291 373 403 514
0 0 0 0 394 443 131 83 3 125 238 121 49 37 14 14 8 0 0 0 0 21 37 115 183 297 145 304 459 517 529 741 384 196 285 273 465 243 328 201 11 116 318 304 325 341 392 410 464
0 0 0 62 346 230 96 112 138 116 334 125 62 38 36 46 38 0 0 0 0 47 64 0 157 195 102 391 314 489 475 594 367 51 68 276 492 379 28 106 2 112 110 360 350 404 525 436 335
0 0 0 0 281 351 242 140 332 220 248 163 68 52 37 73 72 4 0 0 1 77 33 56 158 217 154 244 220 284 304 465 352 77 145 284 664 526 245 216 49 192 109 109 400 480 479 298 375
0 0 0 0 26 150 287 316 132 68 76 177 88 27 36 54 77 35 1 9 0 0 52 99 194 150 99 528 326 161 263 438 569 499 556 400 704 455 328 98 431 247 380 211 11 315 212 160 320
0 0 0 0 0 22 210 316 125 294 213 245 183 77 18 32 81 36 0 15 0 0 59 184 165 81 72 317 188 176 171 526 677 807 829 785 758 407 253 174 289 168 214 352 58 128 94 123 152
0 0 0 0 0 0 30 220 178 218 91 277 232 138 21 27 129 19 0 10 2 0 0 105 136 103 20 189 136 264 410 591 882 713 651 929 847 352 398 474 614 477 44 131 64 66 32 78 80
0 0 0 0 0 0 116 202 176 153 194 299 287 189 122 90 117 156 1 0 12 0 0 0 33 39 28 127 63 186 323 447 594 742 842 964 789 36 132 344 440 173 14 354 282 48 9 21 23
0 0 0 0 0 59 178 201 123 38 224 379 371 187 124 104 72 171 5 20 9 0 0 0 0 0 89 91 40 206 264 283 591 586 647 981 1075 483 542 542 456 539 102 302 157 40 3 0 0
0 0 0 0 0 0 64 23 71 60 102 325 383 59 56 126 97 236 2 9 25 0 0 0 57 46 59 78 43 156 371 290 271 311 356 798 1256 898 859 672 854 494 427 353 406 309 15 4 3
0 0 0 0 0 0 0 0 0 47 70 103 398 42 181 141 184 247 37 0 31 3 0 53 81 105 166 109 36 139 178 396 249 330 523 666 1025 1212 962 786 817 673 481 537 611 820 585 120 61
0 0 0 0 0 0 0 0 0 0 12 51 367 351 208 107 172 250 201 0 0 0 0 92 95 108 180 147 47 28 156 136 372 372 669 807 804 1028 1025 950 877 620 534 407 278 659 775 828 543
0 0 0 0 0 0 0 0 0 0 0 80 142 293 195 128 204 226 191 31 0 0 0 29 80 93 169 171 90 0 50 84 282 462 617 784 990 1005 1194 1216 1116 448 439 743 610 995 845 574 543
0 0 0 0 0 0 0 0 0 0 0 54 133 112 233 86 124 161 155 7 2 0 16 24 62 48 102 202 185 103 30 40 110 544 693 840 883 1004 1259 1442 1258 884 485 711 816 898 862 972 839
0 0 0 0 0 0 0 0 0 0 0 10 99 128 212 121 214 249 209 65 47 8 19 53 85 63 51 66 83 124 135 63 54 504 820 758 699 763 1041 1458 1328 1139 854 840 974 842 791 837 908
0 0 0 0 0 0 0 0 0 0 0 0 113 113 152 268 252 271 330 216 108 53 8 0 92 101 100 57 32 13 58 176 64 77 396 1035 792 737 828 1132 1260 1041 882 700 823 752 718 717 698
0 0 0 0 0 0 0 0 0 0 0 0 84 45 58 196 334 366 343 255 209 143 87 63 9 57 170 177 87 0 3 74 284 75 81 435 938 842 1027 1120 954 1144 947 859 905 881 834 835 788
0 0 0 0 0 0 0 0 0 0 0 28 86 38 25 170 275 281 362 396 322 197 109 141 219 110 91 231 244 84 0 0 184 245 60 78 388 728 1032 935 1138 1207 1072 947 930 788 910 900 1070

GFSSGP_con_mlcape_075.txt.gz
CAPE
38 0 0 0 0 31 0 0 48 125 39 1 0 10 30 92 107 0 0 0 0 9 637 1194 1397 1576 1602 1795 1867 1873 1777 1499 1741 2049 1750 1894 1658 1476 1269 1793 1348 1306 1741 1593 1788 1917 2017 2131 2149
4 0 0 37 31 5 38 40 113 112 27 0 161 193 164 70 81 12 0 0 0 157 831 1170 1444 1535 1696 1830 1807 1884 1817 1678 1922 1880 1676 1704 1696 1583 1137 1414 1737 1519 1525 1871 1855 1789 1795 1979 1938
0 0 1 67 60 0 16 22 107 161 38 124 131 65 51 47 26 0 30 0 1 379 998 1415 1363 1521 1753 2034 1927 2027 1885 1959 1896 1804 1557 1904 1630 1578 1597 1433 1518 1636 1601 1679 1873 1658 1843 1764 1616
0 0 23 3 0 0 0 92 208 177 158 100 40 47 11 32 1 95 43 0 32 605 1039 1489 1617 1634 1622 1570 1791 1940 1814 1797 1835 1710 1508 1623 1509 1548 1502 1490 1395 1422 1344 1448 1642 1685 1736 1782 1747
5 107 56 20 65 1 0 100 189 131 181 64 56 67 4 62 85 110 43 17 168 570 1070 1508 1602 1475 1750 1944 1884 1802 1732 1754 1767 1751 1638 1544 1551 1612 1523 1415 1561 1375 1230 1366 1451 1498 1618 1518 1634
180 85 70 80 7 14 5 89 156 145 85 28 11 10 24 44 94 122 95 101 337 594 1136 1303 1663 1853 1651 1681 1854 1714 1758 1640 1752 1728 1606 1517 1550 1539 1558 1474 1430 1502 1205 1154 1191 1348 1418 1347 1404
76 63 71 65 24 91 77 133 124 154 74 29 0 0 32 36 176 218 233 325 512 927 859 1423 1515 1587 1861 1720 1786 1674 1756 1752 1754 1694 1548 1449 1469 1329 1574 1586 1457 1321 1213 1132 1159 1322 1263 1387 1405
141 92 5 0 38 21 2 139 212 155 115 51 0 0 2 64 165 232 347 514 694 675 1109 1060 1422 1587 1451 1707 1697 1702 1872 1752 1674 1569 1458 1296 1358 1414 1356 1349 1354 1248 1183 1110 1157 1256 1223 1007 1453
94 123 53 47 4 16 2 186 155 177 86 44 133 0 24 71 131 182 278 339 447 745 803 1052 1142 1278 1231 1490 1396 1779 1738 1623 1598 1365 1564 1464 1215 945 988 1306 1294 1329 1222 1130 1189 840 814 1007 1360
152 44 40 75 9 9 19 80 8 171 84 140 9 7 41 31 109 164 152 77 183 410 702 844 953 956 1106 1470 1591 1448 1344 1248 1290 1223 1047 818 795 659 982 1328 1269 1359 1480 975 789 548 743 686 661
124 66 35 86 113 13 30 67 27 127 47 115 0 0 47 39 53 104 45 0 0 295 556 549 725 812 977 1317 1238 1072 824 808 857 864 671 675 597 818 984 1119 979 1022 426 466 517 497 432 592 483
12 11 26 10 197 253 115 0 13 118 228 194 0 7 25 47 48 61 35 0 35 64 237 369 508 560 799 1103 879 749 607 448 378 479 510 403 222 351 374 414 478 426 177 88 143 321 352 440 576
0 1 0 0 0 366 12 2 0 3 102 131 0 16 18 28 49 37 35 0 36 0 115 196 325 309 441 622 664 644 489 485 483 412 470 172 57 77 129 90 29 105 318 380 256 319 305 513 541
0 0 0 0 19 184 65 41 9 112 139 194 42 15 29 22 47 37 42 0 34 0 0 193 273 181 351 269 250 316 446 660 645 557 206 58 131 270 357 223 96 161 342 397 365 365 428 425 334
0 0 0 45 373 295 68 11 64 161 276 254 55 12 29 14 7 28 6 7 10 0 0 120 181 181 129 112 210 386 589 624 517 359 169 265 183 276 343 238 1 71 234 263 386 397 453 446 301
0 0 0 211 363 164 182 66 221 127 139 171 75 38 13 52 10 8 4 7 69 49 29 92 248 215 117 150 362 421 518 592 460 191 148 387 559 285 139 105 77 127 110 306 363 414 390 313 336
0 0 0 0 264 253 163 118 112 297 4 179 101 68 51 42 4 0 0 1 2 88 57 52 189 235 158 239 403 235 420 512 505 188 114 325 546 453 137 204 163 261 131 134 167 407 267 201 319
0 0 0 0 42 48 28 113 141 287 166 180 90 67 40 45 55 12 0 0 9 81 106 58 173 229 189 317 234 195 260 399 472 288 254 380 650 467 263 98 355 318 154 134 12 272 181 76 245
0 0 0 0 0 0 0 0 159 80 283 244 145 77 39 49 45 0 0 1 6 22 92 22 148 141 337 244 260 226 253 420 608 680 705 579 742 459 260 222 312 239 94 185 45 115 63 60 40
0 0 0 0 0 0 11 0 146 150 116 416 245 99 47 50 56 2 0 3 0 9 30 91 165 92 264 203 282 261 297 414 565 695 828 820 755 400 442 437 511 437 0 120 127 81 25 15 16
0 0 0 0 0 68 56 67 182 224 256 272 393 253 72 14 37 0 0 0 0 0 0 66 40 39 87 163 189 230 333 421 583 660 715 899 891 152 95 446 425 204 19 181 186 27 13 13 9
0 0 0 0 0 0 79 0 92 62 108 136 329 390 229 53 46 19 0 0 0 0 0 0 68 47 39 83 115 148 308 338 488 450 667 939 1091 712 413 469 522 513 109 325 165 33 9 0 0
0 0 0 0 0 0 0 0 0 41 99 212 500 460 355 190 80 77 6 12 0 0 0 0 12 15 0 0 67 59 166 241 253 492 507 518 940 1128 829 731 704 542 459 340 403 474 28 11 8
0 0 0 0 0 0 0 0 0 0 0 42 343 372 443 198 170 78 11 1 0 0 0 0 0 0 0 0 11 28 47 159 287 273 363 452 718 1176 1087 906 738 826 555 490 488 678 596 543 82
0 0 0 0 0 0 0 0 0 0 0 0 30 231 433 292 91 136 71 0 0 0 0 0 0 0 0 0 0 0 22 121 214 358 347 455 705 791 1188 1021 872 771 690 516 458 503 650 662 588
0 0 0 0 0 0 0 0 0 0 0 0 9 74 203 284 180 160 146 1 0 0 0 0 0 0 0 21 16 0 0 30 103 141 364 494 707 790 897 1073 1076 1030 572 817 506 795 915 742 592
0 0 0 0 0 0 0 0 0 0 0 0 0 21 201 218 193 188 191 45 0 0 0 17 17 0 0 1 48 45 0 0 8 86 246 600 578 858 916 1110 1208 1232 977 534 837 819 821 893 760
0 0 0 0 0 0 0 0 0 0 0 5 13 0 36 247 134 94 190 91 46 0 23 0 49 33 0 0 29 48 46 20 0 0 95 517 683 720 855 1094 1140 1131 1220 996 767 970 904 861 581
0 0 0 0 0 0 0 0 0 0 0 0 21 0 0 77 128 120 172 111 32 17 0 7 13 61 49 26 15 31 32 64 16 0 30 53 561 808 762 860 1052 937 1225 1241 930 779 876 803 741
0 0 0 0 0 0 0 0 0 0 0 0 0 0 0 12 132 138 150 153 6 23 13 40 39 50 61 56 28 10 0 0 1 0 0 7 42 267 925 874 922 1056 1101 1188 1021 753 921 901 787

GFSSGP_con_mlcape_078.txt.gz
CAPE
5 0 0 0 0 26 0 0 14 88 12 0 0 0 0 3 46 0 0 0 0 115 841 1272 1455 1629 1661 1936 2039 1657 1398 1210 1850 1691 1861 1613 1386 1311 1654 1257 1487 1944 1692 1964 1888 2112 2262 2090 2247
0 0 0 30 10 13 10 6 50 113 3 0 47 56 87 4 88 0 0 0 0 306 926 1156 1507 1684 1808 1888 1876 1782 1442 1742 1835 1729 1867 1811 1874 1393 1940 1734 1772 1760 1848 1962 1874 1961 2098 2076 2155
0 0 1 56 102 0 0 2 93 38 0 100 97 61 67 54 17 0 0 0 40 348 850 1242 1587 1682 1799 1785 1749 1779 1542 1905 1922 1767 1757 1800 1808 1640 1358 1755 1581 1616 1924 1949 1764 1864 1958 1699 1821
0 0 9 1 9 25 0 13 151 7 74 110 66 32 4 38 0 0 0 0 12 458 964 1584 1557 1689 1921 1852 1909 1816 1744 1806 1545 1662 1769 1721 1760 1770 1802 1690 1601 1627 1654 1852 1765 1836 1890 1763 1711
0 77 66 43 70 49 7 140 188 137 141 70 81 12 3 25 50 2 0 13 104 559 1151 1405 1561 1671 1566 1615 1811 1788 1771 1721 1376 1664 1669 1691 1740 1693 1586 1566 1613 1454 1431 1698 1642 1605 1642 1462 1376
164 85 88 79 0 14 45 116 187 180 105 36 1 0 13 61 12 0 0 0 345 522 1137 1405 1519 1517 1726 1799 1783 1744 1799 1425 1532 1462 1528 1625 1530 1619 1629 1530 1350 1138 1249 1342 1458 1722 1417 1179 1726
75 51 5 0 41 111 73 178 198 130 62 20 0 9 31 61 24 20 13 113 383 821 979 1139 1439 1523 1635 1646 1776 1730 1677 1805 1695 1710 1596 1471 1525 1468 1325 1224 1417 1139 844 1273 1580 1531 1681 1725 1820
150 108 9 0 0 85 44 200 184 203 80 1 0 0 13 69 79 47 65 277 523 723 927 1167 1402 1425 1391 1561 1704 1710 1765 1713 1679 1494 1516 1569 1414 1173 1179 1216 1321 1113 1051 1334 1477 1580 1381 1637 1688
98 62 43 33 13 20 30 137 152 120 28 23 31 4 27 84 96 52 117 237 430 467 836 1002 1248 1298 1308 1367 1599 1722 1758 1575 1568 1411 1560 1465 913 1028 1202 1389 1368 1164 1139 1407 1292 1155 1164 1711 1745
124 26 49 59 44 27 56 5 55 1 56 6 26 47 54 88 72 58 89 118 43 348 591 866 863 944 1116 1088 1450 1389 1417 1405 1203 1203 965 967 741 840 1263 1451 1527 1328 1250 1211 1115 1074 1366 1109 1398
113 51 78 116 76 132 49 1 0 28 63 19 0 0 57 82 83 73 46 22 0 244 495 794 685 789 1077 1207 1096 997 1036 1086 1004 861 702 623 470 905 1023 1155 1173 941 919 835 810 640 576 548 612
39 14 22 66 204 113 110 58 1 27 53 102 1 1 59 80 80 43 0 0 0 119 355 532 579 605 913 1097 727 698 648 723 729 659 544 370 302 557 810 839 740 153 128 125 218 377 463 577 632
1 4 1 0 0 245 50 14 28 61 145 0 33 14 21 26 55 15 0 0 0 33 131 245 460 369 678 736 514 566 463 388 349 359 460 227 122 118 316 347 278 342 412 254 351 416 444 593 636
0 0 0 0 0 105 75 4 5 4 151 0 8 1 6 11 38 14 0 0 0 9 6 186 310 238 445 449 312 306 294 363 473 497 425 152 58 129 232 170 79 179 461 488 464 473 605 552 444
0 0 0 100 199 203 74 5 22 55 277 1 3 0 2 15 11 11 6 0 0 0 0 63 157 170 155 211 209 238 290 437 540 488 282 108 140 256 422 359 186 169 289 347 440 503 558 422 477
0 0 0 305 301 230 111 60 239 257 358 99 40 15 0 19 20 0 2 0 0 0 0 0 187 104 74 2 45 97 275 459 453 384 232 125 338 221 264 247 63 181 259 387 412 474 502 313 380
0 0 0 0 302 186 147 84 37 212 309 168 43 39 22 0 29 0 0 0 0 0 0 0 103 0 25 1 77 161 320 350 412 261 175 223 467 491 146 251 186 271 249 241 291 503 349 311 372
0 0 0 0 95 218 15 105 65 201 33 88 122 46 41 38 36 6 0 0 8 4 3 15 0 36 0 12 98 189 167 310 379 338 132 280 500 390 209 245 273 368 176 180 78 409 154 168 283
0 0 0 0 0 0 0 0 96 213 105 156 202 57 17 37 41 6 0 0 1 16 15 7 4 49 70 71 131 151 186 267 358 389 120 322 494 358 314 169 248 367 242 212 63 136 157 142 22
0 0 0 0 0 0 0 0 80 193 76 345 252 96 25 20 42 2 0 0 0 0 12 0 24 12 99 114 163 171 177 251 359 406 506 618 620 469 338 230 379 166 143 279 170 148 63 66 78
0 0 0 0 0 16 18 19 123 327 170 287 313 184 43 24 28 24 0 0 0 0 0 10 0 28 110 107 149 137 151 228 379 387 453 732 685 547 336 360 422 355 107 151 190 58 32 34 15
0 0 0 0 0 0 5 0 47 236 177 129 258 355 154 31 31 0 3 0 0 27 7 1 11 20 88 115 145 166 170 246 377 150 400 659 831 534 50 363 490 361 121 246 175 60 17 2 20
0 0 0 0 0 0 0 0 0 120 190 168 162 253 349 136 50 14 0 0 6 0 0 33 3 14 6 75 130 140 154 233 287 307 371 590 863 906 532 493 535 410 391 264 360 183 64 10 0
0 0 0 0 0 0 0 0 0 0 59 78 74 96 224 321 163 30 0 0 0 0 0 0 36 18 12 58 58 83 93 143 168 201 318 442 456 808 904 676 644 595 313 407 350 568 218 199 38
0 0 0 0 0 0 0 0 0 0 0 0 0 15 152 358 253 89 1 0 0 0 0 0 21 31 23 2 0 39 40 50 86 90 111 280 373 561 933 989 900 643 557 516 511 536 595 609 467
0 0 0 0 0 0 0 0 0 0 0 0 0 0 121 481 345 222 26 0 0 0 0 0 0 0 2 5 0 0 0 0 29 98 198 282 292 473 616 845 1007 840 755 659 460 455 445 630 621
0 0 0 0 0 0 0 0 0 0 0 0 0 0 43 265 385 216 181 0 3 1 13 0 0 0 0 0 0 0 0 0 0 70 167 240 360 456 626 746 858 890 742 612 573 490 501 832 827
0 0 0 0 0 0 0 0 0 0 0 0 0 0 0 8 313 308 171 54 0 0 14 18 0 0 0 0 0 0 0 0 0 12 93 145 263 508 624 785 928 863 808 739 642 522 730 782 811
0 0 0 0 0 0 0 0 0 0 0 0 0 0 8 17 110 343 260 95 0 16 0 0 18 0 0 17 34 14 0 0 0 0 9 67 151 354 609 746 916 919 684 600 763 807 689 806 760
0 0 0 0 0 0 0 0 0 0 0 0 1 1 24 56 112 253 205 136 47 12 13 0 0 23 0 16 15 34 0 0 0 0 0 0 21 126 378 708 850 886 820 848 933 868 959 569 630

GFSSGP_con_mlcape_081.txt.gz
CAPE
0 0 0 0 11 16 18 0 13 26 8 3 0 0 0 0 41 18 0 0 39 439 1020 1190 1612 1730 1966 1776 1599 1402 1490 2022 1848 1988 1626 1428 1331 1496 1329 1718 2011 1870 2021 1931 2385 2391 2310 2281 2257
0 0 0 28 25 1 6 4 75 117 13 0 12 0 62 2 111 0 0 0 157 446 787 993 1571 1754 1889 1936 1831 1555 1793 1985 1786 1925 1847 1956 1489 1953 1684 1702 1889 1749 2008 2013 2186 2181 2132 2319 2165
0 0 7 25 45 4 4 26 124 6 0 19 97 81 146 26 5 0 0 0 221 549 778 1206 1549 1759 1796 1792 1781 1610 1852 1764 1672 1708 1747 1583 1551 1443 1681 1591 1678 2016 2008 1850 2084 2145 2027 1508 1276
0 0 6 7 11 58 4 77 3 39 89 99 94 68 27 0 0 0 0 47 217 539 763 1380 1573 1707 1747 1786 1823 1640 1692 1511 1698 1661 1666 1676 1650 1609 1646 1636 1724 1869 1843 1903 1939 1915 1478 1117 1285
0 77 81 83 96 70 38 156 37 77 138 82 141 19 3 21 6 0 0 53 207 463 947 1132 1568 1794 1720 1965 1542 1797 1607 1195 1406 1526 1500 1746 1669 1581 1643 1606 1520 1566 1617 1761 1792 1530 1273 1029 1179
104 114 39 22 12 163 75 223 272 231 152 58 5 15 20 39 0 0 0 68 207 566 849 1111 1513 1447 1368 1514 1777 1547 1665 1350 1581 1536 1522 1719 1552 1357 1290 1337 1167 1503 1449 1641 1712 1625 1235 1426 1693
134 81 1 0 126 127 92 210 220 162 124 40 0 30 6 9 0 0 0 186 303 717 994 1325 1018 1504 1612 1582 1652 1574 1476 1689 1634 1639 1460 1634 1253 1423 1300 1261 1159 936 1199 1667 1643 1613 1670 1884 1572
223 140 24 0 0 69 89 203 218 259 106 11 21 12 1 3 0 0 44 246 421 784 861 852 1345 1463 1389 1509 1619 1486 1695 1397 1418 1372 1541 1447 1190 1269 1337 1150 1127 1066 1457 1580 1340 1623 1759 1610 1347
117 104 73 47 29 21 69 160 92 81 35 16 12 18 1 3 0 3 77 260 603 670 856 955 1051 1384 1514 1523 1543 1699 1398 1532 1386 1438 1392 1317 1161 1203 1137 1275 1273 1258 1550 1604 1401 1256 1884 1453 1306
143 41 130 62 81 32 40 33 21 19 109 46 24 43 18 8 1 3 50 193 319 374 701 975 1260 1111 1174 1157 1509 1431 1440 1337 1301 1336 1534 1210 1221 1245 1246 1448 1224 1348 1481 1390 1356 1458 1268 1582 1707
166 102 152 117 141 132 25 2 21 56 90 69 8 34 31 6 1 0 21 107 66 271 442 841 1102 973 974 1159 1027 1082 1247 1027 1203 1194 1015 1014 1045 1362 1591 1512 1158 1125 1294 1067 1122 1140 1233 1208 1259
55 31 86 167 263 135 105 2 51 44 120 44 23 12 6 3 0 32 47 64 0 318 409 677 794 866 1231 1013 767 1060 1025 954 781 951 1011 835 767 1282 1320 1138 747 751 671 704 957 1023 1170 1350 1376
2 9 7 3 186 269 160 78 29 29 101 30 12 25 8 2 0 31 61 3 7 127 446 641 726 802 1246 1172 925 1015 963 871 905 938 860 611 665 889 954 1001 834 930 811 871 1069 1129 1270 1359 1292
0 0 0 0 0 88 84 33 35 219 56 14 6 10 29 16 44 47 51 0 8 89 214 417 543 657 997 793 775 859 809 746 771 812 860 553 518 678 637 667 630 923 1263 1129 1177 1225 1374 1161 1241
0 0 21 174 124 110 28 7 27 159 38 34 12 13 54 68 70 9 0 0 0 89 164 302 488 498 768 710 573 658 660 839 992 961 782 485 560 773 930 891 720 779 1014 1051 1082 1237 1370 1075 1127
0 0 0 313 380 181 109 27 213 153 34 58 22 29 33 51 0 1 0 0 0 0 54 282 244 315 480 514 590 584 716 866 995 947 789 512 628 597 940 1022 621 738 921 1133 1173 1196 1157 1078 1076
0 0 0 129 370 264 153 24 511 342 112 55 8 2 15 28 65 74 47 0 0 0 0 96 268 271 224 320 512 444 639 883 1043 871 728 601 770 1028 659 813 691 909 947 836 1146 1102 1061 998 993
0 0 0 0 281 266 101 50 221 482 577 143 63 22 19 22 84 102 68 25 0 0 0 109 247 218 191 220 234 326 556 840 907 854 612 628 1020 966 589 868 840 966 901 770 726 1024 612 908 893
0 0 0 0 0 0 0 0 19 471 206 267 148 79 22 19 66 95 63 35 5 0 0 0 163 63 117 132 158 426 641 716 907 1003 791 581 928 900 840 796 714 898 852 781 505 795 774 711 577
0 0 0 0 0 0 15 33 192 237 225 166 241 118 97 49 53 27 41 44 0 0 1 6 91 159 146 254 300 591 710 766 1017 1029 887 586 1004 1062 878 761 759 724 805 839 680 567 440 616 644
0 0 0 0 0 117 140 78 144 382 401 461 448 223 114 99 83 55 20 27 24 10 0 15 12 219 255 421 408 434 602 732 740 817 992 1098 1151 1174 1032 767 1041 704 623 768 775 467 422 496 470
0 0 0 0 0 0 7 0 173 247 370 330 557 492 291 157 111 107 16 13 0 39 8 70 87 220 304 445 406 444 499 498 688 844 1107 1107 1317 1167 634 908 999 905 724 732 691 334 164 264 420
0 0 0 0 0 0 0 0 0 189 238 252 197 354 345 245 174 158 103 6 0 34 69 107 179 174 306 372 494 600 597 644 813 853 730 1134 1376 1431 869 754 1054 939 1026 813 780 626 424 174 153
0 0 0 0 0 0 0 0 0 0 0 0 0 135 224 366 212 166 131 78 47 30 55 122 178 213 215 338 469 573 604 618 676 815 755 1008 1323 1555 1414 1218 1226 1296 1049 819 977 1099 722 501 465
0 0 0 0 0 0 0 0 0 0 0 0 0 0 19 270 439 198 136 100 115 89 59 90 185 190 259 269 407 534 685 635 595 700 733 898 1071 1084 1403 1513 1322 1368 1255 1142 1205 1068 1122 1150 1124
0 0 0 0 0 0 0 0 0 0 0 0 0 1 41 140 355 444 177 117 167 123 117 120 175 191 230 253 413 524 579 579 614 802 706 765 965 1068 1322 1592 1442 1547 1468 1401 1305 1196 1289 1322 1418
0 0 0 0 0 0 0 0 0 0 0 0 7 17 38 24 454 522 368 112 153 135 120 163 206 216 206 250 356 395 440 415 464 532 702 764 887 1011 1213 1370 1328 1368 1555 1513 1316 1206 1090 1322 1403
0 0 0 0 0 0 0 0 0 0 0 0 0 16 99 133 48 643 670 174 123 157 117 109 157 213 234 269 315 320 316 295 323 533 501 697 931 994 1160 1327 1471 1100 1279 1311 1298 1230 1304 957 1273
0 0 0 0 0 0 0 0 0 0 2 0 4 23 114 384 117 340 675 571 114 126 116 117 129 158 229 308 352 358 292 247 224 254 392 579 776 885 1102 1353 1551 1614 1452 1493 1369 1293 1447 1290 1387
0 0 0 0 0 0 0 0 0 0 0 0 1 5 23 151 384 536 547 578 240 148 135 133 144 132 149 182 254 252 243 191 207 174 164 340 654 831 831 1219 1466 1643 1699 1688 1387 1238 1335 1430 1296

GFSSGP_con_mlcape_087.txt.gz
CAPE
0 0 8 4 117 65 109 248 128 203 137 69 20 58 74 505 529 384 297 585 632 554 691 1194 1418 1427 1369 1343 1875 2031 1583 2144 1389 1291 1082 1259 1299 1973 1808 2123 2080 2276 2229 2292 2202 2034 1926 2014 1751
1 1 8 12 162 121 161 277 175 197 140 13 9 11 349 310 229 38 204 524 536 503 610 1075 1627 1455 1552 1370 1428 1934 1634 1735 1967 1817 1767 1915 1584 1569 1526 1976 1875 2096 2203 2212 2132 1746 2043 2165 2013
11 1 40 64 53 125 223 403 130 125 47 23 54 324 507 38 10 87 240 435 478 393 657 1020 1605 1549 1434 1467 1715 1637 1728 1936 1885 1813 1516 1873 1791 1679 1840 1570 1625 2082 2116 2101 1729 1535 1538 1770 1721
17 23 100 76 133 224 317 37 113 100 226 190 245 282 136 20 7 126 251 462 419 540 748 1026 1582 1390 1639 1633 1614 1774 1767 1872 1645 1501 1772 1738 1784 1703 1646 1868 1859 1928 1858 1615 1808 1500 1692 1762 1627
8 130 366 397 366 423 159 143 172 118 139 148 380 234 0 3 5 135 247 348 394 669 647 1112 1517 1542 1600 1625 1657 1774 1674 1751 1747 1802 1690 1777 1647 1499 1698 1655 1687 1914 1858 1870 1523 1431 1681 1931 1790
43 465 471 386 378 451 357 492 211 248 239 200 276 93 9 1 6 71 156 298 375 375 759 976 1355 1586 1771 1637 1792 1497 1412 1704 1532 1577 1614 1524 1556 1379 1746 1605 1731 1773 1685 1272 1606 1559 1813 1895 1774
220 428 337 332 298 457 436 585 471 297 107 203 357 151 0 1 15 72 179 216 228 286 477 888 1004 1184 1664 1535 1715 1569 1622 1459 1435 1409 1548 1477 1553 1400 1567 1500 1650 1635 1547 1663 1601 1775 1547 1682 1765
362 664 324 375 437 484 538 267 416 322 247 110 286 1 0 0 19 93 107 215 293 290 378 701 413 847 1030 1278 1508 1587 1549 1502 1443 1473 1508 1376 1281 1452 1162 1218 1680 1643 1377 1224 1517 1635 1602 1387 1160
426 322 133 225 320 491 457 110 87 153 137 231 362 0 0 0 18 65 96 186 185 353 455 680 789 940 1119 862 1217 1033 910 1225 1252 1105 1109 1119 1353 943 1133 1334 1641 1381 1198 1283 1075 1313 1502 1462 978
563 377 102 222 310 397 583 55 51 236 252 279 139 0 0 2 14 54 83 157 214 238 237 542 829 680 914 461 1132 1199 567 1046 814 637 970 1199 990 581 543 1340 1638 1442 1452 1255 1072 1314 1086 1318 1369
475 276 119 183 337 341 351 49 27 175 222 296 29 0 0 6 17 45 80 77 142 132 432 560 488 725 584 462 675 1150 669 260 197 832 1096 502 567 419 334 1068 1162 1248 1265 947 1351 1393 1574 1126 605
600 340 162 86 162 98 206 21 17 67 330 278 78 0 0 7 14 35 64 83 106 159 241 401 363 388 207 353 421 333 226 136 588 715 705 820 518 419 773 1009 742 881 1011 1232 836 1020 1361 972 746
404 277 9 28 190 150 192 185 31 209 227 273 123 1 0 5 21 35 56 98 57 130 180 267 413 484 293 685 496 340 179 403 420 697 797 809 524 453 520 753 919 799 987 973 1171 1220 1146 879 1073
318 314 19 0 15 284 283 163 175 182 173 75 90 2 1 7 19 28 47 59 22 84 111 293 455 339 440 824 990 595 346 177 290 420 703 819 808 774 790 849 889 943 1207 1197 1296 1411 1013 703 823
108 75 11 0 24 390 226 108 178 158 130 40 22 8 7 12 17 23 47 23 10 37 128 170 366 244 666 718 1179 1208 229 342 321 766 1003 1036 965 1357 927 901 1169 1105 1362 1601 1369 1297 1057 550 994
113 69 159 36 396 387 264 339 177 103 111 24 13 16 11 16 11 15 29 11 24 12 147 167 139 131 534 1018 1100 1108 415 617 634 512 926 1244 1402 1415 1585 1032 925 1017 1246 1260 1139 1187 765 1046 1039
80 181 169 281 542 336 414 491 254 250 103 20 20 21 28 29 28 16 7 5 12 27 215 165 158 109 368 607 802 735 811 991 811 713 1010 1188 1314 1340 1557 776 1202 1411 995 984 867 1084 874 953 866
15 104 152 267 371 269 265 560 395 389 164 100 48 34 22 47 60 4 4 1 3 44 230 286 199 191 436 465 797 800 859 965 1031 772 1032 1203 1128 1034 1746 1364 926 1534 843 1117 1169 1317 1277 825 930
73 97 32 89 195 287 213 243 640 140 391 293 238 107 70 57 69 4 32 10 0 3 154 305 289 345 515 521 485 899 950 1054 1080 1165 1397 1312 1404 1259 1734 1260 1225 1197 954 1420 1199 1109 1225 644 575
29 93 36 42 174 108 161 300 614 541 482 493 307 194 103 90 17 69 98 17 4 0 0 225 364 548 747 648 637 593 820 996 948 1192 1301 1398 1228 1321 1473 1384 802 1026 1257 1391 1543 1467 1233 428 436
40 141 61 32 3 4 12 248 498 557 756 549 454 292 164 100 15 165 205 114 25 4 0 146 360 585 555 449 753 886 1227 1214 812 1053 1031 1094 1293 1258 1395 1341 826 1148 1539 1054 1644 1357 1054 699 160
6 57 18 53 26 80 97 119 265 449 405 543 392 410 345 170 38 182 143 223 90 0 0 87 455 505 565 769 716 1036 589 582 834 935 1021 1383 1255 1491 1384 1218 1395 1728 1197 1337 1405 1009 1490 1012 134
1 93 27 1 0 17 57 47 11 587 638 545 632 551 506 287 135 177 220 166 177 15 0 184 520 653 618 829 1204 1007 1024 622 605 1003 1449 1442 1663 1438 1377 1588 1687 1239 1501 1015 1562 1661 1347 629 643
9 47 19 3 2 23 19 114 32 252 238 215 461 611 706 604 301 239 302 298 327 58 29 155 611 900 852 1022 1242 1451 1037 803 909 880 780 861 995 1265 1388 1504 1861 1920 1688 1724 1484 1526 1654 1568 1391
23 4 9 0 0 10 1 96 53 15 95 176 167 294 512 799 490 420 212 373 413 159 94 169 452 1076 1099 1083 1239 1387 1372 1121 1339 1307 860 937 828 1059 1761 1807 1959 1580 1772 1636 1632 1788 1745 1592 1139
0 0 1 0 0 3 25 123 6 5 107 169 279 420 300 316 778 456 546 426 531 310 135 275 572 1001 1367 1228 1318 1605 1631 1212 737 967 912 412 964 894 2354 2052 1692 1594 1558 1504 1696 1538 1047 1018 1225
5 0 0 11 25 19 33 0 35 52 75 142 156 390 927 350 797 731 859 399 394 407 248 270 577 1013 1458 1480 1427 1538 1731 1596 750 826 945 792 850 880 1277 1290 1482 1501 1542 1567 1540 1538 1403 1836 1489
0 0 4 0 14 35 33 1 32 1 63 59 84 211 622 782 532 914 674 339 161 303 355 332 605 998 1515 1621 1544 1502 1574 1763 1449 941 863 759 956 796 675 1427 1563 1612 1492 1524 1576 1635 1616 1394 1393
0 0 3 32 1 61 14 71 8 8 80 76 34 12 106 393 647 926 523 213 213 757 577 566 723 947 1380 1603 1507 1414 1418 1580 1735 1438 1227 1035 984 1140 1223 1838 1763 2004 1820 1840 1789 1863 1877 1842 1566
0 1 0 0 0 0 3 2 19 3 106 77 8 2 19 62 56 3 25 70 146 616 413 152 766 922 1134 1428 1569 1426 1307 1378 1400 1602 1454 1343 1278 1047 1135 1402 1692 1506 1775 1984 1929 1712 965 1345 1527

GFSSGP_con_mlcape_090.txt.gz
CAPE
0 0 0 4 24 24 126 143 208 58 21 37 66 262 375 318 380 362 473 408 468 679 896 1100 1317 1307 1415 1819 1552 1964 2057 1406 1172 1109 1185 1271 1934 1709 2103 2025 2233 2250 2136 2111 1960 1970 1776 1918 1805
0 0 14 94 26 29 64 116 157 168 42 27 185 212 129 119 218 454 446 321 479 383 338 713 1393 1272 1180 1820 2049 1742 1820 1886 1797 1960 1880 1496 1694 1489 2032 2049 2095 2159 2216 2021 2048 2142 2119 1821 1611
20 34 14 90 72 155 146 252 161 4 4 78 399 95 8 59 185 295 362 314 170 472 710 1092 1337 1471 1278 1641 1553 1639 1847 1846 1725 1660 1904 1753 1704 1642 1617 1679 2093 2115 2035 1764 1805 1781 1590 1816 1458
17 18 47 79 84 327 168 184 70 33 30 149 91 0 25 49 158 263 349 212 396 924 1139 1556 1564 1540 1486 1607 1519 1305 1672 1716 1739 1794 1824 1782 1685 1771 1821 1939 1994 1822 1784 1803 1859 1895 1710 1031 940
4 15 47 54 98 71 147 94 107 87 192 266 0 1 14 88 71 247 279 468 572 614 857 1233 1471 1448 1354 1442 1673 1647 1758 1784 1620 1739 1770 1636 1653 1743 1881 1876 1834 1808 1821 1475 1836 1664 1870 1490 955
3 225 79 125 68 218 404 293 132 161 278 74 0 0 19 54 44 225 205 326 469 500 641 911 1399 1530 1690 1636 1559 1569 1649 1684 1705 1700 1472 1596 1719 1616 1649 1757 1747 1777 1831 1776 1646 1966 2038 1588 780
19 211 155 285 331 350 211 231 147 244 236 67 0 0 10 58 42 99 283 363 231 480 685 979 1219 1640 1587 1746 1509 1546 1531 1462 1515 1615 1565 1609 1481 1583 1602 1742 1627 1640 1486 1561 1830 1887 1886 1093 541
170 584 284 259 503 270 532 396 346 255 149 326 43 0 0 41 56 85 125 199 261 320 554 641 746 1024 946 1260 1537 1556 1392 1417 1351 1521 1449 1267 1314 1271 1432 1476 1487 1186 1613 1675 1796 1738 905 254 315
329 319 174 243 246 505 365 148 123 121 135 230 324 0 0 12 92 74 60 89 251 457 478 650 916 921 1038 1186 1293 1336 1458 1184 1155 1238 754 806 1220 1050 1393 1359 1417 1273 1405 1613 1507 286 1301 1089 769
463 229 235 333 604 589 198 55 51 67 264 173 0 0 1 20 82 95 27 174 150 392 589 802 859 933 831 643 1048 750 797 988 962 947 675 830 973 665 920 1302 1217 1196 1139 1260 392 0 10 1043 1115
497 298 174 258 558 699 206 41 139 220 190 1 0 0 2 17 79 120 42 67 36 423 599 589 872 824 684 705 1272 580 1100 705 597 575 1298 934 177 377 1001 1259 1296 1064 1189 1028 846 36 39 355 934
515 519 302 245 430 353 275 79 68 150 134 29 0 0 2 14 67 98 81 93 300 199 361 578 631 566 665 474 777 427 750 466 301 791 136 652 1081 1047 0 981 711 126 404 425 975 1168 846 1278 438
306 459 328 327 256 343 177 53 20 203 330 103 0 0 3 22 56 91 87 73 169 321 86 207 562 374 850 669 573 484 353 582 361 612 604 512 724 854 405 681 200 651 695 440 711 741 1281 492 815
38 343 192 167 345 367 289 67 148 213 249 83 6 2 5 24 46 52 80 64 79 213 35 299 391 244 657 625 691 293 284 340 575 633 726 965 640 931 958 1084 262 295 349 764 182 776 610 1132 641
206 526 163 63 539 417 242 156 209 237 143 180 7 7 8 26 31 23 23 30 48 89 158 299 92 173 929 1114 1046 1057 222 602 616 379 1052 785 1091 506 401 1056 892 742 1023 1213 299 929 1207 930 1037
364 199 127 43 517 419 222 222 253 155 80 80 1 10 11 30 18 34 48 19 28 66 59 187 5 71 627 1045 1447 1070 570 385 711 866 707 1191 1317 1366 1294 850 859 1426 1356 1455 658 1185 973 620 850
106 202 133 153 472 462 337 168 100 157 83 59 6 17 13 31 14 29 25 27 12 184 49 114 29 0 979 534 1148 795 892 328 486 749 898 977 1010 1346 874 881 999 1652 1202 273 1121 379 999 1325 842
0 111 110 149 24 366 431 395 186 163 33 31 10 9 26 38 19 14 10 21 20 94 164 229 20 64 624 356 742 570 885 786 1046 978 914 1275 1146 1268 621 994 985 540 1206 933 1368 1484 469 950 513
5 43 164 72 327 485 535 280 142 129 14 8 25 12 20 37 56 11 8 9 19 71 184 273 255 216 627 462 518 645 602 1044 960 486 597 1171 1148 1220 643 1012 1233 646 581 752 1255 1126 1261 1371 745
1 23 67 6 0 101 353 337 278 240 76 19 28 13 27 33 53 4 9 6 13 15 159 301 558 316 828 294 1034 846 1005 848 925 1102 1400 1247 1134 1231 1129 408 1055 958 1052 1407 1442 1435 1006 1177 130
0 0 57 14 14 7 115 145 327 230 596 258 161 85 46 27 32 5 38 17 6 7 128 309 756 347 640 824 718 345 204 67 609 1267 1399 1151 1104 1173 1389 1229 193 944 490 1207 1608 1487 515 470 468
0 43 51 19 0 45 96 174 366 499 418 420 326 169 78 56 49 49 66 13 10 3 6 350 856 525 302 867 622 600 397 376 915 1010 1060 1152 1163 1096 1291 1429 618 939 627 823 1325 1266 639 600 1038
0 102 1 12 5 6 2 100 129 0 385 467 456 346 109 38 50 66 100 84 25 9 0 355 602 1024 272 666 936 663 532 330 251 779 828 1270 1236 1401 1408 1332 1307 1000 946 775 886 1284 1007 1421 1284
0 3 27 10 0 1 0 13 195 38 2 402 411 346 306 218 33 118 89 86 113 1 0 236 708 929 1132 590 795 546 607 123 420 706 1018 1051 1292 1366 1289 1159 1518 1646 239 938 1228 1486 1209 1368 1369
0 0 64 31 0 0 4 30 91 0 2 1 626 567 486 437 306 23 108 59 45 8 1 395 854 1049 975 1077 1114 1282 1032 1097 340 245 149 980 887 1194 1240 1510 1866 1534 1562 1496 1622 1619 1373 1840 954
0 1 67 18 12 1 0 158 25 0 82 72 635 488 56 11 591 203 117 167 142 144 67 355 851 1155 1102 1344 1330 1493 1361 1061 994 932 1257 204 1099 984 1384 1335 1855 1826 1559 1742 1582 1742 1508 1615 1365
1 0 35 46 17 26 148 27 57 150 227 314 350 556 712 382 528 663 247 265 268 173 109 217 770 1120 1374 1364 1681 1782 1888 1559 533 646 482 1128 792 704 894 1290 1933 1681 1547 1482 1684 1647 1414 1180 1142
2 2 0 0 5 31 180 110 132 217 299 169 153 191 285 262 704 617 341 366 355 356 313 659 817 1189 1625 1633 1655 1865 2024 1909 1687 1408 898 1268 992 52 298 505 904 1434 1596 1476 1465 1657 1288 1486 1671
0 0 0 0 8 28 112 146 186 167 191 133 115 136 87 27 35 120 161 58 342 186 132 103 378 1291 1703 1895 1997 1831 1841 2064 2001 1673 1283 811 1100 898 414 0 0 1141 1544 1626 1687 1168 1060 1222 1121
0 9 3 0 0 34 0 64 69 95 166 90 6 22 1 0 0 2 1 41 52 21 20 58 174 401 1408 1921 2015 1982 1906 1906 2050 1888 1693 1486 1192 1175 1192 877 1219 1606 1821 1625 1468 1810 1574 1298 1610

GFSSGP_con_mlcape_093.txt.gz
CAPE
0 0 0 0 9 1 70 110 145 62 66 68 132 147 238 167 266 36 370 522 639 902 1363 1434 1535 1290 1007 1029 2024 1475 1252 1023 1109 1004 1438 1780 1920 1937 2190 2241 2305 2200 2077 2140 1942 1934 1786 1330 1474
0 0 2 33 8 25 29 158 58 117 48 10 8 51 185 225 140 303 319 506 657 784 922 898 932 1366 1858 1592 1720 1802 1856 1733 2024 1696 1348 1684 1682 1998 2106 2139 2118 2151 2073 2116 2101 1867 1783 1793 1418
4 26 2 39 50 9 58 243 183 184 203 0 18 27 173 130 160 197 273 304 259 327 723 1064 1076 1283 1557 1615 1696 1795 1686 1513 1757 1764 1643 1721 1600 1576 2034 2021 1963 1868 2055 2067 1727 1581 1590 1408 1427
11 55 0 0 9 138 258 79 109 40 0 0 0 15 126 175 93 74 153 65 84 312 679 1360 1253 1414 1605 1540 1333 1656 1704 1727 1780 1763 1686 1672 1527 1678 1939 1964 1976 1925 1733 1874 1695 1497 1136 1171 1020
34 17 51 0 0 190 249 194 137 72 0 0 0 46 100 94 46 50 342 589 754 661 710 1219 1460 1462 1438 1386 1569 1663 1671 1603 1640 1777 1736 1659 1715 1851 1862 1716 1763 1752 1783 1746 1893 1616 1144 1202 1120
3 51 0 1 127 107 143 218 167 7 0 0 0 10 113 38 85 136 355 392 539 612 990 1219 1314 1377 1586 1538 1477 1605 1644 1577 1745 1457 1563 1599 1568 1669 1814 1559 1675 1427 1414 1929 1764 1672 963 818 861
0 25 44 77 138 30 56 160 162 9 0 0 0 0 42 136 152 241 264 321 489 573 649 1035 1308 1453 1513 1313 1471 1421 1434 1488 1535 1530 1389 1745 1497 1659 1663 1469 1474 1501 1716 1814 1875 1461 822 880 733
4 89 94 121 84 66 54 151 152 45 14 0 0 0 3 67 130 127 228 330 404 435 571 810 1103 1143 1186 1332 1442 1332 1356 1453 1518 1447 1432 1540 1517 1640 1483 1207 1707 1484 1521 1555 1722 1617 1327 717 493
48 90 165 156 48 189 118 27 96 134 212 6 0 0 0 33 109 55 81 181 303 444 510 698 814 858 884 1015 1355 1203 1367 1064 918 859 791 990 917 1243 1089 1112 1311 1560 1710 1745 1335 786 517 623 609
139 34 290 586 166 121 145 18 28 126 180 68 0 2 6 28 84 39 31 213 287 339 324 529 664 676 625 889 804 802 983 669 619 489 612 920 916 1091 812 1158 1338 1472 1753 798 132 62 230 646 705
14 98 292 692 402 143 10 1 27 120 65 13 0 0 5 44 63 53 71 58 163 254 502 512 509 592 586 554 679 641 728 682 576 610 719 717 854 696 611 873 722 912 1078 229 28 158 84 418 653
2 8 381 717 434 127 10 194 204 73 16 9 0 0 5 30 40 43 33 95 276 326 525 700 546 595 610 716 878 560 728 504 497 900 1003 222 461 234 494 209 117 191 251 85 339 565 887 293 415
366 506 284 593 428 310 108 87 110 25 37 59 0 0 5 17 41 16 87 110 87 96 398 384 342 743 471 486 431 515 730 258 531 326 470 812 560 26 218 177 8 89 82 133 260 564 798 1460 451
244 162 289 398 331 284 17 22 27 6 13 45 0 0 5 24 49 47 110 61 28 37 259 0 489 364 546 733 296 288 328 274 441 398 514 1010 495 138 283 148 75 517 24 0 113 535 730 780 400
20 88 86 430 387 141 56 55 24 47 36 0 0 0 8 23 67 44 107 149 16 39 128 10 179 223 615 699 891 460 223 378 492 850 508 753 481 598 730 356 376 508 417 453 463 540 1104 793 328
17 59 94 555 430 250 193 94 171 127 175 1 2 3 9 36 21 37 50 105 7 50 0 0 332 447 459 905 771 415 559 293 378 702 834 1206 759 1206 1187 738 638 574 747 1067 715 969 972 752 458
74 214 207 509 401 199 237 212 232 98 100 29 1 0 11 17 27 39 20 44 10 0 2 0 0 354 585 821 712 227 224 474 602 457 888 882 1170 879 883 639 786 1149 733 503 827 462 711 860 772
0 129 137 135 41 11 130 119 150 72 77 22 2 0 10 5 6 22 18 18 8 0 10 2 0 285 292 721 652 771 420 787 565 804 971 963 1186 621 545 716 1053 962 702 866 985 832 602 564 345
0 67 99 4 0 0 157 47 85 85 41 3 4 3 11 5 0 5 20 18 32 0 0 4 0 427 20 638 291 550 456 562 503 522 694 1118 857 446 296 770 746 825 606 567 1223 1460 940 1122 475
0 0 136 83 24 5 68 130 91 105 47 13 9 4 5 0 1 0 7 11 27 0 0 182 0 73 0 351 513 591 614 758 697 478 624 982 959 836 807 616 813 980 1016 1283 1487 1143 984 848 237
0 0 52 39 23 14 47 44 181 141 67 61 51 33 7 4 0 0 0 0 5 0 0 279 70 142 382 206 446 358 319 147 504 715 920 1191 1117 1051 811 899 721 487 620 285 1326 718 450 346 446
0 0 9 66 21 3 0 0 0 70 113 72 43 73 18 6 1 0 0 0 0 0 18 326 184 41 233 805 339 195 23 104 107 567 894 774 937 1191 1145 571 160 791 516 645 1175 1181 1163 886 940
0 12 211 119 40 120 78 2 4 63 76 51 37 180 80 26 14 3 1 0 0 0 54 229 269 134 0 472 525 203 45 221 315 633 932 926 907 1196 1224 1066 907 571 347 546 944 1266 924 946 1261
0 11 82 54 47 1 81 50 26 76 165 98 269 231 221 130 83 71 46 3 0 0 63 194 445 277 81 153 733 467 361 87 289 511 677 915 921 1072 1402 1286 960 623 614 537 770 1233 1156 742 1019
0 0 0 36 15 0 0 150 25 68 88 69 166 51 306 187 118 131 91 51 16 18 104 170 368 497 366 197 520 417 411 181 414 456 397 641 930 1082 855 1199 1170 1154 605 836 1115 1501 1182 1094 777
0 0 0 0 0 0 27 60 47 63 17 58 122 137 93 236 125 165 186 117 82 33 119 185 209 422 422 719 313 377 461 601 397 476 126 580 635 851 1022 1143 1357 1188 1338 1362 1387 1136 1144 1153 745
0 0 0 0 0 17 196 51 0 0 0 23 81 4 53 90 209 244 180 161 138 45 89 147 290 320 328 1191 622 670 765 335 720 729 866 624 858 1282 1349 1194 1215 1449 1174 1103 1422 1243 1479 831 918
0 0 0 0 2 56 133 77 57 171 108 266 176 110 133 206 24 142 282 296 127 140 135 505 565 698 408 526 1085 1069 809 431 687 1070 1286 860 649 672 983 851 1334 1442 1492 1131 1235 1055 1167 1077 1103
0 0 0 0 0 7 5 45 130 113 68 61 40 30 68 82 137 262 163 79 82 141 82 126 102 276 467 926 1058 1248 1076 1207 893 875 1091 1294 631 561 188 380 729 772 1187 1414 1245 1169 1094 973 920
0 0 0 0 0 31 41 59 54 11 20 3 2 1 1 2 10 59 24 0 16 0 13 156 46 87 249 336 731 1381 1591 1460 1081 1058 1575 1110 837 782 651 90 0 342 796 1362 1421 1197 987 1030 712

GFSSGP_con_mlcape_096.txt.gz
CAPE
0 0 0 1 16 74 16 25 106 29 37 74 29 130 166 121 131 1 250 317 436 883 1365 1618 1623 1458 1091 1839 1408 1139 1029 1135 1346 1942 1826 1977 2161 2136 2184 2141 2254 2159 2002 2055 1530 1514 1706 1176 1160
0 0 2 20 4 60 18 94 25 15 30 68 160 162 168 106 145 234 313 187 703 1023 1314 1448 1067 1113 1504 2052 1678 1721 2084 1998 1354 1593 1671 2100 2137 2166 2200 2245 2144 2234 2120 2039 1863 1865 1555 1233 1111
0 0 12 43 40 17 32 47 7 17 36 44 40 72 109 164 199 239 369 312 804 786 828 867 1680 1773 1741 1782 1897 1789 1685 1921 1740 1594 1731 1840 1962 2044 2141 2196 2136 2438 2333 2061 1688 1764 1573 1077 1136
0 53 0 3 13 52 105 83 0 0 0 27 27 8 29 140 139 273 356 341 331 285 507 1019 1369 1557 1659 1680 1780 1937 1744 1922 1821 1767 1674 1526 1721 1910 1989 2038 2016 1866 1839 1667 1627 1619 1486 1182 1043
45 38 40 8 15 84 185 16 0 0 0 4 0 13 11 51 99 195 99 78 0 318 969 1128 1508 1619 1488 1527 1673 1696 1750 1813 1860 1766 1762 1750 1601 1721 1841 1944 1865 1993 1916 1769 1239 1161 1431 1054 718
14 0 1 0 25 133 117 34 1 0 0 0 0 0 0 35 64 0 23 40 18 167 929 1399 1400 1482 1505 1678 1664 1671 1699 1790 1642 1587 1697 1427 1620 1915 1829 1756 1701 1581 1744 1872 1758 1437 1210 1063 686
22 0 0 35 23 79 39 29 0 0 0 0 0 0 0 0 103 213 302 253 228 779 947 1025 1283 1587 1569 1502 1647 1677 1649 1540 1453 1636 1520 1563 1548 1659 1695 1622 1391 1744 1819 1978 1581 943 554 648 694
37 118 14 54 33 108 93 57 19 0 0 0 0 0 0 21 158 208 297 253 367 556 569 898 1238 1261 1190 1453 1464 1440 1508 1465 1552 1390 1555 1452 1574 1625 1657 1451 1499 1690 1752 1526 1603 1236 782 851 913
74 112 98 63 11 122 45 4 1 53 0 1 0 0 0 63 94 123 157 224 272 354 433 749 810 993 1051 1266 1361 1315 1358 1016 1301 1294 1416 1321 1207 1122 1315 1619 1640 1732 1723 1808 1240 736 599 752 744
0 80 122 104 83 51 61 9 1 42 4 11 1 35 21 3 83 147 140 78 97 169 510 495 628 731 918 1322 1135 775 852 453 473 671 753 755 930 782 1160 1413 1646 1768 1952 885 237 315 502 401 583
48 72 76 294 194 130 60 61 129 34 1 0 0 7 13 0 58 144 147 151 162 296 440 516 536 523 679 812 684 599 603 526 365 446 668 708 819 938 942 848 917 1243 680 5 6 231 287 136 150
0 0 74 438 327 137 26 42 47 34 74 0 5 8 18 11 12 75 137 168 215 232 323 430 376 435 371 171 417 604 610 425 469 517 589 564 440 488 359 201 353 364 77 0 230 366 657 932 930
7 20 146 313 220 129 99 36 63 31 10 6 0 19 19 32 8 12 125 158 194 302 334 334 383 452 377 417 538 508 511 333 459 443 256 282 104 307 110 183 0 91 0 10 217 412 652 838 762
69 279 40 324 248 209 82 103 24 7 29 1 0 10 20 31 15 16 116 200 180 282 363 434 524 501 478 228 307 439 486 272 191 259 294 617 49 6 0 16 0 173 0 0 105 326 459 761 224
71 117 303 419 220 150 73 30 1 2 25 0 0 7 39 33 35 48 87 102 167 242 274 318 424 662 602 293 228 279 294 339 377 489 570 487 111 317 70 186 209 458 340 204 194 400 891 846 238
22 83 76 270 227 106 97 21 4 5 31 1 9 8 15 47 27 69 38 0 142 95 124 257 248 639 357 372 260 190 230 260 576 662 529 422 336 488 509 312 302 356 483 555 602 733 866 592 325
0 5 26 306 184 117 208 86 16 32 86 0 3 6 11 40 67 71 59 43 108 3 34 188 235 323 718 498 397 189 281 488 556 579 707 776 706 818 572 567 490 560 528 697 659 516 606 593 514
0 1 85 162 143 145 114 127 85 60 113 0 3 8 25 31 37 58 78 23 79 0 0 85 84 295 610 441 308 269 286 271 412 810 797 888 739 558 648 616 825 895 586 534 606 665 795 588 354
0 0 29 81 164 0 91 148 132 150 129 18 11 7 18 25 25 22 67 65 29 0 0 0 60 288 555 441 431 328 327 428 584 734 822 989 745 238 431 685 721 872 612 671 767 1018 774 877 595
0 0 42 106 32 19 12 218 174 182 73 93 2 2 2 22 31 41 79 56 0 26 0 0 96 163 327 407 387 499 425 510 453 488 479 939 492 130 523 565 491 683 798 988 938 884 685 527 308
0 0 5 88 17 0 0 11 49 213 157 44 29 16 4 7 7 58 100 42 0 0 5 49 148 128 55 461 344 411 320 254 530 518 536 898 839 852 365 621 690 732 613 677 1055 644 319 327 566
0 0 1 123 82 37 2 0 28 37 105 79 90 61 6 6 2 43 103 110 54 98 93 0 48 50 134 230 377 288 267 311 306 524 634 818 1136 995 606 784 628 726 372 376 784 776 1052 669 624
0 0 1 88 49 45 0 0 0 0 51 64 128 100 23 0 0 7 91 141 116 77 187 132 56 71 407 351 362 215 79 104 119 525 738 929 822 1141 1103 502 69 545 413 464 772 1363 1077 1079 904
0 0 196 109 42 9 12 48 1 0 29 53 132 80 101 43 3 1 45 119 148 138 215 171 94 47 269 545 511 214 135 224 345 488 546 709 825 1076 1205 918 736 476 383 474 758 697 1188 933 983
0 0 9 26 18 1 41 76 19 5 62 109 119 114 187 171 118 70 0 100 151 168 234 260 169 32 44 217 433 459 332 125 329 500 691 730 735 1025 895 1059 925 698 381 455 638 1195 1024 1226 923
0 0 0 5 35 7 71 2 13 123 367 144 273 198 127 178 156 27 28 25 115 155 227 319 216 132 204 135 303 526 468 364 236 499 532 541 598 934 902 1141 1143 1030 792 881 1058 1068 1198 1023 983
0 0 0 0 0 2 18 22 14 26 155 188 211 121 119 169 216 138 106 43 62 114 194 234 289 251 184 292 218 403 518 433 411 401 404 231 531 784 936 984 1087 1210 1073 1089 1245 1193 1240 988 727
0 0 0 0 0 1 25 62 30 9 71 141 100 29 52 146 283 311 212 135 92 84 226 251 364 392 424 600 456 345 431 343 172 427 648 810 714 913 937 1150 1071 1126 1305 1153 1189 1228 964 1031 682
0 0 0 0 0 0 18 85 185 28 99 91 72 90 85 68 105 122 211 234 180 112 145 192 185 294 383 526 567 428 550 604 252 328 1011 870 763 761 878 973 873 1053 1339 1425 1055 1022 1042 900 816
0 0 0 0 0 44 50 80 193 117 67 37 48 21 32 36 38 116 155 143 125 131 123 1 108 108 209 310 422 518 634 536 757 577 855 821 757 544 766 467 517 680 848 1101 1384 1183 1156 879 757

GFSSGP_con_mlcape_099.txt.gz
CAPE
4 0 0 3 30 20 9 51 142 36 0 30 0 74 130 86 119 0 132 210 428 705 1150 1163 1397 1633 1390 1373 1190 1268 1338 1761 1680 1936 1851 2087 2079 2043 2204 2201 1969 1929 1500 1525 1739 1298 1438 1444 1417
0 0 7 13 17 0 9 85 133 40 7 27 82 116 177 145 230 141 123 392 553 930 1293 1383 1355 1262 1892 1366 1339 1430 1188 1274 1831 1823 2014 2165 2165 2150 2069 2085 2163 2072 1609 1784 1677 1391 1357 1351 1378
0 0 3 46 7 0 10 35 75 93 51 51 140 111 188 191 151 182 243 539 841 1053 1322 927 1156 1811 1812 1813 1876 1820 1826 1438 1602 1680 1995 2110 2117 2054 2068 2183 2204 2252 1932 1842 1722 1392 1268 1201 1215
0 41 0 12 0 23 33 3 33 67 59 111 85 85 100 133 171 215 423 579 651 920 757 1786 1760 1675 1803 1787 1629 1689 1811 1721 1644 1763 1848 1997 1996 2114 2202 2374 2018 1764 1709 1858 1689 1549 1304 1198 1195
42 43 48 30 4 20 71 2 19 42 31 50 32 33 45 172 286 179 339 395 458 350 991 1425 1580 1733 1704 1795 1750 1791 1932 1730 1797 1637 1559 1667 1943 2105 2106 1978 2133 1800 1641 1615 1607 1508 1191 1123 1330
88 0 0 11 0 24 4 0 0 35 60 28 3 4 31 225 57 129 187 226 79 236 717 1427 1586 1589 1604 1738 1748 1735 1684 1687 1683 1359 1467 1355 1889 2004 1831 2095 2016 1900 1731 1465 1478 1319 1160 1197 1392
28 0 4 25 66 22 11 0 2 43 12 0 0 0 33 70 69 26 64 0 276 559 872 1277 1317 1484 1351 1699 1399 1656 1759 1533 1719 1533 1570 1779 1884 1877 1771 1786 1939 2130 2005 1583 1359 1042 1023 1022 1264
38 27 20 0 8 44 39 30 37 24 0 0 0 0 9 0 4 121 0 100 313 728 1006 912 1165 1429 1287 1474 1605 1646 1540 1482 1462 1556 1578 1719 1731 1800 1840 1675 1969 1837 1550 1545 1340 1148 973 1097 1060
74 59 6 4 88 18 36 29 46 76 0 0 10 0 0 97 201 123 3 8 355 694 672 962 1058 991 1190 1278 1348 1501 1537 1341 1453 1486 1598 1448 971 1127 1460 1689 1841 1737 1861 1447 984 916 937 935 1092
0 9 12 32 93 41 49 8 23 29 0 33 0 14 113 141 149 200 8 0 167 256 660 809 793 771 970 1190 1196 806 961 1096 1067 1210 1037 851 916 1131 1462 1833 1940 2052 1035 598 592 923 668 490 589
1 72 76 56 20 97 23 34 76 2 21 2 18 32 105 117 167 65 9 0 0 158 512 484 589 774 946 922 764 692 513 426 569 624 704 826 927 1193 1003 1081 1372 1033 395 2 374 372 422 307 185
1 0 123 206 53 133 43 64 99 16 26 4 62 89 105 124 111 89 23 62 112 204 250 436 541 486 644 606 590 590 497 419 353 502 621 702 660 615 467 438 677 281 15 3 195 516 765 851 922
0 22 144 358 281 140 92 57 95 3 7 30 73 25 59 110 111 122 107 169 217 181 212 343 419 387 101 180 425 543 582 439 471 598 477 439 348 290 214 134 134 202 27 22 251 528 596 620 474
19 71 1 334 230 148 31 64 94 53 20 20 40 16 66 103 122 141 163 198 226 231 206 312 375 364 200 247 382 389 491 449 375 374 375 158 252 141 110 54 0 71 0 0 148 320 602 515 217
249 108 100 335 197 126 47 28 14 30 3 8 22 32 22 32 88 135 170 208 198 263 235 250 421 434 269 278 274 351 461 285 202 137 280 301 4 2 0 12 239 335 287 387 440 605 808 329 293
43 173 99 148 206 207 84 42 8 12 16 8 16 12 36 18 62 134 186 196 211 264 301 385 547 474 409 248 199 256 265 297 468 497 518 416 36 397 224 255 256 275 368 519 566 595 827 364 315
34 56 147 48 181 166 90 44 0 20 16 2 13 14 12 25 68 129 177 161 224 226 329 327 524 420 299 290 190 166 207 433 493 550 377 409 323 744 564 416 381 456 462 555 757 640 542 560 494
0 0 110 59 190 130 80 80 9 27 14 6 3 10 5 27 88 142 153 208 219 192 203 234 309 352 394 257 158 117 191 470 492 758 517 678 690 700 518 471 713 825 591 458 601 573 648 668 352
0 0 0 63 54 32 93 89 0 35 33 0 0 2 16 63 146 145 159 235 154 81 191 183 280 510 269 275 206 157 194 384 487 780 750 735 581 446 488 664 663 849 633 645 779 972 714 762 538
0 0 0 120 9 40 66 94 40 91 45 8 0 4 9 71 151 163 113 177 144 70 113 137 123 392 234 195 231 258 290 322 402 518 664 809 654 228 369 521 620 676 658 817 919 912 700 448 255
0 0 0 77 72 48 33 33 108 32 53 29 8 0 12 54 86 168 131 147 148 66 54 36 122 283 267 323 355 258 215 314 436 482 409 650 553 363 481 525 559 615 600 630 814 655 321 423 645
0 0 0 1 14 9 0 6 12 78 101 45 38 0 4 14 97 159 144 135 146 70 52 71 92 16 239 281 276 249 239 118 213 377 398 692 812 794 424 617 631 510 385 289 732 720 956 764 641
0 0 1 18 34 20 0 0 0 3 42 70 26 32 0 1 48 107 126 132 120 107 50 72 106 87 132 219 270 235 183 199 153 341 517 624 821 909 793 653 375 584 384 391 661 1047 1004 1084 990
0 1 101 52 54 1 0 0 0 2 27 66 58 59 9 0 9 121 127 103 96 158 83 124 121 101 118 149 194 218 182 33 183 192 385 507 760 673 943 582 71 407 397 303 583 593 868 882 926
0 0 0 0 20 0 1 13 0 0 0 59 86 60 19 0 10 53 93 94 82 169 153 103 102 85 211 253 234 301 80 197 177 303 391 447 567 719 909 904 692 613 301 429 444 914 693 913 964
0 0 0 0 0 0 10 6 0 32 16 65 85 141 124 28 25 0 39 125 151 136 241 179 119 89 148 318 317 310 252 174 188 384 478 523 569 645 835 708 873 812 676 207 673 792 925 735 846
0 0 0 0 0 0 15 0 0 94 114 126 101 151 151 105 83 75 2 107 144 156 218 227 132 92 87 124 256 340 340 358 248 279 424 556 545 563 800 812 933 876 856 743 979 854 975 1164 804
0 0 0 0 0 0 0 0 7 105 217 151 105 103 42 122 191 178 68 13 58 143 223 455 196 196 150 182 130 223 400 443 412 318 395 376 276 372 714 822 871 962 1043 998 928 1065 1100 951 832
0 0 0 0 0 0 0 0 199 39 113 78 81 51 29 38 111 214 173 109 41 145 216 258 332 194 310 392 377 304 345 393 414 301 338 673 720 688 818 841 922 1008 1003 1050 1040 1056 1039 905 812
0 0 0 0 0 0 0 0 171 60 70 60 66 36 26 43 57 95 170 135 53 96 177 168 156 145 144 314 489 548 579 519 520 484 298 605 815 702 762 722 735 829 965 1100 1237 1112 1022 1006 896

GFSSGP_con_mlcape_102.txt.gz
CAPE
0 0 0 1 19 5 18 64 102 0 0 0 0 11 12 80 78 0 44 149 221 565 1019 1121 1370 1792 1457 1426 1430 1632 1918 1880 1966 2029 1931 1892 1836 2030 2000 1955 1808 1666 1849 1555 1351 1493 1442 1530 1430
0 0 7 23 8 10 26 65 25 0 0 0 6 108 152 87 156 65 70 364 470 754 1096 1060 1462 1384 1394 1122 1048 1137 1567 1727 1883 1784 1674 2033 2101 1877 1904 2035 1798 1747 1931 1610 1556 1724 1471 1525 1095
0 0 6 41 15 17 31 67 48 0 15 0 143 176 184 179 85 75 281 585 679 922 1111 1334 1039 1878 1306 1537 1827 1682 1131 1659 1672 1355 1943 2063 1830 2030 2019 1840 1974 2049 1844 1676 1532 1491 1311 1632 1681
0 22 0 10 2 55 55 87 40 25 27 88 109 111 73 56 85 260 601 524 506 973 730 872 1696 1694 1753 1807 1763 1686 1635 1453 1611 1392 1938 1961 2024 1868 1929 1917 2063 1973 1760 1498 1458 1440 1311 1404 1417
28 55 34 0 7 42 52 32 59 45 78 92 82 53 25 215 248 467 413 474 607 455 1107 1530 1626 1712 1857 1683 1759 1586 1547 1728 1646 1670 1819 1953 2157 2160 1876 1729 1735 1889 1906 1630 1508 1358 1366 1449 1693
124 0 0 1 3 24 25 28 71 46 63 38 0 0 53 203 126 274 336 394 327 370 1211 1463 1478 1513 1712 1729 1763 1723 1420 1207 1341 1592 1556 2015 1744 1862 2299 1978 1686 1587 1641 1625 1521 1355 1318 1519 1843
30 0 0 14 2 38 16 36 47 27 22 2 0 0 83 39 116 171 216 219 157 663 1060 1357 1468 1462 1640 1465 1516 1589 1387 1374 1531 1634 1770 1865 1395 1403 1909 2105 2047 1807 1741 1460 1343 1235 1405 1468 1565
30 0 16 5 58 17 89 66 26 16 6 0 0 0 10 15 4 101 161 55 357 632 1045 1067 1203 1153 1233 1037 1496 1395 1484 1323 1533 1662 1766 1754 1171 1502 1870 1776 1683 1695 1635 1588 1394 1297 1225 1298 1425
91 71 6 0 44 42 93 20 71 20 0 0 18 0 40 74 37 27 0 127 233 710 771 930 1224 1039 1163 1228 1327 1316 1258 1312 1337 1528 1503 980 864 1192 1615 1951 1734 1774 1639 1521 1278 1192 1210 1323 1479
1 7 14 24 57 24 59 23 26 0 0 0 0 23 87 105 9 0 0 0 95 355 535 837 838 827 985 1208 948 1005 1066 1076 1174 1029 854 796 1087 1355 1865 1998 1972 1498 674 993 1252 1019 753 480 703
0 27 77 45 45 13 15 38 7 4 0 0 0 1 59 14 0 0 0 0 91 165 523 700 549 688 864 892 575 617 586 596 666 708 691 696 1011 1119 1013 1314 1137 367 100 558 335 366 447 332 302
8 14 16 71 8 59 35 42 12 34 0 0 19 38 54 48 109 23 0 20 57 126 309 416 458 466 624 446 455 362 286 428 505 638 674 685 688 689 496 700 407 47 0 102 360 602 700 797 782
1 16 207 246 48 71 83 7 0 30 26 34 66 91 93 115 103 52 15 1 41 100 201 226 323 297 364 437 459 443 473 326 391 500 504 514 414 275 185 237 139 190 0 78 410 470 560 560 409
5 56 32 236 167 120 7 42 0 23 73 55 84 64 112 141 97 74 39 68 43 106 148 269 228 215 142 205 376 445 445 375 455 558 417 250 305 200 176 19 0 86 0 11 324 691 641 382 193
194 78 69 204 183 164 88 63 10 18 93 94 70 68 150 163 134 99 93 120 72 129 188 245 273 268 81 166 326 362 443 336 243 351 303 128 217 32 11 2 256 269 454 602 594 869 498 207 308
3 92 91 264 184 123 34 38 62 5 43 86 54 63 110 120 153 133 153 164 123 133 207 259 369 289 192 198 246 280 354 254 179 112 295 344 117 72 8 173 215 278 411 634 767 690 562 272 338
46 28 95 46 190 156 72 27 56 9 18 69 84 81 60 66 110 142 178 169 151 155 172 211 385 447 284 204 185 206 233 302 391 426 401 352 96 462 404 302 372 472 460 602 695 592 642 667 533
0 0 86 43 87 171 76 26 15 42 10 59 80 97 37 73 111 151 184 194 176 191 207 282 395 420 301 233 151 133 156 410 366 358 328 308 465 681 496 480 718 822 558 550 687 726 504 570 355
0 0 147 72 140 44 59 50 0 25 1 4 34 43 27 80 123 146 165 160 172 202 253 262 248 245 207 218 143 111 169 488 527 622 521 455 633 582 422 630 676 697 584 609 839 945 807 619 302
0 0 86 100 1 44 29 43 3 18 5 10 0 30 45 76 98 148 132 167 163 178 214 201 182 258 192 178 155 125 159 294 396 480 652 662 569 294 411 582 607 686 706 801 888 799 501 324 493
0 0 23 71 50 23 41 49 40 31 28 5 0 2 34 66 73 111 130 154 151 139 156 144 220 296 167 187 176 156 173 228 311 385 430 631 468 157 259 437 395 614 621 676 784 457 566 609 557
0 0 0 39 18 1 16 0 52 32 33 47 1 1 7 38 109 85 131 145 127 100 101 117 131 266 158 178 195 164 128 123 321 353 350 409 644 666 450 384 498 441 419 304 769 765 768 814 840
0 0 0 6 1 13 2 0 0 93 56 17 5 13 0 13 93 89 109 132 85 69 0 59 35 141 180 207 235 193 176 133 97 298 415 512 698 870 751 508 421 531 367 377 573 908 884 1001 996
0 0 0 34 26 0 0 0 0 4 40 35 6 0 0 1 64 117 111 98 75 31 0 0 0 100 169 155 142 173 197 182 197 190 385 398 624 648 802 759 307 356 402 258 533 751 776 775 716
0 0 0 1 11 0 0 0 0 0 0 41 76 3 0 0 31 103 81 68 71 97 19 6 0 0 12 105 118 139 167 135 57 159 258 331 514 598 599 829 412 228 374 252 444 733 642 654 826
0 0 0 0 0 0 0 0 0 0 15 22 89 57 0 0 23 70 97 86 83 117 84 52 18 60 96 85 85 114 139 101 116 199 235 355 363 513 660 782 844 745 603 275 249 660 913 674 591
0 0 0 0 0 15 16 9 0 18 7 51 124 82 4 0 0 23 64 97 69 55 141 118 96 78 110 168 175 197 170 205 175 139 209 353 449 496 585 746 694 765 747 411 599 833 739 910 854
0 0 0 0 0 0 0 0 0 36 56 38 152 126 85 25 0 17 1 32 85 82 110 237 107 82 76 182 274 259 257 241 267 294 321 326 362 366 456 471 599 656 815 786 689 824 956 957 883
0 0 0 0 0 0 0 0 119 66 166 78 94 124 132 172 114 96 50 7 51 52 71 178 161 130 67 115 105 128 174 250 351 368 259 299 390 495 503 545 680 730 809 934 926 857 888 952 831
0 0 0 0 0 0 0 0 97 135 199 149 108 76 52 65 114 253 241 69 4 53 86 171 206 159 122 206 218 217 232 300 269 292 325 272 344 498 472 569 716 758 807 895 892 948 878 869 814

GFSSGP_con_mlcape_105.txt.gz
CAPE
0 0 0 10 43 27 46 64 23 0 0 0 0 0 6 128 94 0 65 373 402 564 1141 1195 1300 1662 1439 1431 1798 1931 1950 2018 2115 2024 2109 2077 2094 2066 1995 1983 1846 1773 1284 1670 1597 1649 1505 1473 1481
0 0 20 25 15 1 19 120 0 0 0 0 41 59 154 95 129 19 125 421 505 783 1114 1194 1438 1391 1217 1140 1266 1641 1771 1513 1954 1993 2071 2016 2032 2038 1884 1687 1914 1731 1762 1668 1751 1437 1191 847 719
0 0 10 51 28 18 27 83 0 0 0 0 201 247 275 113 27 61 284 506 635 1001 1101 1472 1473 1418 1221 1382 1482 1022 1485 1780 1649 1773 2050 2094 1574 1333 1730 1841 1933 1829 1801 1769 1562 1450 1632 1671 1290
0 0 1 4 0 71 62 72 0 0 0 158 156 146 74 41 39 250 483 540 706 964 1011 898 1825 1819 1953 1550 1255 1557 1112 1617 1020 1775 1802 1837 1801 1426 1860 2047 2014 1796 1641 1626 1573 1457 1596 1456 1437
88 115 48 3 3 83 27 26 10 0 11 145 112 22 39 264 408 402 532 518 746 638 265 1295 1866 1878 1783 1701 1589 1610 1411 1214 1368 1898 1767 1461 1641 1608 1719 1982 1931 1737 1768 1682 1542 1537 1587 1809 1840
111 6 4 0 14 52 21 51 40 82 123 53 8 0 24 224 260 418 455 593 450 484 1142 1295 1696 1766 1283 1623 1354 1447 1319 1564 1721 1745 1573 1457 1980 1923 1869 1804 1899 1748 1621 1576 1545 1572 1774 1936 1892
16 15 0 14 3 40 35 66 64 81 66 34 1 0 73 186 254 385 483 494 171 1120 1151 1345 1132 1431 1565 1523 1522 1339 1329 1572 1678 1073 1567 1524 1569 1629 1973 1911 1814 1671 1516 1502 1482 1578 1540 1660 1491
45 9 10 17 0 42 68 53 27 34 27 0 1 0 0 128 203 327 336 84 340 631 1134 1362 1387 1354 1191 1374 1371 1500 1447 1681 1540 1195 1399 1432 1523 1341 1577 1569 1757 1793 1590 1540 1472 1384 1330 1521 1482
153 56 0 1 15 11 71 10 18 0 2 0 0 0 13 128 161 181 39 47 243 831 984 1221 1212 1231 1154 1229 1281 1447 1369 1576 1699 1565 1202 1271 1605 1559 1596 1514 1842 1863 1814 1522 1422 1423 1402 1537 1590
7 26 4 14 8 12 69 17 0 0 0 0 0 8 8 128 121 21 0 14 176 667 716 1065 1092 999 1054 1074 1284 1405 1393 1427 1522 1441 1442 1384 1428 1703 1656 1726 1653 1167 1509 1565 1314 1019 755 854 1418
0 37 56 30 50 35 56 40 0 3 0 0 0 0 40 76 63 0 0 0 88 592 713 940 893 1096 1092 1126 1153 1011 1023 1200 1218 1195 1237 1640 1616 1748 1960 1625 572 631 1334 799 729 862 1077 1037 896
22 55 72 37 49 33 37 15 12 32 0 0 1 19 57 12 0 0 0 3 196 311 677 778 741 972 1088 838 789 695 649 733 861 1098 1168 1283 1151 1258 1430 922 670 378 613 855 1143 1320 1300 1458 1492
0 21 81 38 59 120 9 20 8 8 0 0 31 42 3 9 34 32 0 117 154 199 407 560 734 808 667 727 662 675 775 718 853 1011 1029 983 887 816 838 676 603 569 474 880 1135 1186 1296 1232 1019
10 80 71 167 80 136 11 5 0 19 6 20 27 23 42 153 184 104 66 96 122 172 277 426 568 694 685 685 827 972 900 823 918 1013 885 797 827 771 619 146 480 263 587 781 1189 1408 1258 781 1058
113 68 226 158 88 97 13 0 9 70 27 52 65 87 108 132 141 70 72 120 111 187 298 357 431 540 457 550 822 853 898 731 774 819 714 630 700 382 651 726 841 958 1156 1276 1403 1508 972 914 931
77 12 77 219 100 76 20 14 36 65 142 106 127 141 177 180 165 146 126 110 159 236 376 496 311 398 263 507 731 827 885 707 527 661 744 511 458 382 329 804 911 966 1185 1437 1416 1290 915 990 1011
2 14 54 151 169 94 32 46 1 34 96 88 119 106 159 206 207 200 195 153 182 351 449 486 625 561 438 619 645 651 711 839 778 728 753 883 646 982 871 886 1011 1135 1219 1348 1320 1305 1399 1386 1153
0 12 111 5 72 152 121 108 35 0 28 123 88 97 150 144 211 219 241 218 210 292 430 521 672 836 702 583 576 554 598 926 966 975 916 723 639 1273 1066 1081 1409 1454 1140 1387 1534 1302 1275 1261 1047
0 0 46 206 113 111 120 135 26 0 23 84 100 71 139 122 192 216 243 279 245 307 374 397 601 808 667 528 500 533 524 870 795 887 860 826 1302 1090 984 1435 1628 1387 1394 1355 1526 1419 1285 1068 1100
83 102 101 109 29 29 6 52 117 48 43 101 105 141 115 108 137 221 234 253 240 277 410 514 573 697 573 616 491 508 643 662 800 1059 928 1203 1170 999 1034 1335 1353 1419 1484 1460 1466 1187 915 1055 1187
0 0 99 140 65 44 0 24 72 58 53 52 35 133 154 115 138 216 200 221 240 245 350 447 485 536 518 549 488 405 528 706 610 674 938 1207 1163 724 898 985 1100 1344 1470 1306 1264 1371 1163 1331 1236
0 0 121 90 21 0 11 0 9 64 33 32 45 11 87 122 167 203 218 232 221 229 317 447 478 514 522 492 521 274 381 170 202 370 685 935 1072 917 868 1029 1065 1181 1114 1040 1568 1556 1490 1745 1596
0 0 9 136 52 67 8 15 21 76 49 12 4 24 3 82 95 175 202 216 248 283 262 346 417 551 491 445 566 460 374 232 279 738 487 752 797 964 1066 1042 1210 1006 967 1103 1408 1579 1653 1619 1761
1 28 87 78 20 0 32 28 0 63 78 94 35 27 22 23 100 146 173 251 278 291 240 240 304 340 533 414 489 431 319 318 402 551 598 517 835 845 1103 1316 1114 1236 1167 881 1277 1677 1601 1447 1353
0 3 0 0 0 0 0 24 20 45 69 128 88 72 39 23 64 163 187 219 209 189 196 191 262 239 357 418 461 496 337 527 509 526 652 812 918 1041 880 935 916 624 1096 982 1132 1328 1453 1579 1630
0 0 3 0 0 0 1 33 54 35 62 98 174 109 36 21 35 148 204 179 208 183 160 178 199 223 338 436 423 452 488 513 421 371 508 801 878 782 1062 917 982 999 1223 928 979 1313 1651 1380 1443
0 0 0 1 0 1 13 17 14 79 170 109 139 180 21 3 10 110 207 224 135 117 182 166 163 237 295 310 379 327 340 411 443 494 619 709 797 811 1034 1187 1205 1295 1296 1149 825 1272 1216 1597 1524
0 0 0 0 0 0 0 15 29 141 124 167 251 235 67 11 24 60 95 185 161 118 228 203 186 97 151 314 382 340 471 467 559 534 568 634 788 897 870 911 1092 1186 1294 1313 1116 1175 1241 1312 1517
0 0 0 0 0 10 7 12 83 207 260 294 446 328 206 37 19 64 150 209 128 125 183 252 313 256 84 147 403 375 352 621 623 578 411 700 742 769 668 797 793 932 1077 1230 1414 1362 1239 1269 1632
0 0 0 0 0 0 17 0 252 313 424 333 375 412 411 241 161 215 191 130 145 109 142 245 278 237 230 174 216 297 330 400 545 609 442 496 390 806 912 983 658 744 1072 1307 1227 1319 1392 1193 1139

GFSSGP_con_mlcape_108.txt.gz
CAPE
0 0 15 129 462 184 55 108 0 0 0 0 0 0 58 270 133 66 0 105 273 684 872 1131 1487 1634 1695 2021 2044 1852 1974 1977 2091 2141 2102 2098 2089 2010 1958 1731 1411 1696 1512 1635 1640 1540 1509 1516 1339
0 0 109 211 290 111 55 15 0 0 0 0 0 19 270 399 32 14 67 74 377 742 821 1073 1378 1218 1228 1357 1784 1828 1703 2038 2133 2000 2070 2057 1799 1867 1836 1899 1830 1734 1678 1637 1419 1007 840 821 850
0 38 296 408 194 138 44 0 0 0 0 164 265 314 512 136 0 0 22 254 563 817 1103 1333 1342 1052 1016 1090 1096 1597 1763 1851 1782 2045 2163 1465 1542 1802 1898 1918 1864 1976 1856 1727 1484 1544 1598 1274 1296
38 374 211 161 138 114 106 0 0 0 72 405 356 380 153 0 7 59 203 401 865 973 1188 1346 1457 1607 1666 1375 1302 1361 1555 1170 2025 1891 1876 1589 1445 1623 2090 2019 1281 1578 1540 1593 1601 1668 1534 1850 1478
419 488 266 49 228 130 127 0 1 0 170 354 375 264 13 112 92 191 413 584 778 465 310 1275 1765 1445 1733 1673 1772 1363 1244 1291 1836 1889 1586 1689 1652 1538 2026 1928 1606 1849 1809 1753 1700 1788 1953 1871 1484
317 163 132 1 58 211 149 1 9 4 175 219 138 16 12 174 145 367 485 645 100 3 434 894 1185 1610 1341 1489 1457 1550 1750 1730 1630 1767 1570 1749 1933 1899 2080 1966 1889 1761 1715 1673 1784 1874 1911 1796 1292
47 28 36 7 33 203 155 47 45 184 189 70 9 0 93 225 285 355 488 99 270 554 799 832 1081 1316 1562 1522 1411 1467 1681 1351 1375 1277 1517 1360 1688 1894 1945 1967 1759 1688 1666 1693 1703 1635 1491 1464 1105
176 8 100 33 8 116 225 191 248 252 224 48 0 0 73 224 243 308 103 36 317 449 883 940 976 1158 964 1130 1607 1604 1534 1487 1392 1478 1491 1395 1292 1507 1892 1567 1862 1742 1722 1553 1555 1436 1590 1572 1085
208 75 86 60 3 88 143 156 161 80 17 20 1 2 66 130 183 58 0 92 202 622 719 683 869 1112 1201 1189 1323 1436 1599 1477 1343 1205 1434 1254 1217 1303 1592 1945 2017 1979 1658 1601 1668 1537 1583 1505 1404
90 138 50 32 21 94 175 107 68 58 10 14 0 8 58 93 85 0 0 28 172 464 513 787 838 975 912 681 1048 1009 1024 1053 1011 1081 1374 1218 1324 1433 1546 1571 1580 1727 1693 1569 1148 780 648 1045 731
48 95 52 20 15 103 127 61 36 97 19 26 36 29 39 22 34 0 0 0 161 289 464 679 733 706 545 695 624 593 733 980 1330 1375 1328 1201 931 937 816 591 569 1056 1548 1048 1139 1202 1080 1126 678
150 95 48 43 17 82 113 31 121 35 0 0 0 37 18 2 0 0 0 0 159 202 389 312 475 593 721 527 271 364 603 692 890 1202 1183 1080 1048 1055 782 642 657 880 1067 1397 1580 1303 1680 1486 1382
72 83 137 32 25 50 19 45 70 48 0 0 0 6 26 0 0 0 0 12 118 133 234 267 364 648 842 726 323 375 479 734 681 769 946 793 965 977 891 1056 990 989 1148 1330 1466 1445 1583 1337 1169
5 103 206 42 41 72 38 0 2 13 0 0 0 5 2 0 0 0 0 45 14 121 164 196 462 780 787 598 596 505 591 757 763 636 1036 1207 951 964 837 642 810 891 1176 1307 1585 1738 1020 809 824
71 139 252 198 141 110 10 0 0 4 4 0 0 4 16 62 107 46 47 41 14 129 118 197 530 705 737 732 831 532 530 691 687 695 1101 1175 863 1329 979 988 819 1195 1725 1854 1804 1235 1228 702 559
87 192 157 139 134 111 42 2 0 21 3 15 8 3 73 119 96 35 0 1 106 143 64 223 240 385 657 784 1012 884 724 569 572 601 776 1153 1119 1152 1113 828 1077 1437 1555 1500 1118 844 739 820 891
45 3 81 123 93 40 21 9 1 134 50 61 24 21 122 161 152 102 27 74 171 218 160 222 299 309 526 965 835 944 1049 772 722 857 1038 1438 1374 1539 1046 1065 1383 1817 1484 1289 996 1005 1009 996 863
93 54 69 84 155 70 27 46 13 26 137 130 64 64 127 147 193 199 69 130 292 352 422 543 518 580 639 824 976 773 766 933 997 841 1003 1438 1414 1841 1385 1366 1671 1651 1357 1201 1195 1600 1318 1157 1035
68 168 71 193 177 55 54 30 6 16 120 88 116 77 83 103 173 228 191 121 236 442 548 631 656 763 797 743 506 498 535 680 923 957 1275 1462 1775 1757 1905 1382 1832 1610 1353 1788 1981 1414 1405 753 1220
14 102 171 166 130 64 0 92 7 0 31 168 91 77 89 92 167 241 293 240 195 297 413 522 617 860 973 673 572 523 662 666 679 1018 962 1149 1589 1817 1488 1490 1310 1637 1223 1029 1841 1956 654 929 1708
171 175 203 153 103 27 0 1 59 1 21 113 147 115 109 127 147 216 295 331 269 305 492 625 590 579 489 659 880 837 995 1129 1159 905 699 918 1245 1467 1435 1139 1473 1229 1406 1180 1614 1713 1811 916 1616
0 16 237 197 109 38 4 2 30 6 5 104 131 132 122 94 164 235 272 305 313 306 537 774 756 660 565 813 709 584 472 385 407 518 791 1111 1416 1179 1253 1635 1463 1528 1410 1753 1681 1641 1722 2264 1332
0 0 41 136 54 51 11 1 0 56 6 5 63 76 123 145 135 223 330 312 287 320 424 705 943 884 591 788 737 472 317 314 474 522 1026 1226 1115 1117 1144 1581 1822 1826 1374 1721 1860 2043 2259 1648 1686
0 0 5 154 77 4 64 80 0 36 123 0 12 80 63 89 162 185 236 338 334 311 387 524 899 895 853 937 651 550 589 546 532 625 747 687 808 997 1297 1517 1704 1857 1634 1599 1465 2166 2106 2112 2051
0 75 27 12 13 22 5 50 48 31 89 182 14 31 79 49 123 185 239 370 395 376 380 449 732 1035 825 732 727 662 432 552 457 569 613 783 705 850 1037 1233 1384 1112 1830 1775 1558 2011 2064 1914 1832
0 10 38 25 33 68 48 98 167 124 208 254 293 111 124 113 79 103 253 318 414 417 448 417 609 816 871 858 700 851 722 404 493 658 821 626 882 727 964 1000 852 1170 1599 1554 1703 1375 1300 1298 1438
0 0 5 6 34 61 35 134 226 161 235 263 334 350 196 99 102 125 237 354 439 433 484 455 503 752 664 637 847 730 692 443 651 585 935 963 1029 1095 1138 1058 1006 1133 1104 1552 1524 1076 1267 1571 1698
0 0 3 4 23 50 164 127 49 290 351 329 284 415 342 184 175 167 252 431 454 520 528 492 541 662 609 490 644 432 485 798 592 539 320 738 1173 1318 1108 965 985 1230 1521 1654 1338 1092 1097 1298 1184
0 0 0 1 1 44 86 113 385 535 496 479 388 438 491 353 155 184 358 453 556 415 283 386 638 675 514 535 511 445 513 399 817 601 533 746 848 1076 951 981 995 819 1109 1430 1552 1290 1112 1267 1296
0 0 0 0 0 11 24 111 585 578 684 820 863 738 629 463 226 273 210 277 315 466 551 264 430 535 739 570 438 750 497 397 333 591 471 716 604 906 765 845 995 1045 1092 1311 1281 1203 1021 1246 1208

GFSSGP_con_mlcape_111.txt.gz
CAPE
0 0 13 176 347 565 84 34 5 0 0 1 2 55 244 412 211 95 56 367 554 640 843 1261 1817 1920 2030 1993 1619 1943 1985 2092 2174 2092 2095 2006 1980 1925 1276 1771 1619 1775 1642 1617 1593 1525 1502 1572 1471
0 0 157 417 330 77 20 6 0 0 0 0 0 115 323 65 0 46 140 390 550 544 747 1138 1241 1246 1539 1943 1761 1779 2005 2153 2033 2095 1983 1908 1977 1992 1711 1674 1785 1796 1733 1129 1077 919 745 1258 1315
0 78 454 567 157 44 20 7 5 0 0 30 73 485 181 1 0 0 100 358 482 869 1193 1099 1104 913 908 1248 1659 1760 1808 1767 2058 1935 1513 1390 1882 1618 1868 1816 1813 1842 1548 1650 1625 1438 1455 1062 1372
56 538 614 527 176 296 6 5 0 0 214 283 392 203 0 14 16 0 122 526 586 941 893 941 1152 1793 1672 1194 1509 1693 1498 1973 1906 1821 1495 1396 1977 2018 1617 1462 1263 1251 1536 1771 1644 1659 1731 1251 1322
188 703 509 299 119 115 15 8 0 233 277 340 354 0 0 0 1 71 454 586 643 572 664 1041 1673 1595 1534 1754 1190 1419 1274 2005 1867 1801 1810 1768 2087 2016 1513 960 1579 1900 1822 1792 1999 1909 1736 1260 1212
516 417 231 74 107 143 18 22 17 209 391 395 161 10 26 0 32 268 440 525 77 173 581 787 1323 1476 1559 1581 1616 1486 1579 1876 1811 1678 1800 1492 1507 2075 1805 1561 1806 1775 1878 1841 1861 1671 1405 1149 1239
316 313 168 13 50 148 24 45 45 222 280 202 4 21 0 34 169 307 401 11 62 513 450 706 1049 1403 1579 1526 1620 1768 1667 1723 1605 1631 1702 1915 2020 2038 1973 1792 1840 1758 1796 1728 1704 1574 1403 1172 1208
403 310 198 77 20 89 115 62 123 195 187 117 5 4 1 157 152 289 18 233 685 596 793 872 1062 1243 1061 1281 1627 1516 1402 1509 1368 1364 1536 1832 1999 1970 1636 1639 1914 1816 1684 1603 1544 1660 1549 1133 1115
261 336 275 156 63 171 180 302 296 235 139 105 82 4 90 75 112 19 21 118 392 331 530 662 993 925 984 968 1167 1280 1305 1501 1294 1202 1046 1299 1104 1302 1830 1798 1988 1770 1709 1820 1612 1490 1499 1503 857
141 167 164 201 65 100 200 238 342 244 156 148 40 63 12 44 23 2 20 78 230 310 561 690 504 765 814 756 1179 864 826 979 398 698 876 1237 1210 1499 1175 1661 1936 1760 1552 1224 856 781 1345 1737 1626
99 152 158 115 41 219 170 249 232 228 111 85 68 46 36 11 14 2 20 85 161 385 225 652 663 702 523 468 706 971 977 706 770 1156 1076 923 958 993 284 658 1209 1514 1745 1312 1102 1239 1098 571 213
141 144 178 85 82 224 172 148 186 190 130 40 92 58 22 7 6 6 25 75 84 143 309 224 313 625 324 243 427 563 627 718 1024 1165 970 766 665 739 549 575 1215 1328 1289 1235 652 530 901 562 665
165 221 127 28 50 126 146 143 144 125 15 22 38 4 3 10 8 22 17 59 65 117 119 253 336 822 522 222 263 553 556 748 842 811 711 909 991 740 1050 1093 1056 1205 1220 1038 1034 944 943 767 744
194 178 108 51 16 80 82 35 44 7 16 10 7 8 1 8 6 8 14 70 40 121 151 156 590 824 656 298 409 414 542 559 708 623 918 1236 731 1149 950 1100 929 1023 1155 1334 1260 1569 772 619 352
53 149 178 30 36 68 11 0 26 0 17 11 5 22 18 3 13 3 18 12 66 145 96 385 656 270 338 342 400 587 372 659 559 981 1311 1304 1079 1426 929 838 882 1077 1218 1617 981 872 757 290 240
70 226 113 73 28 63 17 10 0 24 17 25 31 25 23 46 38 15 17 13 140 136 95 250 125 193 194 438 849 681 544 620 564 771 1045 1271 1379 1352 1514 938 1007 1180 1377 1026 691 769 371 375 412
146 36 98 71 98 31 37 32 0 51 38 50 47 45 69 91 55 41 22 66 178 137 110 294 160 254 449 631 837 691 784 568 740 674 899 1459 1463 1648 1255 873 1419 1640 835 729 552 561 958 355 394
85 113 67 35 70 49 44 27 0 34 78 47 54 51 73 70 80 43 52 106 169 134 218 198 225 473 557 711 440 461 788 594 566 1010 1415 1462 1416 1551 1693 1349 1314 2050 1110 549 1522 1932 657 842 647
8 25 25 59 110 24 18 10 0 69 135 57 39 60 64 93 83 46 68 67 132 207 277 320 461 674 773 637 519 396 523 604 784 1271 1263 1487 1561 1611 1891 1552 1555 2022 1154 1453 1077 1060 969 883 524
0 29 31 128 106 11 0 32 3 41 106 80 42 77 114 85 79 85 70 93 98 206 335 513 636 771 849 573 606 587 462 567 782 1017 1174 1473 1520 1773 1588 1843 1589 1676 1109 1345 1808 1763 744 601 1065
0 100 130 81 62 24 2 22 6 6 126 169 73 56 68 77 72 76 161 102 130 132 295 385 707 772 1046 1020 746 973 1242 1141 981 1074 944 1236 1445 1585 1745 1584 1907 1732 2086 1082 1749 1131 1505 1251 960
5 118 47 113 59 52 38 3 1 37 63 64 92 54 78 59 71 108 226 182 145 172 222 567 549 902 631 1334 872 725 298 476 683 790 731 1340 1281 1203 1331 1551 1579 1751 1038 1590 1343 1246 1961 2072 1019
1 1 95 146 71 35 17 25 9 23 1 10 119 92 72 97 93 127 169 240 270 232 220 363 501 714 765 895 988 915 741 578 650 678 1181 1140 1350 1406 1248 1502 1567 1673 1697 1793 2143 1826 2441 1714 1950
0 0 113 116 75 60 10 30 15 13 2 4 59 114 57 74 129 67 248 241 200 139 143 312 476 746 970 980 1010 868 428 784 653 848 1043 876 1095 1011 1325 1347 1682 1845 1847 1703 1622 2055 2020 2511 2207
0 20 89 40 62 96 51 70 29 41 18 28 49 103 165 98 64 119 285 184 215 188 113 236 567 796 703 777 715 772 1024 899 906 1023 799 653 493 772 1451 1467 1604 1429 1871 1848 1643 2021 1982 1920 2062
0 59 76 51 34 50 78 107 68 0 72 106 56 53 54 163 165 149 182 176 258 247 195 177 526 867 802 652 601 801 855 593 721 694 647 500 792 537 1385 1155 1453 1279 1543 1651 1796 1557 1540 1362 1517
0 4 116 1 27 68 73 155 319 194 183 253 135 77 54 185 125 175 207 235 210 318 292 324 768 890 774 608 691 732 736 624 831 808 1090 973 962 760 1054 831 930 1219 1478 1454 1668 1247 1367 1957 1739
0 5 3 39 11 6 52 15 62 277 298 313 380 118 105 170 204 204 161 174 449 278 410 419 599 788 714 501 603 637 512 632 661 868 774 847 595 1534 1213 1044 1000 1238 1362 1547 1528 1340 1417 1326 1288
0 0 1 34 48 5 15 157 149 209 320 383 444 452 197 219 239 304 131 254 359 387 482 503 607 957 908 712 695 512 373 377 537 702 727 937 1069 1305 1417 1242 1118 1252 1268 1303 1482 1579 1445 1396 1189
0 0 0 0 0 1 0 0 8 527 651 641 520 494 593 498 257 289 229 460 644 908 995 1017 789 933 1097 969 959 836 780 446 294 417 604 749 1034 1088 1147 1298 1366 1128 1252 1296 1440 1256 1057 1159 1234

GFSSGP_con_mlcape_114.txt.gz
CAPE
0 0 11 204 257 532 100 3 6 17 32 41 79 247 142 96 174 87 256 412 376 437 1006 1598 1754 1861 1893 1542 1906 1909 2023 2069 1805 1739 1775 1883 1319 1720 1716 1817 1727 1713 1665 1616 1555 1583 1522 1416 941
0 0 154 311 123 55 44 15 13 3 0 44 215 55 15 2 18 238 276 403 412 502 984 1032 1457 1794 1864 1610 1821 1988 1978 1929 1959 1896 1706 1988 1528 1728 1807 1743 1720 1356 1271 962 754 969 1134 1437 1072
0 1 189 35 53 50 17 34 4 0 3 301 165 16 0 0 38 121 319 487 286 909 835 737 930 990 1540 1562 1717 1692 1747 2063 1708 1663 1717 1809 1884 1794 1721 1891 1885 1659 1727 1703 1448 1361 1114 1448 951
8 385 432 93 29 147 40 4 0 68 87 61 0 0 1 0 31 214 376 320 818 880 387 695 1406 1523 982 1612 1685 1598 1883 1887 1707 1668 1880 1950 1956 1786 1502 1370 1327 1595 1749 1631 1726 1456 1096 1294 819
43 445 147 77 125 136 35 0 46 71 151 25 0 0 0 0 27 364 423 648 759 641 247 1408 1522 1565 1522 1147 1370 1399 1922 1854 1867 1528 1897 2101 1724 994 1519 1616 1915 1722 1821 1781 1684 1281 1138 1026 638
245 525 160 155 0 143 21 21 54 116 162 0 0 1 0 0 306 292 274 384 531 423 669 1047 1559 1688 1476 1447 1471 1605 1794 1712 1612 1840 1669 2033 1872 1396 1690 1846 1923 1791 1697 1612 1476 1102 1108 891 405
117 304 229 47 11 79 27 59 140 90 35 9 0 0 0 68 158 40 248 289 280 343 555 835 1142 1505 1571 1660 1767 1691 1802 1715 1684 1821 1757 2066 1834 1692 1947 1916 1797 1723 1712 1708 1557 1172 889 373 56
266 352 173 63 0 37 94 190 162 101 13 2 1 2 15 144 4 152 178 390 520 636 168 837 997 1036 1061 1397 1445 1581 1480 1626 1542 1677 1782 2104 2036 1813 1792 1912 1861 1680 1550 1603 1567 1539 1047 121 105
343 436 226 133 2 47 287 235 209 94 84 40 25 0 35 64 28 68 223 266 434 756 477 872 1038 981 1179 1289 1346 1486 1401 1495 1164 1274 1236 1526 1367 1390 1840 1551 1747 1672 1579 1384 1417 1330 860 891 757
282 128 325 297 181 5 283 136 167 159 113 59 27 37 33 59 1 30 238 267 405 517 348 739 763 928 869 715 1228 1035 1118 953 834 344 362 906 1321 1641 1472 1827 1724 1490 1252 1248 1320 1584 1399 1285 1068
230 180 316 313 249 56 328 176 136 98 72 67 29 4 51 31 5 47 34 45 111 416 601 661 285 632 594 681 1267 549 824 574 32 0 48 467 782 759 1086 1086 1226 1294 1535 956 1045 1512 1571 1910 1890
255 217 330 212 127 188 222 219 150 84 99 48 38 13 13 18 17 43 56 181 330 182 358 377 429 390 511 702 955 997 1048 102 0 0 0 252 983 770 484 1105 1445 1888 189 77 173 645 739 601 328
173 286 271 133 163 121 30 128 228 93 93 46 53 34 0 21 15 44 62 136 154 125 165 483 352 468 661 706 627 470 953 1064 661 37 0 487 788 1027 869 957 871 565 661 324 870 635 519 685 681
274 331 222 103 117 83 120 80 159 47 43 56 41 29 13 20 33 30 24 21 100 91 402 522 407 496 734 477 827 356 607 910 742 746 321 577 1008 1001 870 1049 1024 634 543 1108 609 1122 844 857 445
356 261 131 58 68 89 71 31 90 5 34 53 45 25 23 29 32 22 30 9 115 113 539 293 200 690 309 518 419 384 606 865 1048 957 1399 1085 1247 1516 1229 944 959 821 862 1146 804 940 694 633 686
237 99 102 70 50 35 36 27 80 18 45 69 52 33 23 38 15 31 26 26 80 84 252 359 244 128 146 155 683 841 742 519 864 1188 1070 1512 1345 1448 1538 865 1021 834 852 1509 1387 994 953 529 864
258 58 28 52 56 52 20 76 39 79 50 62 68 42 19 52 37 42 18 36 140 81 286 376 99 162 468 1053 343 436 517 557 759 1040 1165 1442 1334 1395 1689 1727 777 594 1204 1300 1472 806 833 446 595
74 167 40 22 31 38 27 50 0 58 99 61 71 38 44 26 39 47 29 118 103 85 220 230 127 264 265 789 743 906 554 748 454 1006 1467 1546 1388 1541 1709 1494 915 1610 1177 182 1005 558 676 1369 543
26 42 51 44 44 6 8 0 7 62 76 79 72 55 79 27 46 38 61 140 7 62 351 282 265 666 532 699 91 339 670 595 948 1481 1426 1504 1465 1294 1936 1780 1113 0 516 1500 1394 632 1466 1091 258
9 88 73 122 15 22 7 2 0 31 63 115 59 74 50 32 34 34 44 82 14 156 161 357 674 717 453 437 534 612 556 392 912 1294 1250 1263 1429 1405 1766 1510 1380 793 870 1382 1280 1364 1711 1373 1002
62 95 127 90 51 20 5 10 0 8 47 101 117 67 79 27 9 43 52 69 183 226 277 568 572 519 782 930 542 108 577 583 867 913 1131 1187 1442 1502 1689 1419 1290 830 844 1218 1535 2041 1817 1933 705
109 144 56 83 18 32 22 1 7 0 43 69 133 110 115 60 83 54 43 51 95 443 268 446 703 603 688 915 647 327 489 666 640 968 965 1152 1200 1181 1284 1458 1341 49 0 853 1819 1637 1758 2426 2180
3 54 201 58 38 22 54 0 0 0 14 56 61 99 54 127 29 98 27 113 37 29 542 472 549 698 743 1190 593 545 466 394 700 1044 983 1410 1178 1260 1174 1410 1427 848 626 1032 2166 1718 1972 2316 1255
0 114 31 0 25 41 25 9 0 0 0 5 65 79 70 27 74 49 92 34 214 63 314 429 528 411 541 709 662 821 323 330 706 663 662 995 1151 1113 952 1320 1425 979 1089 1453 1567 1851 2076 1915 572
8 55 49 56 60 15 20 24 0 0 0 0 4 30 55 47 61 49 67 204 222 154 343 626 842 495 585 858 860 667 350 200 577 771 676 721 903 1095 846 1141 1247 1381 1339 1481 1595 1917 1934 1828 1788
2 0 88 25 31 23 33 11 23 0 0 4 5 31 48 117 116 126 41 180 108 170 243 356 811 717 544 798 771 638 740 703 773 611 548 222 688 992 1195 1088 1292 1162 1241 1458 1552 1581 1375 1699 1664
2 0 15 166 3 37 0 4 51 14 8 12 10 12 45 88 20 58 270 176 144 113 176 884 732 592 773 750 692 624 876 709 622 559 109 47 1022 896 1298 1122 1177 995 1019 1366 1366 1273 1142 1247 1780
0 5 12 106 0 1 3 48 46 114 75 141 72 65 86 58 104 90 130 150 11 67 96 819 794 1023 725 519 757 610 892 693 789 926 809 768 565 39 0 922 776 990 968 859 1177 1035 1090 1082 1305
0 0 0 6 45 6 5 108 20 181 63 331 224 174 120 1 2 132 104 156 91 240 335 843 700 687 614 692 454 460 413 483 821 720 901 1055 245 44 800 1116 1095 1020 1054 844 1089 1067 763 1161 1326
0 0 0 0 0 0 2 13 0 0 130 400 384 230 267 138 186 284 220 72 57 386 443 659 671 372 271 439 210 686 250 466 552 483 652 907 799 1128 894 1296 1205 1280 1152 1024 1177 1042 1039 831 868

GFSSGP_con_mlcape_117.txt.gz
CAPE
0 0 0 97 174 70 20 19 5 68 79 45 70 54 43 105 52 27 401 554 589 1005 1679 1628 1440 1705 1890 1868 1923 1866 1958 1945 1906 1899 1374 1455 1790 1644 1487 1507 1615 1494 1650 1722 1538 1470 936 1084 883
0 0 63 286 102 45 7 9 47 108 75 35 26 25 27 58 157 316 258 477 377 1317 1485 1823 1889 1683 1689 1822 1785 1885 1975 1995 1895 2016 1643 1901 1753 1723 1538 1107 1339 1154 918 931 1209 1482 861 860 1038
0 0 132 4 74 44 20 3 69 170 69 15 11 35 109 125 207 270 232 264 866 875 815 1229 1639 1837 1601 1811 1854 2067 2001 1851 1874 2102 1812 1908 1788 1776 1893 1697 1595 1764 1433 1614 986 1504 1232 1251 1358
0 183 9 93 84 218 1 0 34 30 0 0 0 0 19 144 323 511 594 690 543 264 567 812 940 1462 1688 1755 1699 1867 1863 1747 1799 1974 1944 2018 1665 1876 1559 1417 1664 1643 1687 1662 1090 1287 970 1019 960
0 102 50 52 112 58 2 37 71 47 5 0 0 1 49 139 239 508 715 502 242 283 1372 1562 1481 1152 1612 1489 1634 1879 1860 1750 1925 2119 2017 1788 1464 1332 1651 1675 1679 1659 1683 1679 1066 981 583 613 649
132 202 41 44 16 35 66 69 109 4 0 1 0 0 116 191 186 69 590 336 199 887 1140 1431 1637 1359 1400 1508 1750 1853 1871 1740 1686 2131 1997 1186 1594 1898 1887 1701 1711 1680 1251 1053 897 452 273 327 350
87 92 30 0 0 41 81 15 39 9 2 0 0 0 72 214 262 445 566 307 510 732 919 1257 1415 1527 1653 1523 1882 1769 1724 1621 1673 1896 1990 1614 1485 1984 1862 1768 1493 1474 1510 1292 639 115 0 78 178
294 163 1 0 0 36 173 84 42 2 0 0 0 0 39 44 111 138 117 250 365 598 857 909 1117 1227 1543 1574 1742 1733 1707 1631 1642 1810 2054 1999 1969 1875 1783 1842 1728 1645 1649 1536 1191 428 143 125 119
199 96 46 1 0 15 146 204 72 71 11 2 7 17 40 24 90 189 338 296 125 507 674 762 901 1119 922 1165 1408 1502 1368 1314 1279 1225 1530 1745 1561 1663 1693 1501 1707 1669 1611 1575 1339 656 284 263 307
228 52 73 78 15 36 183 146 120 38 24 4 1 37 23 75 86 89 270 303 118 69 538 514 686 787 746 944 1155 1050 932 591 180 422 383 437 1208 1584 1170 1444 1631 1627 1459 1549 1540 1331 936 950 630
285 145 288 277 6 96 50 125 70 44 10 0 0 24 31 33 38 80 108 199 219 175 400 421 640 710 506 664 537 680 553 201 2 13 0 54 675 1268 1054 1076 1180 1221 1420 1207 1034 1272 1081 1286 1511
194 246 358 411 217 168 133 150 8 124 39 17 0 15 3 7 42 122 220 284 224 223 298 338 331 356 598 706 347 343 90 0 0 8 19 240 650 758 401 852 1124 1282 638 1 0 685 217 306 659
275 442 296 190 118 19 0 16 153 157 81 10 15 12 0 0 20 60 69 152 165 152 241 255 256 412 300 773 543 378 0 0 1 25 0 284 582 811 509 625 273 176 640 660 482 533 837 701 548
226 229 199 130 90 25 19 86 166 111 56 2 15 10 0 0 31 100 103 21 75 169 213 133 257 490 752 557 569 420 161 54 0 0 73 251 620 1001 1165 364 679 269 389 554 675 616 650 363 407
413 200 91 33 94 60 3 73 126 35 75 14 12 0 14 12 40 37 36 34 80 217 119 75 247 398 440 271 278 360 572 545 70 199 423 947 1198 673 613 828 796 703 455 949 943 855 1069 529 332
84 78 40 82 43 47 63 74 99 57 66 15 15 3 28 18 36 24 16 80 150 96 9 5 259 46 270 262 203 327 675 862 931 1129 1360 1070 965 1142 1410 429 619 1072 1360 1345 1300 1195 949 610 258
13 65 19 25 5 14 37 67 93 97 54 33 24 12 12 16 29 21 21 121 61 45 11 99 0 0 237 325 487 645 450 683 1111 883 852 811 847 1187 1564 1571 1123 662 957 584 606 549 593 677 500
1 64 30 1 18 25 17 29 7 49 99 58 36 30 22 27 16 9 41 13 9 156 191 180 0 366 94 293 646 487 437 770 930 1207 1060 1118 1026 1447 1271 809 80 185 477 658 1315 653 1162 1095 389
139 165 32 44 34 13 4 0 0 3 49 87 55 10 34 18 35 9 62 15 16 109 129 15 7 190 404 537 405 427 234 602 812 1125 1219 1233 1142 1354 1476 629 0 17 374 618 816 825 1316 1402 1096
46 105 31 50 25 13 3 1 0 7 17 83 98 65 28 34 20 63 32 11 14 107 94 81 147 99 166 396 500 566 457 688 981 1309 1186 1129 1358 1057 1298 722 22 9 573 1242 1431 1330 1639 1353 435
16 48 18 39 35 15 5 1 2 4 16 27 53 113 65 44 18 57 73 12 18 196 145 204 200 355 386 372 278 406 581 541 767 1042 978 948 1121 1529 1339 943 223 182 589 601 1369 1946 1637 1446 1210
108 35 59 78 11 9 1 1 3 1 20 12 21 50 75 59 30 57 30 17 0 0 76 226 137 322 568 440 123 138 274 282 466 601 826 853 1212 1174 1220 1272 763 514 0 584 1069 1798 1846 1536 1300
94 4 72 30 0 0 5 2 0 1 20 13 10 38 58 25 3 43 35 15 34 15 157 185 217 96 255 207 393 82 303 415 737 815 907 902 1057 873 865 1258 1015 226 297 873 1307 1725 1445 479 410
291 293 97 45 0 0 2 4 5 8 0 1 4 16 33 29 22 67 64 106 173 112 208 203 185 335 528 425 380 337 290 238 605 774 592 638 667 985 921 1007 862 684 835 933 1540 1689 1559 776 0
93 65 22 19 0 6 9 16 63 9 1 2 2 5 43 16 5 37 76 63 195 227 240 265 237 216 309 361 352 412 241 127 449 523 390 410 447 681 637 1071 836 591 933 1036 1572 1651 1677 1766 1293
82 52 1 10 13 13 0 16 21 0 0 0 1 2 81 78 29 64 47 74 56 369 360 391 200 202 158 255 549 372 125 12 419 582 486 289 402 443 838 850 940 1201 1311 1005 1544 1272 1386 1421 1688
40 19 0 64 10 3 0 1 0 3 28 0 0 26 80 86 15 59 70 64 216 113 159 505 380 317 176 355 751 468 508 599 562 656 313 144 531 792 809 702 651 754 1092 1012 1234 1276 1137 960 1602
0 0 20 151 35 2 11 7 0 17 48 76 0 20 89 133 81 86 99 43 117 133 115 688 409 415 274 303 670 385 544 598 614 424 62 372 471 390 237 255 563 750 882 1142 1109 1044 918 1248 1129
0 0 0 8 59 17 6 61 0 49 102 66 62 20 46 92 93 95 94 105 129 138 90 547 665 428 401 603 510 462 283 582 514 791 595 695 307 0 0 111 513 596 969 660 956 690 683 766 850
0 0 0 0 0 15 32 1 134 20 146 54 64 95 31 92 99 42 134 250 64 54 143 806 739 448 458 671 511 404 475 523 588 520 657 783 254 2 362 486 908 872 756 1034 957 1194 674 883 811

GFSSGP_con_mlcape_120.txt.gz
CAPE
0 0 1 158 113 36 7 17 19 32 20 23 20 57 121 140 0 6 238 306 534 955 1322 1739 1832 1988 2049 2124 2098 1759 1892 1903 1760 1593 1316 1766 1603 1558 1545 1588 1612 1676 1569 1501 1274 1289 1228 1271 1248
0 0 27 128 24 3 61 57 25 33 37 26 33 121 169 227 300 468 369 338 798 933 1161 1438 1769 1928 1957 2093 2074 2081 1945 1960 1243 1779 1654 1578 1569 1543 1665 1632 1590 1400 1687 1378 1185 1231 1366 1205 1162
0 0 79 8 66 44 69 47 17 22 31 44 62 113 201 258 400 401 321 654 1130 1247 1681 1785 1685 1969 1930 2019 1996 2001 2005 1929 1597 1732 1805 1753 1583 1403 1363 1327 959 1275 968 1521 1062 1255 1528 1284 1103
0 0 0 29 63 141 108 55 23 6 47 58 46 68 228 312 261 312 304 1063 827 1134 1436 1982 1847 1630 2061 1896 2034 1987 1869 2009 1888 1892 1831 1876 1785 1554 1501 1660 1479 1884 1224 1355 1476 1372 1444 1475 1460
28 1 0 38 115 108 88 40 16 10 3 40 68 101 290 232 184 287 530 619 161 497 851 1350 1624 2015 1669 1934 1938 1912 1777 1947 1916 2177 1755 1708 1487 1540 1707 1760 1627 1692 1549 1117 1197 1090 1203 1226 1379
154 0 3 20 43 138 109 69 23 10 1 11 15 97 266 432 290 316 313 79 213 920 1288 1220 1495 1745 1628 1961 1863 1921 1806 2104 2119 1958 1721 1690 1761 2135 1654 1686 1723 1410 1239 1116 760 659 721 745 858
87 0 2 15 56 65 51 41 32 7 15 0 0 30 147 358 381 226 97 405 927 1165 1283 1427 1263 1517 1736 2000 1813 1857 1727 1949 2052 1856 1427 2075 2078 1898 1838 1557 1474 1303 1119 792 645 388 414 401 535
155 94 5 20 45 41 11 61 58 15 4 0 0 49 60 82 250 101 392 574 615 940 1147 1145 1468 1481 1600 1813 1807 1766 1751 1356 2074 1923 1530 2030 1905 1815 1757 1829 1797 1693 1547 1228 889 348 289 357 390
530 66 38 7 34 61 164 17 24 9 10 0 0 60 99 175 133 207 288 370 534 759 802 1078 1210 1327 1311 1480 1581 1532 1713 1745 1864 1858 1899 1563 1538 1313 1645 1761 1757 1695 1617 1200 860 546 423 578 745
222 67 4 2 2 57 175 105 13 2 0 0 15 1 86 98 216 223 234 306 404 617 768 854 902 663 913 1347 1118 1175 876 519 845 767 713 796 940 974 1208 1584 1664 1550 1483 1387 1041 748 712 732 429
194 71 333 2 0 94 95 94 36 14 0 21 32 31 40 86 128 181 152 158 408 537 619 747 718 595 811 948 835 719 185 118 177 89 145 662 622 1056 1088 1109 1274 1196 1438 970 742 874 924 952 1126
309 390 467 324 185 70 108 50 55 28 17 44 42 36 43 49 231 237 127 63 195 270 320 515 612 409 525 432 406 282 34 15 27 0 43 267 448 681 729 711 884 1016 962 69 65 418 688 351 394
89 234 445 323 168 92 62 3 116 74 5 65 27 75 22 25 71 152 190 157 264 324 305 512 503 379 365 137 168 52 0 0 0 0 57 318 368 463 399 687 432 110 467 498 394 333 390 609 653
417 282 225 126 60 4 10 0 39 95 37 26 28 12 10 22 85 181 212 200 279 203 232 351 274 416 510 226 91 0 0 0 17 0 0 112 323 642 456 111 214 126 292 193 614 559 719 535 178
417 129 147 87 0 0 2 0 53 57 33 40 1 0 0 24 97 118 149 158 191 189 238 306 554 544 492 400 325 0 0 0 0 0 47 128 459 716 335 362 609 636 604 937 1295 1280 893 663 278
120 59 37 74 3 4 21 15 49 48 24 27 10 2 0 45 60 105 141 141 144 156 95 268 401 405 318 306 300 207 374 45 38 227 431 604 748 1138 889 443 539 966 1100 944 906 979 1096 644 381
0 0 50 62 40 45 15 49 23 35 90 3 0 12 6 72 101 64 91 133 155 63 98 181 151 222 234 149 246 404 574 494 316 385 753 815 803 1091 998 1312 986 789 623 711 1169 1152 949 593 298
0 0 7 9 16 5 37 50 14 2 44 66 24 21 34 40 40 62 109 153 112 40 25 72 25 154 227 425 556 345 564 749 858 741 630 602 886 826 906 433 88 283 676 749 637 969 1480 340 399
0 0 35 11 30 25 15 0 30 0 14 83 63 34 33 50 32 128 154 116 59 20 42 25 79 100 144 327 422 239 339 521 852 876 844 1064 916 718 713 171 0 216 526 963 1041 1152 1415 604 831
70 47 65 66 28 7 10 3 18 2 1 55 91 30 29 33 47 89 35 62 140 74 27 0 144 107 164 289 448 275 402 409 905 981 1133 1026 1077 1039 904 323 0 334 670 818 1505 1611 1232 705 571
19 0 41 51 49 21 1 0 0 5 5 9 69 72 12 19 27 43 27 62 150 113 29 71 22 85 366 280 416 394 419 492 618 628 752 826 1010 1196 979 514 0 320 175 519 1118 1633 1272 805 794
0 185 78 66 61 20 2 0 0 0 0 4 35 57 26 25 44 63 30 20 137 100 17 41 71 145 313 285 237 337 297 318 283 573 620 785 1003 1084 980 725 349 425 1 687 1180 1493 1118 982 567
176 127 41 63 33 7 0 0 0 0 1 3 37 42 58 24 37 51 52 48 142 132 99 72 132 270 287 228 175 190 222 171 343 569 654 649 821 968 1034 1022 679 48 79 877 1350 1545 349 284 645
210 130 95 35 18 0 2 1 3 0 0 5 24 31 40 28 40 52 64 37 93 154 119 102 183 218 209 261 308 179 180 271 478 596 602 645 728 892 950 886 796 594 708 1087 1302 1424 899 7 62
194 98 16 3 10 7 1 6 4 7 5 0 13 20 10 19 11 26 42 58 42 97 92 129 185 74 111 142 307 177 251 259 445 546 600 580 625 642 845 907 567 421 761 1024 1327 1420 1245 872 788
131 56 0 0 27 34 15 0 0 0 0 4 1 44 7 36 62 25 74 91 48 49 61 212 169 149 201 237 289 316 230 89 373 494 469 330 341 448 752 910 598 512 728 795 1259 1078 1080 1155 1244
154 94 34 32 23 14 16 0 0 0 0 0 0 7 3 61 65 50 83 141 124 118 153 186 163 267 270 336 274 235 138 0 258 452 412 314 406 539 480 712 827 885 992 669 1121 1104 760 674 1249
24 15 0 27 34 12 11 1 0 0 1 0 0 1 12 28 71 27 28 175 171 249 276 267 227 147 139 249 329 311 186 399 520 547 390 256 500 545 629 546 411 578 682 857 846 943 783 870 1017
0 0 0 0 63 76 31 5 0 0 0 0 0 2 1 2 14 72 70 55 180 296 347 424 322 259 107 213 581 431 299 442 667 479 261 45 386 270 295 221 332 676 736 850 992 691 503 654 729
0 0 0 0 0 2 0 0 10 0 19 2 11 1 0 0 27 85 136 117 80 214 273 499 529 423 281 261 424 392 287 555 460 511 739 515 423 233 95 0 300 615 663 715 674 717 786 541 579

GFSSGP_con_mlcape_123.txt.gz
CAPE
39 36 6 123 13 2 8 8 16 20 32 20 11 125 108 123 2 0 117 237 337 705 1166 1466 1575 1993 1947 2013 1960 1878 1700 1829 1683 1046 1308 1212 1261 1708 1664 1701 1809 1617 1476 1480 1232 1333 1334 1409 1287
0 0 14 93 6 7 2 34 30 56 66 39 163 184 212 192 349 137 80 412 539 892 1421 1573 1509 2003 2086 1950 1867 1921 1841 1729 1388 1671 1603 1756 1747 1743 1748 1766 1727 1627 1294 1459 1442 1456 1293 1017 1287
0 10 52 13 49 17 21 17 35 76 69 123 193 230 278 231 284 125 254 556 931 1144 1462 1823 1840 1926 2116 1973 1589 1836 1420 1582 1727 1746 1767 1762 1657 1677 1346 1108 1182 1410 1464 1317 1545 1388 1360 1203 1228
33 0 1 37 32 39 35 17 43 60 67 104 156 166 255 362 309 338 384 840 640 849 1417 1752 2053 1932 2007 1991 1538 1827 1967 1635 1828 1832 1809 1633 1716 1618 1925 1497 1978 1115 1610 1505 1695 1430 1251 1448 1405
2 0 9 45 68 76 12 23 54 59 88 91 111 152 270 246 353 214 656 883 924 1295 1711 1742 1646 1891 1979 1899 1912 1971 1810 1838 1917 1743 1790 1742 1614 1605 1758 1725 1779 1383 1321 1577 1504 1582 1539 1574 1861
8 0 1 31 58 42 16 23 26 63 99 134 151 178 302 237 67 353 671 654 1005 1057 1412 1683 1752 1857 1866 2084 1868 1899 1901 1911 1793 1794 1677 1664 1720 1947 1855 1734 1818 1575 1157 1106 1195 1304 1200 1280 1262
6 0 4 38 33 42 43 40 38 86 65 117 128 142 214 217 171 368 453 501 514 787 990 1295 1732 1595 1905 1928 1824 1891 2035 1787 1769 1892 1797 1960 1811 1870 1940 1762 1256 1120 921 911 931 902 848 893 1215
100 7 3 22 33 41 36 110 29 8 33 109 122 106 196 260 221 259 257 398 1031 1270 1132 865 1202 1616 1669 1791 1971 1798 1984 1968 1800 1727 1722 2110 2110 1881 1713 1813 1789 1563 1184 752 610 649 800 808 1048
182 44 13 8 41 7 102 94 9 5 35 55 127 91 208 202 162 123 226 550 843 1187 948 1014 1351 1407 1683 1541 1680 1739 1555 1907 1799 1654 1904 1763 1605 1793 1685 1891 1841 1721 1527 1176 872 784 785 927 929
131 53 44 4 11 61 115 87 9 4 6 88 89 119 169 168 185 216 164 271 530 678 841 1135 990 1241 1341 1486 1216 776 936 1002 1426 1537 1220 1167 1172 1215 1543 1808 1817 1611 1435 1137 759 562 677 705 482
148 44 19 2 1 39 94 26 0 0 11 24 78 129 151 154 183 253 256 305 342 533 794 838 857 1039 1051 1111 970 582 413 668 636 552 617 830 860 1025 919 1073 934 768 1040 717 560 400 702 842 853
68 446 247 83 7 40 65 71 1 12 16 29 121 149 193 216 206 260 256 330 495 495 708 796 476 646 797 782 615 253 128 149 101 82 317 564 556 517 637 727 814 851 882 94 41 117 225 332 450
0 266 374 237 37 50 43 39 37 26 79 29 136 167 178 232 254 220 190 200 316 350 594 611 411 425 437 380 312 96 6 40 16 0 128 368 286 231 286 502 481 37 407 381 462 424 495 484 407
295 260 168 50 75 50 15 14 51 112 96 41 86 105 143 205 237 222 86 190 226 263 420 463 357 336 335 178 194 5 0 0 0 0 82 170 246 328 417 372 134 220 236 172 610 687 480 685 225
262 76 92 10 0 3 1 0 32 48 109 71 57 70 88 152 221 196 106 178 203 211 328 396 337 493 324 20 3 0 0 0 0 0 0 175 412 564 327 202 436 611 673 856 1073 1003 923 852 142
183 72 15 49 17 2 18 3 15 84 67 20 49 60 64 142 197 242 177 147 173 183 233 251 495 403 409 234 5 0 0 0 0 9 138 254 566 521 517 470 574 951 743 554 836 792 700 498 363
0 0 51 29 5 2 12 4 45 39 18 38 24 18 51 149 172 228 188 137 156 189 195 244 471 344 414 356 223 78 43 0 76 281 463 722 808 828 878 764 749 643 578 881 865 1264 490 345 230
0 0 16 39 0 0 3 27 10 15 50 19 16 15 23 113 154 172 141 116 139 130 161 150 140 241 247 257 258 208 350 356 252 347 688 714 963 898 686 451 176 384 613 679 1026 1112 641 322 287
0 0 22 1 0 0 0 0 1 0 6 37 62 33 75 116 124 93 99 135 100 40 99 85 116 93 155 218 319 277 466 554 590 775 691 724 720 468 440 278 0 257 857 1169 1518 1276 530 485 721
74 61 52 34 10 10 3 7 12 1 0 45 69 32 46 92 75 89 100 125 81 52 98 20 35 105 304 306 301 278 389 428 826 976 957 775 824 682 808 497 0 382 539 1049 1560 1281 806 515 562
39 76 1 15 63 38 29 6 3 0 16 45 49 35 20 23 51 93 82 96 37 35 39 0 16 65 184 249 329 265 370 463 645 810 718 949 913 804 691 235 0 190 183 809 1202 1353 1050 911 405
17 96 126 54 47 37 0 0 0 1 15 23 23 47 0 9 68 102 69 73 0 48 19 0 0 84 223 230 338 240 242 373 268 336 596 775 945 979 768 397 0 169 15 847 1333 879 816 594 492
2 226 175 37 15 16 8 0 0 0 1 5 0 36 1 13 47 84 90 64 45 40 7 0 46 147 206 160 217 208 254 231 273 331 587 661 662 885 650 727 443 2 185 938 1291 892 66 479 538
343 160 117 69 8 1 4 0 0 0 0 0 0 36 27 22 56 76 70 106 105 38 27 0 0 59 99 164 142 194 207 230 228 349 461 448 538 735 840 823 597 87 481 902 1141 931 96 63 558
227 128 22 12 6 2 14 2 0 0 0 0 0 3 41 13 63 49 33 119 104 37 38 62 55 60 116 147 146 130 166 183 202 305 431 465 559 641 736 769 660 414 664 941 1125 1001 719 213 685
236 91 5 0 2 21 25 2 0 0 0 1 0 1 7 15 50 42 41 56 118 93 76 97 115 122 116 152 230 191 119 148 217 368 442 408 458 489 545 712 711 448 406 804 1047 1073 951 872 995
401 178 14 40 41 26 44 23 0 0 0 0 0 0 1 6 10 41 48 60 89 143 95 98 104 109 114 130 135 183 134 110 151 320 404 352 278 335 377 634 736 553 686 739 910 956 672 692 1017
181 146 70 47 31 17 4 13 0 0 0 0 0 0 2 16 26 14 65 88 92 103 106 134 108 105 67 98 127 168 223 174 79 277 374 298 237 353 580 475 598 675 706 734 675 789 868 612 966
1 19 1 25 42 51 8 1 0 0 1 5 0 1 26 31 17 11 72 138 152 111 104 133 150 126 121 143 253 236 203 165 155 370 370 286 249 325 429 436 427 462 498 599 795 815 650 551 681
0 0 0 0 0 1 0 0 0 0 0 6 0 0 50 45 19 14 74 113 176 170 140 192 202 172 184 198 271 192 246 232 459 494 380 196 242 258 245 196 175 375 492 583 625 795 658 363 500